[[[{"header":{"parameterUnit":"kt","parameterCategory":2,"dx":1,"dy":1,"la1":29.764190673828125,"la2":30.86408042907715,"lo1":-88.46762084960938,"lo2":-86.9344482421875,"nx":47,"ny":34,"refTime":"2022-10-08T00:00:00:Z","depth":"0","parameterNumber":2,"parameterNumberName":"U-component_of_CURRENTS"},"data":[-0.2029,-0.1671,-0.1372,-0.1089,-0.079,-0.0678,-0.0988,-0.1863,-0.2563,-0.2648,-0.2755,-0.3049,-0.3326,-0.3508,-0.346,-0.3118,-0.2798,-0.2664,-0.2611,-0.26,-0.2744,-0.3123,-0.3513,-0.3567,-0.3508,-0.3588,-0.3545,-0.3294,-0.2787,-0.2093,-0.2168,-0.2557,-0.2392,-0.2162,-0.1821,-0.1356,-0.0988,-0.0635,-0.0288,0.0005,0.0267,0.0523,0.0635,0.0411,-0.0027,-0.04,-0.0726,-0.2638,-0.2541,-0.213,-0.189,-0.1757,-0.1938,-0.2435,-0.2851,-0.2872,-0.2835,-0.3022,-0.3251,-0.339,-0.339,-0.3123,-0.2771,-0.2611,-0.2536,-0.2413,-0.2397,-0.2648,-0.3065,-0.3481,-0.3636,-0.3663,-0.3807,-0.386,-0.3914,-0.3716,-0.3086,-0.2355,-0.2312,-0.2557,-0.2344,-0.212,-0.189,-0.1596,-0.1196,-0.0758,-0.0406,-0.0171,-0.0085,-0.0219,-0.0464,-0.0673,-0.0844,-0.1078,-0.2552,-0.3097,-0.331,-0.3284,-0.3257,-0.3278,-0.3278,-0.3123,-0.2942,-0.2995,-0.3177,-0.33,-0.3284,-0.3102,-0.2808,-0.2605,-0.2579,-0.2595,-0.2451,-0.221,-0.221,-0.2611,-0.3113,-0.3369,-0.3534,-0.3759,-0.3892,-0.3935,-0.3956,-0.3812,-0.33,-0.2445,-0.2194,-0.2333,-0.2173,-0.1911,-0.157,-0.1223,-0.0892,-0.0646,-0.0545,-0.0603,-0.0742,-0.0828,-0.0833,-0.0828,-0.0913,-0.2274,-0.2718,-0.3081,-0.3246,-0.33,-0.3225,-0.3049,-0.2947,-0.3033,-0.3198,-0.3246,-0.3161,-0.2969,-0.2744,-0.2611,-0.2605,-0.2648,-0.2686,-0.2547,-0.2242,-0.2072,-0.2189,-0.2531,-0.2904,-0.3118,-0.3251,-0.3476,-0.3727,-0.3951,-0.4095,-0.3935,-0.3401,-0.2493,-0.1757,-0.1858,-0.1837,-0.1468,-0.1196,-0.0769,-0.0491,-0.0459,-0.0555,-0.0673,-0.0721,-0.0673,-0.0609,-0.0635,-0.2184,-0.2419,-0.2659,-0.2953,-0.3177,-0.3246,-0.3278,-0.3337,-0.3342,-0.3241,-0.3027,-0.2782,-0.2605,-0.2611,-0.2707,-0.275,-0.2782,-0.2776,-0.2605,-0.2264,-0.2034,-0.2114,-0.2355,-0.2557,-0.2648,-0.2589,-0.2792,-0.3326,-0.378,-0.3967,-0.3882,-0.37,-0.3337,-0.26,-0.1538,-0.1153,-0.1426,-0.1233,-0.0833,-0.0513,-0.0283,-0.0262,-0.0384,-0.0475,-0.047,-0.0416,-0.0395,-0.2082,-0.2216,-0.2371,-0.252,-0.267,-0.2792,-0.2878,-0.2883,-0.2808,-0.2686,-0.2584,-0.2568,-0.2675,-0.284,-0.2926,-0.2915,-0.2894,-0.283,-0.2664,-0.2397,-0.2168,-0.2093,-0.2194,-0.2371,-0.2408,-0.2248,-0.2093,-0.2333,-0.2755,-0.2878,-0.2803,-0.2915,-0.3118,-0.2995,-0.2509,-0.1692,-0.0844,-0.0614,-0.0758,-0.0609,-0.0363,-0.024,-0.023,-0.0262,-0.0246,-0.0187,-0.0149,-0.2173,-0.2125,-0.2146,-0.221,-0.228,-0.2322,-0.2365,-0.2424,-0.252,-0.2638,-0.2776,-0.291,-0.2995,-0.3049,-0.3054,-0.3001,-0.2931,-0.2851,-0.2744,-0.2611,-0.2483,-0.2387,-0.2317,-0.2248,-0.2141,-0.1991,-0.181,-0.1709,-0.1757,-0.1821,-0.1831,-0.189,-0.2077,-0.2387,-0.2573,-0.2333,-0.1826,-0.102,-0.031,-0.0139,-0.0208,-0.0235,-0.0155,-0.0064,0.0032,0.0128,0.0208,-0.2536,-0.2467,-0.2424,-0.2408,-0.2419,-0.2456,-0.2541,-0.2675,-0.284,-0.299,-0.3097,-0.3145,-0.3139,-0.3123,-0.3102,-0.3038,-0.2958,-0.2888,-0.2824,-0.2744,-0.2659,-0.2584,-0.2515,-0.2445,-0.2365,-0.2232,-0.2002,-0.1751,-0.1623,-0.1634,-0.165,-0.1639,-0.1676,-0.1831,-0.2088,-0.2258,-0.2146,-0.1789,-0.1276,-0.0566,0.0064,0.031,0.0331,0.0384,0.0502,0.0603,0.0689,-0.2787,-0.268,-0.2627,-0.2621,-0.2643,-0.2686,-0.2782,-0.292,-0.3059,-0.3161,-0.3209,-0.3209,-0.3171,-0.3145,-0.3123,-0.307,-0.3001,-0.2931,-0.2851,-0.2739,-0.2627,-0.2573,-0.2611,-0.2659,-0.2643,-0.2541,-0.2349,-0.2114,-0.1943,-0.1853,-0.1778,-0.165,-0.1586,-0.166,-0.1826,-0.2007,-0.2088,-0.1991,-0.1655,-0.1276,-0.0908,-0.0347,0.0187,0.071,0.0892,0.0769,0.0806,-0.2803,-0.2675,-0.2589,-0.2568,-0.2595,-0.2638,-0.275,-0.2926,-0.3102,-0.3203,-0.3241,-0.3235,-0.3203,-0.3171,-0.3145,-0.3081,-0.2995,-0.2904,-0.2792,-0.267,-0.26,-0.2621,-0.2702,-0.2766,-0.276,-0.2659,-0.2461,-0.2237,-0.204,-0.1943,-0.1906,-0.1794,-0.1628,-0.1543,-0.1612,-0.1805,-0.2056,-0.2242,-0.2285,-0.2109,-0.1591,-0.1191,-0.1041,-0.039,0.0347,0.0641,0.0806,-0.2894,-0.2792,-0.2621,-0.2472,-0.2408,-0.2392,-0.2477,-0.268,-0.291,-0.3081,-0.3209,-0.3284,-0.3268,-0.3209,-0.3145,-0.3049,-0.2942,-0.2846,-0.275,-0.2675,-0.2659,-0.2691,-0.2718,-0.2712,-0.2664,-0.2557,-0.2392,-0.22,-0.2045,-0.197,-0.1922,-0.1831,-0.1687,-0.1543,-0.1468,-0.1516,-0.1735,-0.197,-0.2184,-0.2445,-0.2563,-0.2387,-0.1789,-0.1265,-0.1089,-0.0619,0.0123,-0.3091,-0.3054,-0.2862,-0.2664,-0.2552,-0.252,-0.2573,-0.2616,-0.2755,-0.2985,-0.3214,-0.3396,-0.3364,-0.3225,-0.3107,-0.2979,-0.2883,-0.2808,-0.275,-0.2718,-0.2718,-0.2734,-0.2718,-0.2664,-0.2579,-0.244,-0.2269,-0.2109,-0.1975,-0.1885,-0.1821,-0.1746,-0.1676,-0.1607,-0.1532,-0.1442,-0.141,-0.157,-0.1869,-0.2125,-0.2269,-0.2322,-0.2328,-0.2242,-0.1714,-0.0806,-0.0299,-0.3337,-0.3294,-0.2915,-0.2808,-0.3636,-0.4277,-0.4058,-0.3438,-0.2808,-0.2573,-0.2942,-0.3593,-0.3401,-0.284,-0.2862,-0.2926,-0.2862,-0.2787,-0.2744,-0.2712,-0.2702,-0.2712,-0.2654,-0.2563,-0.2504,-0.2424,-0.2301,-0.2162,-0.2029,-0.1917,-0.181,-0.1698,-0.1655,-0.1666,-0.165,-0.1548,-0.1436,-0.1388,-0.1463,-0.165,-0.1799,-0.1869,-0.1938,-0.2018,-0.2002,-0.2013,-0.2098,0,0,-0.1682,-0.41,-0.5478,-0.5675,-0.4608,-0.3513,-0.3011,-0.2707,-0.2317,-0.2205,0,-0.1618,-0.3139,-0.3017,-0.2872,-0.2728,-0.268,-0.2621,-0.2654,-0.291,-0.283,-0.2451,-0.2317,-0.2306,-0.2328,-0.2322,-0.2248,-0.2184,-0.2173,-0.2082,-0.1997,-0.1949,-0.1885,-0.1751,-0.158,-0.1458,-0.1399,-0.1351,-0.1313,-0.1393,-0.1602,-0.189,-0.2371,-0.3006,-0.3454,-0.3113,-0.3396,-0.3369,-0.3294,-0.3406,0,0,-0.1895,-0.4106,-0.3732,-0.2408,-0.1185,-0.0763,-0.0918,0,0,0,0,0,0,0,0,-0.095,-0.1901,-0.1959,-0.2066,-0.2285,-0.275,-0.2835,-0.2563,-0.2584,-0.2851,-0.3006,-0.2707,-0.2248,-0.1965,-0.1789,-0.1666,-0.1564,-0.1436,-0.1335,-0.134,-0.1436,-0.158,-0.1767,-0.2093,-0.2616,-0.3097,-0.3369,-0.386,-0.4768,-0.5376,-0.4672,-0.3743,-0.3502,-0.3524,0,0,0,-0.0593,-0.1468,-0.1906,-0.1917,-0.1591,-0.1143,-0.0753,-0.0758,-0.0865,0,0,0,0,0,0,0,-0.1201,-0.2467,-0.2589,-0.2851,-0.3187,-0.2979,-0.244,-0.204,-0.1757,-0.1719,-0.1885,-0.1927,-0.1714,-0.1548,-0.1479,-0.1458,-0.15,-0.1671,-0.197,-0.3011,-0.2776,-0.2365,-0.2483,-0.3257,-0.4186,-0.4816,-0.4496,-0.3556,-0.2915,-0.2654,-0.1692,-0.0828,-0.1228,-0.1575,-0.1345,-0.0913,-0.0683,-0.0694,-0.0769,-0.0806,0,0,0,0,0,0,0,0,0,0,0,0,-0.1004,-0.2355,-0.2712,-0.3118,-0.3684,-0.3406,-0.2547,-0.1975,-0.1773,-0.1639,-0.1522,-0.1458,-0.1506,-0.1682,0,-0.0721,-0.1207,-0.102,-0.1276,-0.1484,0,0,0,0,0,-0.0139,-0.0678,-0.1442,-0.166,-0.1265,-0.0721,-0.0374,-0.0577,-0.0817,0,0,0,0,0,0,0,0,0,0,0,0,0,0,0,0,-0.1799,-0.1607,0,0,-0.1725,-0.1666,-0.1644,-0.157,-0.1511,-0.157,-0.1548,0,0,0,-0.0363,-0.0625,-0.0518,0,0,0,0,0,-0.0208,-0.118,-0.2232,-0.2237,-0.1586,-0.0902,-0.0913,-0.1052,0,0,0,0,0,0,0,0,0,0,0,0,0,0,0,0,0,0,-0.2056,-0.2355,0,0,0,0,0,0,0,-0.0603,0,0,0,0,0,0,0,0,0,0,0,-0.0422,-0.1698,-0.2531,-0.2168,-0.1436,-0.0683,-0.0326,0,0,0,0,0,0,0,0,0,0,0,0,0,0,0,0,0,0,0,0,-0.0801,-0.1239,-0.087,-0.0865,0,0,0,0,0,0,0,0,0,0,0,0,0,0,0,0,-0.0849,-0.1821,-0.1746,-0.1543,-0.1527,-0.1516,0,0,0,0,0,0,0,0,0,0,0,0,0,0,0,0,0,0,0,0,0,0,-0.0854,-0.1847,-0.2274,-0.2045,-0.1121,-0.071,0,0,0,0,0,0,0,0,0,0,0,0,0,0,-0.0582,-0.0747,-0.1554,-0.1794,-0.1698,0,0,0,0,0,0,0,0,0,0,0,0,0,0,0,0,0,0,0,0,0,0,0,0,0,0,-0.0171,-0.0342,0,0,0,0,0,0,0,0,0,0,0,0,0,0,-0.0128,-0.1116,-0.2002,-0.1869,-0.1709,0,0,0,0,0,0,0,0,0,0,0,0,0,0,0,0,0,0,0,0,0,0,0,0,0,0,0,0,0,0,0,0,0,0,0,0,0,0,0,0,0,0,-0.0763,-0.2098,-0.2269,-0.1709,-0.1554,0,0,0,0,0,0,0,0,0,0,0,0,0,0,0,0,0,0,0,0,0,0,0,0,0,0,0,0,0,0,0,0,0,0,0,0,0,0,0,0,0,0,-0.0454,-0.1372,-0.1527,-0.0828,-0.0443,0,0,0,0,0,0,0,0,0,0,0,0,0,0,0,0,0,0,0,0,0,0,0,0,0,0,0,0,0,0,0,0,0,0,0,0,0,0,0,0,0,0,0,-0.1415,-0.1709,-0.008,0.0427,0,0,0,0,0,0,0,0,0,0,0,0,0,0,0,0,0,0,0,0,0,0,0,0,0,0,0,0,0,0,0,0,0,0,0,0,0,0,0,0,0,0,0,0.0352,0.126,0.1377,0.0934,0,0,0,0,0,0,0,0,0,0,0,0,0,0,0,0,0,0,0,0,0,0,0,0,0,0,0,0,0,0,0,0,0,0,0,0,0,0,0,0,0,0,0,0,0.0737,0.1474,0,0,0,0,0,0,0,0,0,0,0,0,0,0,0,0,0,0,0,0,0,0,0,0,0,0,0,0,0,0,0,0,0,0,0,0,0,0,0,0,0,0,0,0,0,0,0,0,0,0,0,0,0,0,0,0,0,0,0,0,0,0,0,0,0,0,0,0,0,0,0,0,0,0,0,0,0,0,0,0,0,0,0,0,0,0,0,0,0,0,0,0,0,0,0,0,0,0,0,0,0,0,0,0,0,0,0,0,0,0,0,0,0,0,0,0,0,0,0,0,0,0,0,0,0,0,0,0,0,0,0,0,0,0,0,0,0,0,0,0,0,0,0,0,0,0,0,0,0,0,0,0,0,0,0,0,0,0,0,0,0,0,0,0,0,0,0,0,0,0,0,0,0,0,0,0,0,0,0,0,0,0,0,0,0,0,0,0,0,0,0,0,0,0,0,0,0,0,0,0,0,0,0,0,0,0,0,0,0,0,0,0,0,0,0,0,0,0,0,0,0,0,0,0,0,0,0,0,0,0,0,0,0,0,0,0,0,0,0,0,0,0,0,0,0,0,0,0,0,0,0,0,0,0,0,0,0,0,0,0,0,0,0,0,0,0,0,0,0,0,0,0,0,0,0,0,0,0,0,0,0,0,0,0,0,0,0,0,0,0,0,0,0,0,0,0,0,0,0,0,0,0,0,0,0,0,0,0,0,0,0,0,0]}],[{"header":{"parameterUnit":"kt","parameterCategory":2,"dx":1,"dy":1,"la1":29.764190673828125,"la2":30.86408042907715,"lo1":-88.46762084960938,"lo2":-86.9344482421875,"nx":47,"ny":34,"refTime":"2022-10-08T00:00:00:Z","depth":"0","parameterNumber":3,"parameterNumberName":"V-component_of_CURRENTS"},"data":[0.0641,0.0929,0.1127,0.1586,0.1959,0.205,0.1837,0.1917,0.2077,0.2007,0.1863,0.1821,0.1895,0.2002,0.1869,0.1639,0.158,0.1351,0.0961,0.0758,0.0961,0.1004,0.0582,-0.0171,-0.0657,-0.0384,0.0956,0.2221,0.2381,0.1805,0.1596,0.2136,0.2814,0.3502,0.3999,0.4266,0.4479,0.4645,0.4805,0.4869,0.4992,0.5035,0.488,0.4592,0.4309,0.4132,0.3903,0.0112,0.0945,0.1329,0.1639,0.1954,0.22,0.2312,0.2221,0.213,0.1949,0.1959,0.2013,0.2114,0.2018,0.157,0.1436,0.1575,0.1532,0.1116,0.0726,0.0998,0.1372,0.0961,0.0123,-0.0571,-0.0982,-0.0331,0.0897,0.1751,0.221,0.1927,0.1837,0.2322,0.2808,0.3337,0.3727,0.4116,0.4421,0.4608,0.4661,0.4693,0.4581,0.4282,0.3807,0.3385,0.3043,0.283,-0.032,0.0342,0.0966,0.141,0.1805,0.212,0.2274,0.212,0.197,0.1911,0.204,0.2168,0.2162,0.1778,0.1335,0.1404,0.1607,0.1687,0.1383,0.0918,0.0966,0.1666,0.1602,0.086,-0.0048,-0.0908,-0.0945,-0.0288,0.0464,0.1244,0.1869,0.1949,0.2002,0.2328,0.2776,0.3033,0.3438,0.3689,0.3817,0.3865,0.3828,0.3705,0.3486,0.3081,0.2616,0.2269,0.2194,-0.0182,0.0005,0.0363,0.0833,0.1276,0.1554,0.1751,0.1826,0.189,0.1986,0.2114,0.2173,0.1981,0.1506,0.1313,0.1372,0.1522,0.1644,0.1484,0.1052,0.0897,0.1506,0.2024,0.1789,0.102,-0.0069,-0.0763,-0.0678,-0.0198,0.0101,0.0587,0.1324,0.1805,0.1986,0.2109,0.2584,0.283,0.3001,0.3139,0.3129,0.307,0.3054,0.3027,0.2792,0.2408,0.2061,0.1965,0.0187,0.0278,0.039,0.0673,0.0982,0.1191,0.1393,0.158,0.1741,0.1869,0.1922,0.1863,0.165,0.1399,0.1351,0.1313,0.1361,0.1447,0.1372,0.1062,0.0774,0.1014,0.1666,0.2029,0.1863,0.1095,0.0123,-0.0395,-0.0336,-0.0368,-0.0481,-0.0128,0.0753,0.1442,0.1895,0.204,0.2066,0.2488,0.2712,0.2718,0.268,0.2696,0.2782,0.2728,0.2461,0.2125,0.1933,0.0593,0.063,0.0694,0.0806,0.0961,0.1111,0.1239,0.1351,0.1426,0.149,0.15,0.1431,0.1329,0.1292,0.1297,0.1217,0.1191,0.1217,0.1175,0.0977,0.0699,0.0657,0.0945,0.1356,0.1618,0.1527,0.0908,0.0267,-0.0117,-0.0299,-0.0486,-0.0651,-0.047,0.0224,0.126,0.1794,0.1975,0.1938,0.2002,0.2248,0.2376,0.2408,0.2488,0.2547,0.2445,0.2248,0.205,0.0918,0.0902,0.0961,0.102,0.1078,0.1137,0.1217,0.1281,0.1303,0.1303,0.1265,0.1191,0.1127,0.1137,0.1175,0.1105,0.1062,0.1057,0.1014,0.0902,0.0753,0.0705,0.0785,0.0966,0.1196,0.134,0.1185,0.0806,0.032,0.0096,0.0005,-0.0224,-0.04,-0.0438,-0.0011,0.1046,0.1885,0.2018,0.1837,0.1863,0.1906,0.1991,0.2077,0.2178,0.2221,0.2189,0.2104,0.0817,0.0828,0.0908,0.1025,0.1116,0.1169,0.1239,0.1313,0.1335,0.1308,0.1233,0.1137,0.1052,0.1036,0.1057,0.1004,0.0966,0.0945,0.0913,0.086,0.0812,0.086,0.0993,0.1148,0.1308,0.1393,0.1329,0.1046,0.0667,0.0432,0.0336,0.0198,0.0005,-0.0166,-0.0262,0.0043,0.0929,0.1746,0.1933,0.2045,0.1869,0.1799,0.1767,0.1767,0.1954,0.2045,0.2077,0.0432,0.0464,0.0566,0.0758,0.0929,0.1052,0.1175,0.1308,0.1388,0.1372,0.1276,0.1143,0.102,0.0961,0.0961,0.0918,0.0886,0.086,0.0817,0.0769,0.0731,0.0758,0.0876,0.1041,0.1239,0.1361,0.1351,0.1148,0.0854,0.0646,0.055,0.0411,0.0251,0.0101,-0.0048,-0.0096,0.0278,0.0833,0.1351,0.1725,0.1842,0.197,0.1885,0.1778,0.1757,0.1789,0.1879,0.024,0.024,0.031,0.0502,0.0726,0.0945,0.1137,0.1335,0.1452,0.1452,0.1335,0.1159,0.0988,0.0897,0.0876,0.0838,0.0828,0.0796,0.0737,0.0646,0.0555,0.0518,0.055,0.0667,0.0854,0.103,0.1116,0.1052,0.0897,0.0742,0.0678,0.0582,0.0427,0.0283,0.0155,0.0032,0.0117,0.0481,0.0812,0.1073,0.1361,0.1506,0.1725,0.2093,0.1949,0.1794,0.1831,0.0171,0.0117,0.0128,0.0315,0.0539,0.0817,0.1127,0.1388,0.1548,0.1591,0.1479,0.1223,0.095,0.0822,0.0763,0.0715,0.0737,0.0715,0.0635,0.0513,0.0406,0.0363,0.0363,0.0411,0.0507,0.0625,0.0721,0.0753,0.0705,0.0609,0.0587,0.0577,0.0523,0.0432,0.0347,0.024,0.0149,0.0267,0.0593,0.0865,0.0924,0.0913,0.1281,0.1575,0.1863,0.2168,0.2429,0.0149,0.0048,-0.0085,0.016,0.0374,0.071,0.1159,0.1522,0.1725,0.1746,0.1709,0.1372,0.0833,0.0705,0.0603,0.0555,0.0587,0.0593,0.0518,0.04,0.0299,0.0246,0.0214,0.024,0.0256,0.0272,0.0294,0.032,0.0336,0.032,0.0331,0.0363,0.0432,0.0481,0.0486,0.0443,0.0326,0.0272,0.0459,0.0598,0.0534,0.0614,0.0876,0.0838,0.1329,0.1863,0.2002,0.0149,0.0032,-0.0384,0.0347,0.071,0.0844,0.1062,0.1522,0.1837,0.1847,0.2162,0.2141,0.0742,0.0614,0.0464,0.0443,0.0416,0.0427,0.0395,0.0304,0.0214,0.0155,0.0,0.0091,0.0101,0.0069,0.0016,-0.0016,-0.0037,-0.0027,-0.0021,0.0027,0.0192,0.0363,0.0486,0.0534,0.047,0.04,0.0416,0.0448,0.0304,0.0203,0.0347,0.0448,0.0662,0.0913,0.0924,0,0,0.078,0.118,0.1885,0.0998,0.094,0.1399,0.1965,0.1901,0.2397,0.2787,0,0.2285,0.0422,0.0422,0.0331,0.0342,0.0331,0.0262,0.0176,0.0123,-0.0438,-0.0027,0.0032,0.0021,-0.0048,-0.0107,-0.0278,-0.0267,-0.0294,-0.024,-0.0037,0.0133,0.032,0.047,0.0502,0.0454,0.0427,0.0395,0.0267,0.008,0.0085,0.0149,0.0139,0.0208,0.0363,0.0182,0.0256,0.1676,0.126,0.1442,0,0,0.3038,0.2712,0.1901,0.2301,0.276,0.1815,0.3631,0,0,0,0,0,0,0,0,-0.0747,-0.0069,0.0027,0.0032,-0.0027,-0.008,-0.0507,-0.023,-0.0262,-0.0214,-0.0133,-0.0198,0.0016,0.0262,0.0395,0.0411,0.0374,0.0299,0.0294,0.0155,0.0091,0.0176,0.0203,0.0101,0.0128,0.0427,0.0689,0.1324,0.0881,0.0294,0.0171,0.0598,0.3871,0.2643,0,0,0,0.346,0.307,0.0657,0.0342,0.0128,0.0037,0.0139,0.0208,0.0128,0,0,0,0,0,0,0,0.0005,0.0182,-0.0144,-0.0096,-0.0144,-0.0742,-0.0352,0.0005,0.031,0.0411,0.0342,0.0053,0.0166,0.0171,0.0171,0.023,0.0283,0.0251,0.0224,0.0491,0.0646,0.1297,0.1078,0.0763,0.0817,0.1196,0.3033,0.1938,0.0,0.0,0.016,0.331,0.2536,0.1287,0.0497,0.0064,0.0198,0.031,0.0443,0.0256,0,0,0,0,0,0,0,0,0,0,0,0,-0.1073,-0.0523,-0.0059,0.0368,0.0651,0.0347,-0.0352,-0.0016,0.0139,0.023,0.0299,0.0331,0.0331,0.0192,0,0.0432,0.1175,0.1105,0.0988,0.0812,0,0,0,0,0,0.0315,0.3182,0.2194,0.1132,0.0187,-0.0347,0.0267,0.055,0.0486,0,0,0,0,0,0,0,0,0,0,0,0,0,0,0,0,0.0678,0.149,0,0,-0.008,0.0144,0.0246,0.0331,0.0352,0.0363,0.0267,0,0,0,0.1052,0.0812,0.0336,0,0,0,0,0,0.0448,0.2856,0.2322,0.1041,-0.016,-0.0731,-0.0235,0.0758,0,0,0,0,0,0,0,0,0,0,0,0,0,0,0,0,0,0,0.2141,0.0448,0,0,0,0,0,0,0,0.0379,0,0,0,0,0,0,0,0,0,0,0,0.0801,0.2798,0.2632,0.103,-0.0411,-0.087,-0.0694,0,0,0,0,0,0,0,0,0,0,0,0,0,0,0,0,0,0,0,0,0.0892,0.0171,0.0374,0.055,0,0,0,0,0,0,0,0,0,0,0,0,0,0,0,0,0.1164,0.2483,0.283,0.1073,-0.0459,-0.0806,0,0,0,0,0,0,0,0,0,0,0,0,0,0,0,0,0,0,0,0,0,0,0.0342,0.0753,0.11,0.0,0.0331,0.0117,0,0,0,0,0,0,0,0,0,0,0,0,0,0,0.1676,0.3043,0.134,-0.0619,-0.0913,0,0,0,0,0,0,0,0,0,0,0,0,0,0,0,0,0,0,0,0,0,0,0,0,0,0,0.0667,0.0235,0,0,0,0,0,0,0,0,0,0,0,0,0,0,0.1068,0.3524,0.1575,-0.0881,-0.1292,0,0,0,0,0,0,0,0,0,0,0,0,0,0,0,0,0,0,0,0,0,0,0,0,0,0,0,0,0,0,0,0,0,0,0,0,0,0,0,0,0,0,0.078,0.3518,0.1618,-0.1036,-0.1596,0,0,0,0,0,0,0,0,0,0,0,0,0,0,0,0,0,0,0,0,0,0,0,0,0,0,0,0,0,0,0,0,0,0,0,0,0,0,0,0,0,0,0.0742,0.2488,0.1799,-0.0726,-0.1207,0,0,0,0,0,0,0,0,0,0,0,0,0,0,0,0,0,0,0,0,0,0,0,0,0,0,0,0,0,0,0,0,0,0,0,0,0,0,0,0,0,0,0,0.2376,0.1735,0.0,-0.0043,0,0,0,0,0,0,0,0,0,0,0,0,0,0,0,0,0,0,0,0,0,0,0,0,0,0,0,0,0,0,0,0,0,0,0,0,0,0,0,0,0,0,0,0.2985,0.3086,0.0865,0.0673,0,0,0,0,0,0,0,0,0,0,0,0,0,0,0,0,0,0,0,0,0,0,0,0,0,0,0,0,0,0,0,0,0,0,0,0,0,0,0,0,0,0,0,0,0.4704,0.1335,0,0,0,0,0,0,0,0,0,0,0,0,0,0,0,0,0,0,0,0,0,0,0,0,0,0,0,0,0,0,0,0,0,0,0,0,0,0,0,0,0,0,0,0,0,0,0,0,0,0,0,0,0,0,0,0,0,0,0,0,0,0,0,0,0,0,0,0,0,0,0,0,0,0,0,0,0,0,0,0,0,0,0,0,0,0,0,0,0,0,0,0,0,0,0,0,0,0,0,0,0,0,0,0,0,0,0,0,0,0,0,0,0,0,0,0,0,0,0,0,0,0,0,0,0,0,0,0,0,0,0,0,0,0,0,0,0,0,0,0,0,0,0,0,0,0,0,0,0,0,0,0,0,0,0,0,0,0,0,0,0,0,0,0,0,0,0,0,0,0,0,0,0,0,0,0,0,0,0,0,0,0,0,0,0,0,0,0,0,0,0,0,0,0,0,0,0,0,0,0,0,0,0,0,0,0,0,0,0,0,0,0,0,0,0,0,0,0,0,0,0,0,0,0,0,0,0,0,0,0,0,0,0,0,0,0,0,0,0,0,0,0,0,0,0,0,0,0,0,0,0,0,0,0,0,0,0,0,0,0,0,0,0,0,0,0,0,0,0,0,0,0,0,0,0,0,0,0,0,0,0,0,0,0,0,0,0,0,0,0,0,0,0,0,0,0,0,0,0,0,0,0,0,0,0,0,0,0,0,0,0,0,0]}]],[[{"header":{"parameterUnit":"kt","parameterCategory":2,"dx":1,"dy":1,"la1":29.764190673828125,"la2":30.86408042907715,"lo1":-88.46762084960938,"lo2":-86.9344482421875,"nx":47,"ny":34,"refTime":"2022-10-08T00:00:00:Z","depth":"2","parameterNumber":2,"parameterNumberName":"U-component_of_CURRENTS"},"data":[-0.1602,-0.1239,-0.0945,-0.0667,-0.0368,-0.0256,-0.0566,-0.1436,-0.2125,-0.2216,-0.2322,-0.2616,-0.2899,-0.3075,-0.3027,-0.2691,-0.2376,-0.2242,-0.2194,-0.2194,-0.2328,-0.2702,-0.3091,-0.315,-0.3097,-0.3182,-0.3134,-0.2883,-0.2371,-0.1671,-0.1751,-0.2141,-0.1981,-0.1762,-0.1431,-0.0977,-0.0614,-0.0267,0.0069,0.0352,0.0603,0.0854,0.0961,0.0737,0.031,-0.0053,-0.0379,-0.2216,-0.2114,-0.1703,-0.1463,-0.1335,-0.1516,-0.2007,-0.2413,-0.2435,-0.2403,-0.2589,-0.2819,-0.2958,-0.2963,-0.2696,-0.2349,-0.2189,-0.2114,-0.1997,-0.1981,-0.2232,-0.2638,-0.3054,-0.3214,-0.3241,-0.3396,-0.3449,-0.3502,-0.33,-0.267,-0.1933,-0.1895,-0.2146,-0.1938,-0.1725,-0.1506,-0.1217,-0.0822,-0.039,-0.0048,0.0171,0.0246,0.0117,-0.0123,-0.0331,-0.0502,-0.0731,-0.213,-0.2675,-0.2883,-0.2862,-0.283,-0.2851,-0.2846,-0.2686,-0.2509,-0.2563,-0.2744,-0.2872,-0.2851,-0.2675,-0.2381,-0.2184,-0.2157,-0.2173,-0.2029,-0.1794,-0.1794,-0.2189,-0.268,-0.2936,-0.3107,-0.3342,-0.3481,-0.3518,-0.354,-0.3396,-0.2883,-0.2029,-0.1778,-0.1927,-0.1773,-0.1522,-0.1185,-0.0838,-0.0513,-0.0278,-0.0192,-0.0256,-0.04,-0.0486,-0.0491,-0.0486,-0.0566,-0.1842,-0.2285,-0.2648,-0.2814,-0.2862,-0.2787,-0.2611,-0.2509,-0.2595,-0.276,-0.2819,-0.2734,-0.2541,-0.2317,-0.2184,-0.2178,-0.2221,-0.2264,-0.212,-0.1826,-0.166,-0.1767,-0.2104,-0.2472,-0.2691,-0.2835,-0.3065,-0.3316,-0.3534,-0.3668,-0.3513,-0.2985,-0.2077,-0.1345,-0.1452,-0.1442,-0.1078,-0.0806,-0.0384,-0.0112,-0.0091,-0.0198,-0.032,-0.0374,-0.0331,-0.0262,-0.0294,-0.1751,-0.1981,-0.2221,-0.2509,-0.2739,-0.2808,-0.2846,-0.2904,-0.291,-0.2808,-0.26,-0.2355,-0.2178,-0.2184,-0.2274,-0.2317,-0.2349,-0.2349,-0.2178,-0.1842,-0.1618,-0.1698,-0.1933,-0.2136,-0.2221,-0.2168,-0.2381,-0.291,-0.3358,-0.354,-0.3449,-0.3278,-0.292,-0.2184,-0.1127,-0.0747,-0.1025,-0.0844,-0.0443,-0.0128,0.0091,0.0107,-0.0027,-0.0128,-0.0123,-0.0069,-0.0053,-0.165,-0.1783,-0.1938,-0.2088,-0.2232,-0.2355,-0.2445,-0.2451,-0.2376,-0.2258,-0.2162,-0.2141,-0.2242,-0.2403,-0.2488,-0.2477,-0.2456,-0.2397,-0.2232,-0.197,-0.1741,-0.1671,-0.1773,-0.1943,-0.1986,-0.1821,-0.1676,-0.1911,-0.2333,-0.2456,-0.2381,-0.2488,-0.2702,-0.2584,-0.2098,-0.1281,-0.0438,-0.0219,-0.0368,-0.0224,0.0021,0.0139,0.0139,0.0096,0.0101,0.0155,0.0187,-0.1735,-0.1687,-0.1714,-0.1778,-0.1847,-0.189,-0.1933,-0.1997,-0.2088,-0.221,-0.2344,-0.2472,-0.2557,-0.2605,-0.2611,-0.2563,-0.2493,-0.2413,-0.2312,-0.2178,-0.205,-0.1954,-0.1885,-0.1815,-0.1709,-0.1564,-0.1383,-0.1287,-0.134,-0.1399,-0.1415,-0.1479,-0.1671,-0.1981,-0.2162,-0.1927,-0.142,-0.0619,0.0085,0.0251,0.0176,0.0144,0.0219,0.0304,0.0384,0.047,0.055,-0.2093,-0.2029,-0.1986,-0.197,-0.1986,-0.2029,-0.2109,-0.2242,-0.2403,-0.2552,-0.2654,-0.2702,-0.2696,-0.2686,-0.2664,-0.26,-0.252,-0.2451,-0.2381,-0.2301,-0.2221,-0.2152,-0.2082,-0.2013,-0.1938,-0.1805,-0.158,-0.1329,-0.1207,-0.1223,-0.1239,-0.1233,-0.1276,-0.1436,-0.1687,-0.1853,-0.1746,-0.1383,-0.0881,-0.0176,0.0448,0.0694,0.071,0.0753,0.086,0.095,0.1025,-0.2328,-0.2232,-0.2184,-0.2184,-0.22,-0.2248,-0.2344,-0.2477,-0.2616,-0.2718,-0.2766,-0.2766,-0.2728,-0.2707,-0.2686,-0.2632,-0.2557,-0.2488,-0.2408,-0.2301,-0.2189,-0.2136,-0.2168,-0.2221,-0.2205,-0.2109,-0.1922,-0.1698,-0.1527,-0.1442,-0.1361,-0.1244,-0.1185,-0.1265,-0.1431,-0.1607,-0.1687,-0.1591,-0.126,-0.0886,-0.0523,0.0032,0.0561,0.1073,0.1249,0.1116,0.1143,-0.2333,-0.2221,-0.2141,-0.2125,-0.2152,-0.22,-0.2306,-0.2488,-0.2659,-0.276,-0.2798,-0.2798,-0.2766,-0.2734,-0.2702,-0.2638,-0.2552,-0.2467,-0.2355,-0.2232,-0.2162,-0.2184,-0.2258,-0.2322,-0.2322,-0.2221,-0.2034,-0.1815,-0.1623,-0.1527,-0.1495,-0.1388,-0.1228,-0.1153,-0.1223,-0.142,-0.1666,-0.1842,-0.189,-0.1719,-0.1207,-0.0812,-0.0667,-0.0027,0.0705,0.0988,0.1143,-0.2424,-0.2333,-0.2178,-0.2034,-0.197,-0.1959,-0.204,-0.2242,-0.2467,-0.2638,-0.2766,-0.284,-0.283,-0.2776,-0.2707,-0.2611,-0.2504,-0.2408,-0.2312,-0.2242,-0.2226,-0.2248,-0.2274,-0.2269,-0.2226,-0.2125,-0.1959,-0.1778,-0.1628,-0.1548,-0.1506,-0.142,-0.1281,-0.1148,-0.1078,-0.1132,-0.1351,-0.1586,-0.1799,-0.2061,-0.2178,-0.2007,-0.142,-0.0902,-0.0737,-0.0272,0.0459,-0.2611,-0.2584,-0.2413,-0.2232,-0.212,-0.2082,-0.213,-0.2178,-0.2317,-0.2541,-0.2771,-0.2953,-0.2931,-0.2798,-0.268,-0.2552,-0.2451,-0.2376,-0.2317,-0.2285,-0.2285,-0.2301,-0.2285,-0.2232,-0.2146,-0.2013,-0.1842,-0.1687,-0.1559,-0.1474,-0.141,-0.134,-0.1271,-0.1212,-0.1143,-0.1062,-0.1041,-0.1201,-0.1495,-0.1746,-0.189,-0.1949,-0.1959,-0.1885,-0.1361,-0.0464,0.0037,-0.2808,-0.2776,-0.2419,-0.2365,-0.3187,-0.3823,-0.3615,-0.3006,-0.2381,-0.2114,-0.2322,-0.2819,-0.2824,-0.2435,-0.2467,-0.2509,-0.244,-0.236,-0.2322,-0.229,-0.228,-0.229,-0.2232,-0.2141,-0.2088,-0.2007,-0.189,-0.1757,-0.1623,-0.1511,-0.141,-0.1303,-0.126,-0.1276,-0.126,-0.1175,-0.1073,-0.1036,-0.1111,-0.1287,-0.1442,-0.1511,-0.1591,-0.1671,-0.1666,-0.1676,-0.1773,0,0,-0.1345,-0.3278,-0.4389,-0.4907,-0.409,-0.3022,-0.2557,-0.2237,-0.1666,-0.1372,0,-0.1415,-0.2723,-0.26,-0.2451,-0.2317,-0.2274,-0.2221,-0.2226,-0.2376,-0.2216,-0.1927,-0.1906,-0.1922,-0.1938,-0.1927,-0.1853,-0.1794,-0.1778,-0.1692,-0.1618,-0.1575,-0.1511,-0.1388,-0.1228,-0.1111,-0.1052,-0.1004,-0.0972,-0.1057,-0.1276,-0.1564,-0.2045,-0.2686,-0.3134,-0.2589,-0.2888,-0.2819,-0.2317,-0.204,0,0,-0.1308,-0.2969,-0.2926,-0.1927,-0.0443,-0.0021,-0.047,0,0,0,0,0,0,0,0,-0.0571,-0.1329,-0.1586,-0.1714,-0.189,-0.2237,-0.22,-0.2056,-0.2173,-0.2461,-0.2627,-0.2333,-0.1885,-0.1618,-0.1447,-0.1329,-0.1228,-0.1105,-0.1009,-0.1014,-0.1121,-0.1265,-0.1458,-0.1783,-0.2301,-0.2595,-0.2888,-0.3321,-0.3962,-0.4357,-0.3903,-0.3225,-0.2424,-0.1879,0,0,0,-0.0208,-0.0774,-0.1393,-0.1516,-0.1212,-0.0774,-0.0374,-0.0192,-0.0133,0,0,0,0,0,0,0,-0.0662,-0.1607,-0.2066,-0.244,-0.2739,-0.2483,-0.2007,-0.1709,-0.1474,-0.1426,-0.1554,-0.1596,-0.1393,-0.1239,-0.118,-0.1164,-0.1212,-0.1388,-0.1687,-0.2371,-0.2045,-0.1757,-0.1986,-0.2728,-0.3609,-0.4213,-0.3705,-0.2643,-0.2264,-0.2253,-0.134,-0.0422,-0.0747,-0.1121,-0.0961,-0.0571,-0.0336,-0.023,-0.0085,-0.0005,0,0,0,0,0,0,0,0,0,0,0,0,-0.0731,-0.1863,-0.2258,-0.2467,-0.283,-0.267,-0.1949,-0.1548,-0.1458,-0.1356,-0.1249,-0.1191,-0.1244,-0.142,0,-0.0208,-0.0299,-0.0214,-0.0358,-0.0464,0,0,0,0,0,0.0096,-0.023,-0.0998,-0.1228,-0.0924,-0.0422,0.0021,0.0149,0.0133,0,0,0,0,0,0,0,0,0,0,0,0,0,0,0,0,-0.0641,-0.0096,0,0,-0.1223,-0.1377,-0.1377,-0.1308,-0.1244,-0.1249,-0.1196,0,0,0,0.0133,0.0235,0.0208,0,0,0,0,0,0.0027,-0.0689,-0.1725,-0.181,-0.1265,-0.0561,-0.0342,-0.0235,0,0,0,0,0,0,0,0,0,0,0,0,0,0,0,0,0,0,-0.0838,-0.0833,0,0,0,0,0,0,0,-0.0379,0,0,0,0,0,0,0,0,0,0,0,-0.0176,-0.1175,-0.2013,-0.1741,-0.0961,0.0091,0.0657,0,0,0,0,0,0,0,0,0,0,0,0,0,0,0,0,0,0,0,0,-0.0368,-0.0443,-0.0182,-0.0219,0,0,0,0,0,0,0,0,0,0,0,0,0,0,0,0,-0.047,-0.118,-0.1276,-0.1137,-0.0817,-0.0497,0,0,0,0,0,0,0,0,0,0,0,0,0,0,0,0,0,0,0,0,0,0,-0.0582,-0.1345,-0.1634,-0.1356,-0.0587,-0.0208,0,0,0,0,0,0,0,0,0,0,0,0,0,0,0.0027,-0.0336,-0.1137,-0.1095,-0.0731,0,0,0,0,0,0,0,0,0,0,0,0,0,0,0,0,0,0,0,0,0,0,0,0,0,0,-0.0021,-0.0037,0,0,0,0,0,0,0,0,0,0,0,0,0,0,0.0128,-0.0635,-0.1564,-0.1228,-0.0854,0,0,0,0,0,0,0,0,0,0,0,0,0,0,0,0,0,0,0,0,0,0,0,0,0,0,0,0,0,0,0,0,0,0,0,0,0,0,0,0,0,0,-0.0384,-0.1458,-0.1783,-0.1084,-0.0742,0,0,0,0,0,0,0,0,0,0,0,0,0,0,0,0,0,0,0,0,0,0,0,0,0,0,0,0,0,0,0,0,0,0,0,0,0,0,0,0,0,0,-0.0117,-0.0705,-0.0924,-0.0256,0.0155,0,0,0,0,0,0,0,0,0,0,0,0,0,0,0,0,0,0,0,0,0,0,0,0,0,0,0,0,0,0,0,0,0,0,0,0,0,0,0,0,0,0,0,-0.0635,-0.0358,0.0822,0.1089,0,0,0,0,0,0,0,0,0,0,0,0,0,0,0,0,0,0,0,0,0,0,0,0,0,0,0,0,0,0,0,0,0,0,0,0,0,0,0,0,0,0,0,0.0651,0.2034,0.2456,0.2162,0,0,0,0,0,0,0,0,0,0,0,0,0,0,0,0,0,0,0,0,0,0,0,0,0,0,0,0,0,0,0,0,0,0,0,0,0,0,0,0,0,0,0,0,0.1196,0.2397,0,0,0,0,0,0,0,0,0,0,0,0,0,0,0,0,0,0,0,0,0,0,0,0,0,0,0,0,0,0,0,0,0,0,0,0,0,0,0,0,0,0,0,0,0,0,0,0,0,0,0,0,0,0,0,0,0,0,0,0,0,0,0,0,0,0,0,0,0,0,0,0,0,0,0,0,0,0,0,0,0,0,0,0,0,0,0,0,0,0,0,0,0,0,0,0,0,0,0,0,0,0,0,0,0,0,0,0,0,0,0,0,0,0,0,0,0,0,0,0,0,0,0,0,0,0,0,0,0,0,0,0,0,0,0,0,0,0,0,0,0,0,0,0,0,0,0,0,0,0,0,0,0,0,0,0,0,0,0,0,0,0,0,0,0,0,0,0,0,0,0,0,0,0,0,0,0,0,0,0,0,0,0,0,0,0,0,0,0,0,0,0,0,0,0,0,0,0,0,0,0,0,0,0,0,0,0,0,0,0,0,0,0,0,0,0,0,0,0,0,0,0,0,0,0,0,0,0,0,0,0,0,0,0,0,0,0,0,0,0,0,0,0,0,0,0,0,0,0,0,0,0,0,0,0,0,0,0,0,0,0,0,0,0,0,0,0,0,0,0,0,0,0,0,0,0,0,0,0,0,0,0,0,0,0,0,0,0,0,0,0,0,0,0,0,0,0,0,0,0,0,0,0,0,0,0,0,0,0,0,0,0,0]}],[{"header":{"parameterUnit":"kt","parameterCategory":2,"dx":1,"dy":1,"la1":29.764190673828125,"la2":30.86408042907715,"lo1":-88.46762084960938,"lo2":-86.9344482421875,"nx":47,"ny":34,"refTime":"2022-10-08T00:00:00:Z","depth":"2","parameterNumber":3,"parameterNumberName":"V-component_of_CURRENTS"},"data":[0.0518,0.0812,0.102,0.1484,0.1863,0.1954,0.1746,0.1821,0.1981,0.1917,0.1773,0.1735,0.181,0.1917,0.1783,0.1554,0.1495,0.126,0.0876,0.0673,0.087,0.0918,0.0502,-0.024,-0.0731,-0.047,0.0854,0.2114,0.2274,0.1703,0.149,0.2024,0.2702,0.3396,0.3892,0.4159,0.4378,0.4549,0.4709,0.4778,0.4901,0.4944,0.4789,0.4501,0.4218,0.4036,0.3812,-0.0005,0.0828,0.1217,0.1532,0.1853,0.2104,0.2216,0.2125,0.2034,0.1858,0.1863,0.1922,0.2024,0.1933,0.1479,0.1345,0.1479,0.1442,0.103,0.0641,0.0908,0.1281,0.0881,0.0048,-0.063,-0.1052,-0.0411,0.0796,0.1639,0.2104,0.1826,0.1735,0.2216,0.2702,0.323,0.362,0.4015,0.4319,0.4512,0.4565,0.4597,0.4485,0.4186,0.3716,0.3294,0.2953,0.2739,-0.0422,0.023,0.0854,0.1303,0.1703,0.2018,0.2178,0.2024,0.1874,0.1821,0.1949,0.2077,0.2072,0.1687,0.1244,0.1308,0.1511,0.1591,0.1292,0.0833,0.0881,0.157,0.1511,0.078,-0.0112,-0.0966,-0.1009,-0.0368,0.0374,0.1143,0.1762,0.1842,0.1895,0.2221,0.267,0.2926,0.3332,0.3583,0.3716,0.3769,0.3732,0.3609,0.339,0.299,0.2525,0.2178,0.2104,-0.0272,-0.0091,0.0267,0.0731,0.1175,0.1452,0.165,0.1725,0.1789,0.189,0.2018,0.2077,0.189,0.141,0.1217,0.1276,0.1431,0.1548,0.1393,0.0961,0.0806,0.1415,0.1927,0.1698,0.094,-0.0133,-0.0828,-0.0747,-0.0272,0.0021,0.0491,0.1223,0.1698,0.1879,0.2002,0.2477,0.2723,0.2894,0.3038,0.3033,0.2974,0.2958,0.2936,0.2702,0.2317,0.197,0.1874,0.0091,0.0182,0.0294,0.0571,0.0881,0.1095,0.1292,0.1484,0.1644,0.1767,0.1826,0.1767,0.1548,0.1303,0.126,0.1217,0.1271,0.1351,0.1281,0.0977,0.0694,0.0929,0.157,0.1927,0.1767,0.1009,0.0053,-0.0454,-0.0395,-0.0432,-0.0545,-0.0214,0.0657,0.1335,0.1789,0.1933,0.1959,0.2381,0.2611,0.2621,0.2584,0.2605,0.2691,0.2638,0.2371,0.2034,0.1842,0.0486,0.0529,0.0593,0.0705,0.086,0.1009,0.1137,0.1249,0.1324,0.1393,0.1404,0.1335,0.1233,0.1196,0.1207,0.1127,0.11,0.1127,0.1084,0.0892,0.0625,0.0587,0.0865,0.1265,0.1527,0.1436,0.0828,0.0203,-0.0182,-0.0363,-0.0539,-0.0699,-0.0539,0.0139,0.1159,0.1692,0.1869,0.1837,0.1901,0.2152,0.2274,0.2312,0.2392,0.2456,0.2355,0.2157,0.1965,0.0801,0.0796,0.0849,0.0913,0.0972,0.1036,0.1111,0.1175,0.1201,0.1207,0.1169,0.11,0.1036,0.1046,0.1078,0.1014,0.0972,0.0966,0.0924,0.0817,0.0667,0.0625,0.0705,0.0881,0.1105,0.1249,0.1095,0.0726,0.0246,0.0021,-0.0059,-0.0278,-0.0454,-0.0502,-0.0096,0.095,0.1778,0.1917,0.173,0.1762,0.181,0.1895,0.1981,0.2082,0.213,0.2098,0.2013,0.0699,0.071,0.0796,0.0918,0.1009,0.1062,0.1132,0.1207,0.1233,0.1207,0.1137,0.1041,0.0961,0.094,0.0961,0.0913,0.0876,0.0849,0.0817,0.0763,0.0715,0.0758,0.0892,0.1046,0.1207,0.1297,0.1233,0.0956,0.0577,0.0347,0.0251,0.0117,-0.0059,-0.023,-0.0331,-0.0043,0.0833,0.1644,0.1831,0.1949,0.1767,0.1703,0.1671,0.1676,0.1863,0.1954,0.1991,0.0331,0.0363,0.0464,0.0651,0.0822,0.0945,0.1068,0.1201,0.1281,0.1271,0.1175,0.1046,0.0924,0.087,0.087,0.0828,0.0796,0.0763,0.0721,0.0667,0.0625,0.0651,0.0763,0.0934,0.1132,0.1255,0.1249,0.1052,0.0758,0.055,0.0454,0.032,0.0171,0.0027,-0.0117,-0.0171,0.0192,0.0737,0.1244,0.1623,0.1741,0.1874,0.1789,0.1682,0.166,0.1698,0.1789,0.0144,0.0149,0.0219,0.04,0.0619,0.0833,0.1025,0.1223,0.1345,0.1345,0.1233,0.1057,0.0892,0.0801,0.0774,0.0737,0.0726,0.0694,0.063,0.0539,0.0448,0.0411,0.0448,0.0566,0.0753,0.0924,0.1009,0.095,0.0796,0.0641,0.0577,0.0481,0.0336,0.0203,0.008,-0.0043,0.0037,0.039,0.0715,0.0972,0.1255,0.1404,0.1628,0.1997,0.1858,0.1703,0.1746,0.0075,0.0032,0.0043,0.0224,0.0438,0.0715,0.102,0.1276,0.1436,0.1479,0.1372,0.1121,0.0849,0.0721,0.0657,0.0609,0.0625,0.0609,0.0529,0.0406,0.0304,0.0262,0.0267,0.0315,0.0406,0.0523,0.0619,0.0646,0.0603,0.0507,0.0486,0.0475,0.0422,0.0342,0.0267,0.0166,0.0075,0.0182,0.0497,0.0763,0.0817,0.0806,0.118,0.1468,0.1762,0.2072,0.2333,0.0048,-0.0037,-0.016,0.0075,0.0283,0.0609,0.1052,0.1415,0.1612,0.1634,0.1591,0.1271,0.0737,0.0603,0.0486,0.0438,0.0475,0.0475,0.0411,0.0294,0.0198,0.0149,0.0117,0.0149,0.0171,0.0182,0.0203,0.023,0.024,0.0224,0.0235,0.0262,0.0331,0.0384,0.0395,0.0358,0.0246,0.0192,0.0368,0.0497,0.0432,0.0513,0.0769,0.0726,0.1217,0.1751,0.1895,0.0048,-0.0059,-0.0459,0.0256,0.0598,0.0731,0.0961,0.1426,0.1735,0.1746,0.1991,0.1927,0.0635,0.0513,0.0347,0.032,0.0299,0.0315,0.0288,0.0203,0.0117,0.0053,-0.0096,-0.0005,0.0021,-0.0011,-0.0059,-0.0091,-0.0117,-0.0112,-0.0101,-0.0059,0.0101,0.0267,0.039,0.0443,0.0384,0.0315,0.0331,0.0352,0.0208,0.0101,0.024,0.0342,0.055,0.079,0.0801,0,0,0.0657,0.1009,0.1618,0.0865,0.0844,0.1271,0.1831,0.1773,0.221,0.244,0,0.2109,0.031,0.0294,0.0214,0.023,0.0219,0.0155,0.0075,0.0011,-0.0587,-0.0144,-0.0048,-0.0053,-0.0123,-0.0187,-0.0352,-0.0342,-0.0363,-0.031,-0.0107,0.0059,0.0235,0.0379,0.0406,0.0358,0.0331,0.0299,0.0171,-0.0016,-0.0011,0.0048,0.0037,0.0096,0.0251,0.0123,0.0187,0.1527,0.1004,0.1073,0,0,0.2712,0.2306,0.1751,0.2157,0.2408,0.1458,0.3401,0,0,0,0,0,0,0,0,-0.095,-0.0214,-0.0053,-0.0048,-0.0107,-0.0176,-0.0667,-0.0336,-0.0336,-0.0283,-0.0203,-0.0267,-0.0059,0.0176,0.0304,0.031,0.0267,0.0198,0.0198,0.0059,0.0,0.0085,0.0112,0.0011,0.0027,0.0283,0.0523,0.1153,0.0635,-0.0011,0.0053,0.0507,0.3497,0.2024,0,0,0,0.2931,0.2856,0.0571,0.0267,0.0064,-0.0027,0.0059,0.0064,0.0016,0,0,0,0,0,0,0,-0.0358,-0.0059,-0.0235,-0.0182,-0.0224,-0.0822,-0.0427,-0.0059,0.0224,0.0304,0.0214,-0.0053,0.0064,0.0075,0.0085,0.0144,0.0198,0.016,0.0133,0.0326,0.032,0.1036,0.0844,0.0475,0.0491,0.1014,0.2766,0.1351,0.0,0.0,0.0075,0.3011,0.2344,0.1127,0.0352,-0.0069,0.0053,0.0096,-0.0005,0.0032,0,0,0,0,0,0,0,0,0,0,0,0,-0.1169,-0.0603,-0.0149,0.024,0.0438,0.0198,-0.0529,-0.0166,0.0037,0.0123,0.0198,0.0235,0.0235,0.0096,0,-0.0032,0.0849,0.0699,0.0571,0.0342,0,0,0,0,0,0.0016,0.2936,0.2024,0.0977,0.0053,-0.0475,0.0059,0.0133,-0.0117,0,0,0,0,0,0,0,0,0,0,0,0,0,0,0,0,0.0422,0.0828,0,0,-0.0283,0.0021,0.0128,0.0219,0.0251,0.0256,0.0117,0,0,0,0.0502,0.0315,-0.0198,0,0,0,0,0,0.0,0.2605,0.2146,0.0881,-0.0304,-0.0913,-0.0577,0.0198,0,0,0,0,0,0,0,0,0,0,0,0,0,0,0,0,0,0,0.1121,0.0288,0,0,0,0,0,0,0,0.0144,0,0,0,0,0,0,0,0,0,0,0,0.0299,0.2504,0.2429,0.0849,-0.0699,-0.1329,-0.1111,0,0,0,0,0,0,0,0,0,0,0,0,0,0,0,0,0,0,0,0,0.0571,-0.0011,0.0299,0.0443,0,0,0,0,0,0,0,0,0,0,0,0,0,0,0,0,0.0582,0.2168,0.2584,0.087,-0.0929,-0.1757,0,0,0,0,0,0,0,0,0,0,0,0,0,0,0,0,0,0,0,0,0,0,-0.0021,0.0598,0.0886,0.0,0.0171,0.0021,0,0,0,0,0,0,0,0,0,0,0,0,0,0,0.1329,0.2755,0.1148,-0.1175,-0.2066,0,0,0,0,0,0,0,0,0,0,0,0,0,0,0,0,0,0,0,0,0,0,0,0,0,0,0.0342,0.0048,0,0,0,0,0,0,0,0,0,0,0,0,0,0,0.0481,0.3198,0.1399,-0.1426,-0.2381,0,0,0,0,0,0,0,0,0,0,0,0,0,0,0,0,0,0,0,0,0,0,0,0,0,0,0,0,0,0,0,0,0,0,0,0,0,0,0,0,0,0,0.0075,0.3129,0.141,-0.1522,-0.2557,0,0,0,0,0,0,0,0,0,0,0,0,0,0,0,0,0,0,0,0,0,0,0,0,0,0,0,0,0,0,0,0,0,0,0,0,0,0,0,0,0,0,0.0117,0.1975,0.1468,-0.1271,-0.197,0,0,0,0,0,0,0,0,0,0,0,0,0,0,0,0,0,0,0,0,0,0,0,0,0,0,0,0,0,0,0,0,0,0,0,0,0,0,0,0,0,0,0,0.181,0.0977,-0.103,-0.0774,0,0,0,0,0,0,0,0,0,0,0,0,0,0,0,0,0,0,0,0,0,0,0,0,0,0,0,0,0,0,0,0,0,0,0,0,0,0,0,0,0,0,0,0.2445,0.1153,-0.0806,-0.0123,0,0,0,0,0,0,0,0,0,0,0,0,0,0,0,0,0,0,0,0,0,0,0,0,0,0,0,0,0,0,0,0,0,0,0,0,0,0,0,0,0,0,0,0,0.1933,-0.0587,0,0,0,0,0,0,0,0,0,0,0,0,0,0,0,0,0,0,0,0,0,0,0,0,0,0,0,0,0,0,0,0,0,0,0,0,0,0,0,0,0,0,0,0,0,0,0,0,0,0,0,0,0,0,0,0,0,0,0,0,0,0,0,0,0,0,0,0,0,0,0,0,0,0,0,0,0,0,0,0,0,0,0,0,0,0,0,0,0,0,0,0,0,0,0,0,0,0,0,0,0,0,0,0,0,0,0,0,0,0,0,0,0,0,0,0,0,0,0,0,0,0,0,0,0,0,0,0,0,0,0,0,0,0,0,0,0,0,0,0,0,0,0,0,0,0,0,0,0,0,0,0,0,0,0,0,0,0,0,0,0,0,0,0,0,0,0,0,0,0,0,0,0,0,0,0,0,0,0,0,0,0,0,0,0,0,0,0,0,0,0,0,0,0,0,0,0,0,0,0,0,0,0,0,0,0,0,0,0,0,0,0,0,0,0,0,0,0,0,0,0,0,0,0,0,0,0,0,0,0,0,0,0,0,0,0,0,0,0,0,0,0,0,0,0,0,0,0,0,0,0,0,0,0,0,0,0,0,0,0,0,0,0,0,0,0,0,0,0,0,0,0,0,0,0,0,0,0,0,0,0,0,0,0,0,0,0,0,0,0,0,0,0,0,0,0,0,0,0,0,0,0,0,0,0,0,0,0,0,0,0,0,0]}]],[[{"header":{"parameterUnit":"kt","parameterCategory":2,"dx":1,"dy":1,"la1":29.764190673828125,"la2":30.86408042907715,"lo1":-88.46762084960938,"lo2":-86.9344482421875,"nx":47,"ny":34,"refTime":"2022-10-08T00:00:00:Z","depth":"4","parameterNumber":2,"parameterNumberName":"U-component_of_CURRENTS"},"data":[-0.1308,-0.094,-0.0667,-0.0406,-0.0117,-0.0011,-0.0315,-0.1169,-0.1847,-0.1943,-0.2061,-0.2355,-0.2638,-0.2814,-0.276,-0.2435,-0.2125,-0.2002,-0.197,-0.1975,-0.2109,-0.2472,-0.2856,-0.292,-0.2883,-0.2963,-0.2894,-0.2616,-0.2088,-0.1388,-0.1474,-0.1863,-0.1698,-0.149,-0.1169,-0.0726,-0.0368,-0.0032,0.0299,0.0577,0.0828,0.1062,0.1159,0.0929,0.0518,0.0166,-0.0155,-0.1943,-0.1826,-0.1415,-0.1196,-0.1078,-0.1255,-0.1735,-0.2136,-0.2157,-0.2125,-0.2322,-0.2552,-0.2691,-0.2696,-0.2435,-0.2093,-0.1943,-0.1874,-0.1767,-0.1762,-0.2013,-0.2397,-0.2808,-0.2979,-0.3022,-0.3182,-0.3235,-0.3262,-0.3043,-0.2403,-0.1666,-0.1628,-0.1885,-0.1687,-0.1474,-0.1265,-0.0977,-0.0593,-0.0166,0.0166,0.0374,0.0448,0.032,0.0091,-0.0112,-0.0278,-0.0507,-0.1879,-0.2413,-0.2621,-0.2595,-0.2568,-0.2579,-0.2563,-0.2403,-0.2226,-0.2285,-0.2472,-0.26,-0.2584,-0.2408,-0.2125,-0.1933,-0.1911,-0.1927,-0.1799,-0.158,-0.158,-0.1949,-0.2429,-0.2691,-0.2872,-0.3129,-0.3278,-0.3305,-0.3305,-0.315,-0.2632,-0.1773,-0.1527,-0.1682,-0.1538,-0.1287,-0.095,-0.0614,-0.0299,-0.0075,0.0011,-0.0053,-0.0187,-0.0267,-0.0267,-0.0262,-0.0342,-0.1596,-0.2024,-0.2387,-0.2552,-0.26,-0.2515,-0.2333,-0.2232,-0.2317,-0.2488,-0.2547,-0.2467,-0.2274,-0.205,-0.1927,-0.1927,-0.197,-0.2013,-0.1885,-0.1612,-0.1458,-0.1548,-0.1858,-0.2216,-0.2451,-0.2616,-0.2862,-0.3107,-0.331,-0.3438,-0.3284,-0.275,-0.1837,-0.1105,-0.1217,-0.1207,-0.0849,-0.0587,-0.0171,0.0091,0.0112,0.0011,-0.0101,-0.0155,-0.0112,-0.0048,-0.0075,-0.15,-0.1725,-0.1959,-0.2248,-0.2472,-0.2541,-0.2579,-0.2632,-0.2638,-0.2541,-0.2339,-0.2093,-0.1917,-0.1917,-0.2013,-0.2061,-0.2098,-0.2093,-0.1938,-0.1623,-0.1415,-0.1484,-0.1698,-0.1879,-0.197,-0.1943,-0.2173,-0.2707,-0.3145,-0.3305,-0.3209,-0.3049,-0.2691,-0.1954,-0.0886,-0.0507,-0.0796,-0.0619,-0.023,0.0075,0.0294,0.031,0.0187,0.0091,0.0096,0.0139,0.016,-0.1393,-0.1527,-0.1676,-0.1826,-0.197,-0.2093,-0.2178,-0.2189,-0.212,-0.2002,-0.1906,-0.1885,-0.1981,-0.2136,-0.2221,-0.2216,-0.22,-0.2141,-0.1991,-0.1741,-0.1527,-0.1458,-0.1554,-0.1709,-0.1746,-0.1591,-0.1458,-0.1703,-0.212,-0.2237,-0.2157,-0.2269,-0.2488,-0.2371,-0.1869,-0.1052,-0.0203,0.0011,-0.0149,-0.0016,0.0219,0.0336,0.0342,0.0304,0.031,0.0363,0.0395,-0.1463,-0.1431,-0.1452,-0.1522,-0.1586,-0.1634,-0.1676,-0.1741,-0.1831,-0.1949,-0.2082,-0.2205,-0.229,-0.2339,-0.2349,-0.2301,-0.2237,-0.2162,-0.2066,-0.1938,-0.1821,-0.173,-0.166,-0.1586,-0.1479,-0.1335,-0.1159,-0.1068,-0.1127,-0.1191,-0.1212,-0.1281,-0.1484,-0.1794,-0.1959,-0.1709,-0.1191,-0.0395,0.031,0.047,0.0384,0.0352,0.0422,0.0502,0.0587,0.0673,0.0747,-0.181,-0.1757,-0.1725,-0.1714,-0.1725,-0.1767,-0.1847,-0.1975,-0.213,-0.2274,-0.2376,-0.2424,-0.2429,-0.2424,-0.2403,-0.2344,-0.2269,-0.22,-0.2136,-0.2056,-0.1981,-0.1911,-0.1842,-0.1773,-0.1692,-0.1564,-0.1351,-0.1116,-0.0998,-0.102,-0.1041,-0.1046,-0.1105,-0.126,-0.1506,-0.1655,-0.1532,-0.1164,-0.0662,0.0043,0.0662,0.0902,0.0918,0.0956,0.1057,0.1148,0.1228,-0.2034,-0.1954,-0.1917,-0.1922,-0.1938,-0.1981,-0.2072,-0.22,-0.2328,-0.2429,-0.2483,-0.2488,-0.2467,-0.2451,-0.2424,-0.2376,-0.2306,-0.2242,-0.2162,-0.2061,-0.1954,-0.1895,-0.1917,-0.1959,-0.1943,-0.1858,-0.1682,-0.1474,-0.1313,-0.1228,-0.1159,-0.1052,-0.1009,-0.1095,-0.1255,-0.142,-0.1484,-0.1383,-0.1046,-0.0673,-0.031,0.024,0.0763,0.1271,0.1442,0.1308,0.1335,-0.205,-0.1954,-0.189,-0.1874,-0.1895,-0.1933,-0.2034,-0.22,-0.236,-0.2461,-0.2515,-0.2525,-0.2504,-0.2477,-0.244,-0.2381,-0.2301,-0.2221,-0.2114,-0.2002,-0.1927,-0.1938,-0.2002,-0.2061,-0.2061,-0.1965,-0.1789,-0.1586,-0.1399,-0.1308,-0.1276,-0.1175,-0.1036,-0.0972,-0.1052,-0.1244,-0.1479,-0.1639,-0.1671,-0.15,-0.0993,-0.0603,-0.047,0.016,0.0886,0.1175,0.1329,-0.213,-0.2066,-0.1933,-0.1799,-0.173,-0.1703,-0.1773,-0.1959,-0.2173,-0.2344,-0.2483,-0.2568,-0.2568,-0.252,-0.2445,-0.2355,-0.2258,-0.2168,-0.2077,-0.2007,-0.1986,-0.2002,-0.2024,-0.2018,-0.1975,-0.1874,-0.1719,-0.1543,-0.1399,-0.1324,-0.1281,-0.1201,-0.1073,-0.095,-0.0897,-0.0966,-0.118,-0.1393,-0.1591,-0.1842,-0.1959,-0.1794,-0.1217,-0.0705,-0.0539,-0.008,0.0657,-0.228,-0.228,-0.2152,-0.1997,-0.1874,-0.1821,-0.1847,-0.1895,-0.2034,-0.2248,-0.2483,-0.2675,-0.267,-0.2547,-0.2429,-0.2296,-0.22,-0.213,-0.2082,-0.205,-0.2045,-0.2056,-0.2034,-0.1986,-0.1901,-0.1773,-0.1607,-0.1458,-0.1329,-0.1244,-0.1185,-0.1121,-0.1057,-0.1004,-0.0945,-0.0886,-0.0881,-0.103,-0.1308,-0.1538,-0.1682,-0.1735,-0.1746,-0.1671,-0.1148,-0.024,0.0256,-0.2397,-0.2419,-0.2168,-0.2189,-0.2894,-0.3444,-0.3246,-0.2691,-0.212,-0.1869,-0.2034,-0.2525,-0.2579,-0.2274,-0.228,-0.2264,-0.2178,-0.2109,-0.2072,-0.205,-0.204,-0.204,-0.1986,-0.1901,-0.1847,-0.1773,-0.1655,-0.1527,-0.1399,-0.1292,-0.1191,-0.1089,-0.1057,-0.1073,-0.1057,-0.0988,-0.0908,-0.0876,-0.0934,-0.1095,-0.1244,-0.1319,-0.1399,-0.1468,-0.1447,-0.1452,-0.1543,0,0,-0.1148,-0.2712,-0.3508,-0.4111,-0.3588,-0.2632,-0.2146,-0.1559,-0.0854,-0.0459,0,-0.126,-0.2419,-0.2317,-0.2173,-0.2061,-0.2018,-0.1981,-0.1959,-0.2013,-0.1831,-0.1618,-0.165,-0.1682,-0.1687,-0.1676,-0.1607,-0.1554,-0.1538,-0.1474,-0.1415,-0.1377,-0.1319,-0.1207,-0.1062,-0.095,-0.0886,-0.0828,-0.0796,-0.0892,-0.11,-0.1388,-0.1858,-0.2477,-0.2915,-0.2184,-0.2493,-0.2413,-0.157,-0.0977,0,0,-0.1046,-0.2269,-0.1954,-0.0774,0.0913,0.0812,-0.032,0,0,0,0,0,0,0,0,-0.0422,-0.1046,-0.1345,-0.1479,-0.1607,-0.1815,-0.1746,-0.1666,-0.1879,-0.2194,-0.2371,-0.2114,-0.1703,-0.1458,-0.1281,-0.1159,-0.1052,-0.0924,-0.0828,-0.0844,-0.0956,-0.11,-0.1287,-0.1591,-0.2088,-0.2221,-0.2488,-0.2835,-0.3246,-0.331,-0.291,-0.2605,-0.1554,-0.0598,0,0,0,0.0085,0.0342,0.0107,-0.0561,-0.0806,-0.0481,-0.0101,0.0043,0.0069,0,0,0,0,0,0,0,-0.0481,-0.1244,-0.1709,-0.2098,-0.2403,-0.2173,-0.1783,-0.158,-0.1399,-0.1308,-0.1356,-0.1367,-0.1196,-0.1057,-0.1009,-0.1004,-0.1052,-0.1212,-0.149,-0.197,-0.1602,-0.1271,-0.1447,-0.2072,-0.2552,-0.2547,-0.1516,-0.0304,-0.0171,-0.0432,-0.0336,-0.0085,0.0005,-0.0091,-0.0272,-0.0219,-0.0101,-0.0021,0.0107,0.0192,0,0,0,0,0,0,0,0,0,0,0,0,-0.055,-0.149,-0.1922,-0.2157,-0.2397,-0.2221,-0.1671,-0.134,-0.1265,-0.1191,-0.1084,-0.102,-0.1057,-0.1207,0,-0.0037,0.0128,0.023,0.0059,-0.0005,0,0,0,0,0,0.0182,0.0053,-0.0406,-0.0566,-0.0534,-0.0246,0.0166,0.0294,0.0262,0,0,0,0,0,0,0,0,0,0,0,0,0,0,0,0,0.0149,0.0683,0,0,-0.103,-0.1207,-0.1191,-0.1121,-0.1025,-0.094,-0.0844,0,0,0,0.0214,0.0438,0.0454,0,0,0,0,0,0.0101,-0.0251,-0.0897,-0.1121,-0.0881,-0.0294,-0.0016,0.0091,0,0,0,0,0,0,0,0,0,0,0,0,0,0,0,0,0,0,0.0529,0.1025,0,0,0,0,0,0,0,-0.0171,0,0,0,0,0,0,0,0,0,0,0,-0.0091,-0.0619,-0.1084,-0.1014,-0.0454,0.0678,0.1351,0,0,0,0,0,0,0,0,0,0,0,0,0,0,0,0,0,0,0,0,0.0085,0.0304,0.0358,0.0283,0,0,0,0,0,0,0,0,0,0,0,0,0,0,0,0,-0.0251,-0.0422,-0.0326,-0.0438,-0.016,0.024,0,0,0,0,0,0,0,0,0,0,0,0,0,0,0,0,0,0,0,0,0,0,-0.0235,-0.0699,-0.0497,0.0224,0.0326,0.0112,0,0,0,0,0,0,0,0,0,0,0,0,0,0,0.086,0.0486,-0.04,-0.0299,0.0171,0,0,0,0,0,0,0,0,0,0,0,0,0,0,0,0,0,0,0,0,0,0,0,0,0,0,0.0053,0.0107,0,0,0,0,0,0,0,0,0,0,0,0,0,0,0.0427,0.0171,-0.063,-0.0331,0.0091,0,0,0,0,0,0,0,0,0,0,0,0,0,0,0,0,0,0,0,0,0,0,0,0,0,0,0,0,0,0,0,0,0,0,0,0,0,0,0,0,0,0,-0.0246,-0.0614,-0.0518,0.0128,0.0571,0,0,0,0,0,0,0,0,0,0,0,0,0,0,0,0,0,0,0,0,0,0,0,0,0,0,0,0,0,0,0,0,0,0,0,0,0,0,0,0,0,0,0.0107,0.0411,0.0812,0.1228,0.1442,0,0,0,0,0,0,0,0,0,0,0,0,0,0,0,0,0,0,0,0,0,0,0,0,0,0,0,0,0,0,0,0,0,0,0,0,0,0,0,0,0,0,0,0.0897,0.2002,0.1922,0.1682,0,0,0,0,0,0,0,0,0,0,0,0,0,0,0,0,0,0,0,0,0,0,0,0,0,0,0,0,0,0,0,0,0,0,0,0,0,0,0,0,0,0,0,0.0593,0.0619,0.0117,0.0149,0,0,0,0,0,0,0,0,0,0,0,0,0,0,0,0,0,0,0,0,0,0,0,0,0,0,0,0,0,0,0,0,0,0,0,0,0,0,0,0,0,0,0,0,0.0272,0.0545,0,0,0,0,0,0,0,0,0,0,0,0,0,0,0,0,0,0,0,0,0,0,0,0,0,0,0,0,0,0,0,0,0,0,0,0,0,0,0,0,0,0,0,0,0,0,0,0,0,0,0,0,0,0,0,0,0,0,0,0,0,0,0,0,0,0,0,0,0,0,0,0,0,0,0,0,0,0,0,0,0,0,0,0,0,0,0,0,0,0,0,0,0,0,0,0,0,0,0,0,0,0,0,0,0,0,0,0,0,0,0,0,0,0,0,0,0,0,0,0,0,0,0,0,0,0,0,0,0,0,0,0,0,0,0,0,0,0,0,0,0,0,0,0,0,0,0,0,0,0,0,0,0,0,0,0,0,0,0,0,0,0,0,0,0,0,0,0,0,0,0,0,0,0,0,0,0,0,0,0,0,0,0,0,0,0,0,0,0,0,0,0,0,0,0,0,0,0,0,0,0,0,0,0,0,0,0,0,0,0,0,0,0,0,0,0,0,0,0,0,0,0,0,0,0,0,0,0,0,0,0,0,0,0,0,0,0,0,0,0,0,0,0,0,0,0,0,0,0,0,0,0,0,0,0,0,0,0,0,0,0,0,0,0,0,0,0,0,0,0,0,0,0,0,0,0,0,0,0,0,0,0,0,0,0,0,0,0,0,0,0,0,0,0,0,0,0,0,0,0,0,0,0,0,0,0,0,0,0,0,0,0,0]}],[{"header":{"parameterUnit":"kt","parameterCategory":2,"dx":1,"dy":1,"la1":29.764190673828125,"la2":30.86408042907715,"lo1":-88.46762084960938,"lo2":-86.9344482421875,"nx":47,"ny":34,"refTime":"2022-10-08T00:00:00:Z","depth":"4","parameterNumber":3,"parameterNumberName":"V-component_of_CURRENTS"},"data":[0.0368,0.0662,0.0902,0.1388,0.1762,0.1863,0.1655,0.173,0.1895,0.1821,0.1682,0.165,0.173,0.1842,0.1698,0.1468,0.141,0.1185,0.0806,0.0598,0.0801,0.0849,0.0443,-0.0283,-0.0763,-0.0534,0.0753,0.1991,0.2157,0.1591,0.1377,0.1901,0.2573,0.3268,0.3769,0.4047,0.4271,0.4447,0.4613,0.4688,0.4811,0.4853,0.4698,0.4415,0.4138,0.3951,0.3727,-0.0128,0.0678,0.1084,0.142,0.1746,0.2002,0.212,0.2034,0.1938,0.1762,0.1773,0.1837,0.1943,0.1847,0.1393,0.1255,0.1393,0.1356,0.0956,0.0577,0.0838,0.1207,0.0817,0.0011,-0.0646,-0.1078,-0.0464,0.071,0.1527,0.1997,0.1719,0.1623,0.2104,0.2589,0.3118,0.3508,0.3903,0.4213,0.4415,0.4474,0.4506,0.4389,0.4095,0.3631,0.3214,0.2867,0.2648,-0.0507,0.0117,0.0737,0.1191,0.1596,0.1917,0.2077,0.1922,0.1773,0.1719,0.1853,0.1981,0.1981,0.1596,0.1148,0.1217,0.1415,0.15,0.1212,0.0769,0.0812,0.1495,0.1431,0.0721,-0.0144,-0.0982,-0.1025,-0.0411,0.0294,0.1046,0.166,0.1746,0.1794,0.212,0.2568,0.2824,0.3225,0.3481,0.3625,0.3679,0.3647,0.3524,0.3305,0.2904,0.2445,0.2098,0.2018,-0.0336,-0.0166,0.0176,0.0641,0.1084,0.1356,0.1548,0.1623,0.1687,0.1789,0.1922,0.1975,0.1794,0.1313,0.1121,0.118,0.1335,0.1458,0.1313,0.0892,0.0742,0.1335,0.1837,0.1612,0.0876,-0.0166,-0.0844,-0.0769,-0.0304,-0.0032,0.0411,0.1127,0.1607,0.1783,0.1906,0.2381,0.2627,0.2798,0.2953,0.2953,0.2899,0.2883,0.2856,0.2621,0.2237,0.189,0.1794,0.0016,0.0107,0.0214,0.0486,0.079,0.0998,0.1196,0.1383,0.1543,0.1666,0.1725,0.1666,0.1452,0.1207,0.1164,0.1127,0.118,0.1265,0.1201,0.0913,0.0641,0.087,0.149,0.1837,0.1682,0.095,0.0021,-0.0475,-0.0411,-0.0448,-0.0566,-0.0256,0.0587,0.1244,0.1692,0.1842,0.1858,0.229,0.2525,0.2547,0.2515,0.2531,0.2616,0.2557,0.229,0.1959,0.1767,0.039,0.0438,0.0502,0.0614,0.0763,0.0913,0.1041,0.1153,0.1228,0.1297,0.1303,0.1239,0.1137,0.1105,0.1116,0.1041,0.102,0.1046,0.1004,0.0828,0.0577,0.0545,0.0812,0.1196,0.1447,0.1361,0.078,0.0171,-0.0208,-0.0379,-0.0534,-0.0694,-0.0555,0.008,0.1073,0.1602,0.1773,0.1746,0.181,0.2072,0.2205,0.2242,0.2322,0.2381,0.228,0.2077,0.189,0.0689,0.0689,0.0747,0.0817,0.0876,0.0934,0.1014,0.1078,0.11,0.1111,0.1078,0.1009,0.0956,0.0961,0.0998,0.0934,0.0892,0.0886,0.0849,0.0747,0.0609,0.0566,0.0646,0.0817,0.1036,0.118,0.103,0.0673,0.0198,-0.0021,-0.0085,-0.0283,-0.0448,-0.0518,-0.0144,0.0876,0.1687,0.1831,0.1644,0.1682,0.173,0.1815,0.1911,0.2013,0.2056,0.2024,0.1938,0.0587,0.0609,0.0689,0.0812,0.0902,0.0956,0.103,0.1105,0.1132,0.1116,0.1052,0.0961,0.0886,0.0865,0.0886,0.0833,0.0801,0.0774,0.0742,0.0683,0.063,0.0667,0.0796,0.095,0.1116,0.1207,0.1153,0.0881,0.0513,0.0283,0.0198,0.008,-0.0085,-0.0246,-0.0352,-0.0085,0.0758,0.1559,0.1746,0.1863,0.1687,0.1623,0.1596,0.1602,0.1794,0.1879,0.1911,0.0256,0.0283,0.0379,0.0555,0.0721,0.0844,0.0966,0.11,0.118,0.1175,0.1089,0.0961,0.0849,0.0796,0.079,0.0753,0.0721,0.0689,0.0641,0.0582,0.0529,0.0545,0.0651,0.0822,0.102,0.1153,0.1153,0.0961,0.0678,0.047,0.0384,0.0262,0.0123,-0.0005,-0.0144,-0.0203,0.0139,0.0667,0.1164,0.1538,0.166,0.1799,0.1719,0.1612,0.1591,0.1628,0.1714,0.0096,0.0096,0.0166,0.0331,0.0534,0.0742,0.0929,0.1121,0.1239,0.1249,0.1143,0.0977,0.0817,0.0731,0.0699,0.0662,0.0651,0.0614,0.0545,0.0448,0.0358,0.032,0.0352,0.047,0.0646,0.0817,0.0908,0.0854,0.0705,0.0545,0.0491,0.04,0.0278,0.016,0.0048,-0.0069,-0.0005,0.0331,0.0635,0.0886,0.1169,0.1324,0.1554,0.1927,0.1789,0.1639,0.1676,0.0037,-0.0005,0.0011,0.0176,0.0379,0.0635,0.0929,0.118,0.134,0.1377,0.1276,0.1036,0.078,0.0646,0.0577,0.0523,0.0539,0.0518,0.0443,0.032,0.0224,0.0187,0.0192,0.024,0.0326,0.0432,0.0523,0.055,0.0507,0.0411,0.0395,0.039,0.0342,0.0283,0.0224,0.0139,0.0048,0.0133,0.0427,0.0678,0.0726,0.0715,0.1095,0.1383,0.1687,0.1997,0.2258,0.0011,-0.0064,-0.016,0.0048,0.0235,0.0545,0.0972,0.1324,0.1522,0.1543,0.1495,0.1201,0.0673,0.0545,0.0406,0.0342,0.0379,0.039,0.0331,0.0224,0.0133,0.0085,0.0053,0.0085,0.0107,0.0117,0.0133,0.0155,0.016,0.0144,0.0155,0.0187,0.0251,0.031,0.0336,0.0315,0.0219,0.0155,0.0315,0.0427,0.0352,0.0422,0.0673,0.0625,0.1105,0.1634,0.1783,0.0,-0.0075,-0.0443,0.024,0.0529,0.0641,0.0902,0.1361,0.1671,0.1687,0.1885,0.181,0.0598,0.0464,0.0272,0.0224,0.0219,0.024,0.0219,0.0144,0.0059,-0.0011,-0.0155,-0.0059,-0.0027,-0.0053,-0.0101,-0.0133,-0.016,-0.016,-0.0155,-0.0107,0.0048,0.0203,0.0326,0.0384,0.0336,0.0278,0.0278,0.0299,0.0144,0.0027,0.0155,0.0246,0.0432,0.0651,0.0657,0,0,0.0619,0.0929,0.1372,0.0742,0.0801,0.1228,0.1741,0.1575,0.1911,0.1949,0,0.1874,0.0235,0.0192,0.0144,0.016,0.0155,0.0096,0.0021,-0.0059,-0.0646,-0.0214,-0.0085,-0.0091,-0.0155,-0.0219,-0.0374,-0.0368,-0.0384,-0.0326,-0.0128,0.0027,0.0192,0.032,0.0347,0.0304,0.0272,0.024,0.0117,-0.0069,-0.0069,-0.0021,-0.0043,0.0,0.0133,0.0091,0.0139,0.1436,0.0822,0.0844,0,0,0.2483,0.1965,0.1372,0.1687,0.1607,0.0881,0.3011,0,0,0,0,0,0,0,0,-0.0998,-0.0288,-0.0096,-0.0085,-0.0149,-0.0224,-0.0731,-0.0395,-0.0352,-0.0294,-0.0214,-0.0267,-0.0075,0.0139,0.0256,0.0256,0.0198,0.0128,0.0139,0.0016,-0.0037,0.0043,0.0069,-0.0043,-0.0043,0.0208,0.0411,0.1009,0.0406,-0.0214,-0.0219,0.0283,0.2942,0.1959,0,0,0,0.2066,0.2483,0.0342,0.0037,-0.0011,-0.0075,0.0,-0.0011,-0.0043,0,0,0,0,0,0,0,-0.0497,-0.016,-0.0262,-0.0208,-0.024,-0.0812,-0.0416,-0.0059,0.0198,0.0251,0.0123,-0.0112,0.0005,0.0032,0.0048,0.0112,0.0166,0.0123,0.0075,0.024,0.0171,0.078,0.0561,0.0149,-0.0187,0.0561,0.2002,0.1666,0.0,0.0,-0.0304,0.2573,0.2007,0.0806,0.0021,-0.0187,-0.0053,-0.0032,-0.0144,-0.0085,0,0,0,0,0,0,0,0,0,0,0,0,-0.1148,-0.0582,-0.0144,0.0251,0.04,0.0107,-0.0582,-0.0224,-0.0021,0.0069,0.0144,0.0192,0.0182,0.0037,0,-0.0203,0.0523,0.0475,0.0304,-0.0166,0,0,0,0,0,-0.0448,0.2696,0.1789,0.0838,-0.0096,-0.0561,-0.008,-0.0048,-0.0214,0,0,0,0,0,0,0,0,0,0,0,0,0,0,0,0,0.0246,0.0582,0,0,-0.0336,-0.0053,0.0048,0.0139,0.0187,0.0187,-0.0037,0,0,0,0.0374,0.0112,-0.039,0,0,0,0,0,-0.0192,0.2403,0.1965,0.0753,-0.0427,-0.1046,-0.0812,-0.0027,0,0,0,0,0,0,0,0,0,0,0,0,0,0,0,0,0,0,0.063,0.0059,0,0,0,0,0,0,0,-0.0091,0,0,0,0,0,0,0,0,0,0,0,0.0133,0.2194,0.2173,0.0598,-0.0998,-0.1773,-0.142,0,0,0,0,0,0,0,0,0,0,0,0,0,0,0,0,0,0,0,0,0.0112,-0.0224,0.0235,0.0294,0,0,0,0,0,0,0,0,0,0,0,0,0,0,0,0,0.0267,0.1703,0.2152,0.0523,-0.1436,-0.1885,0,0,0,0,0,0,0,0,0,0,0,0,0,0,0,0,0,0,0,0,0,0,-0.0443,0.047,0.0587,0.0,0.0037,-0.0011,0,0,0,0,0,0,0,0,0,0,0,0,0,0,0.0833,0.2216,0.0849,-0.1751,-0.1596,0,0,0,0,0,0,0,0,0,0,0,0,0,0,0,0,0,0,0,0,0,0,0,0,0,0,0.0069,-0.0027,0,0,0,0,0,0,0,0,0,0,0,0,0,0,-0.0005,0.2638,0.1132,-0.2152,-0.1922,0,0,0,0,0,0,0,0,0,0,0,0,0,0,0,0,0,0,0,0,0,0,0,0,0,0,0,0,0,0,0,0,0,0,0,0,0,0,0,0,0,0,-0.0288,0.2499,0.0988,-0.252,-0.236,0,0,0,0,0,0,0,0,0,0,0,0,0,0,0,0,0,0,0,0,0,0,0,0,0,0,0,0,0,0,0,0,0,0,0,0,0,0,0,0,0,0,-0.008,0.1725,0.0657,-0.2654,-0.229,0,0,0,0,0,0,0,0,0,0,0,0,0,0,0,0,0,0,0,0,0,0,0,0,0,0,0,0,0,0,0,0,0,0,0,0,0,0,0,0,0,0,0,0.1127,-0.0454,-0.229,-0.1351,0,0,0,0,0,0,0,0,0,0,0,0,0,0,0,0,0,0,0,0,0,0,0,0,0,0,0,0,0,0,0,0,0,0,0,0,0,0,0,0,0,0,0,0.0934,-0.0844,-0.1837,-0.0651,0,0,0,0,0,0,0,0,0,0,0,0,0,0,0,0,0,0,0,0,0,0,0,0,0,0,0,0,0,0,0,0,0,0,0,0,0,0,0,0,0,0,0,0,-0.0256,-0.1714,0,0,0,0,0,0,0,0,0,0,0,0,0,0,0,0,0,0,0,0,0,0,0,0,0,0,0,0,0,0,0,0,0,0,0,0,0,0,0,0,0,0,0,0,0,0,0,0,0,0,0,0,0,0,0,0,0,0,0,0,0,0,0,0,0,0,0,0,0,0,0,0,0,0,0,0,0,0,0,0,0,0,0,0,0,0,0,0,0,0,0,0,0,0,0,0,0,0,0,0,0,0,0,0,0,0,0,0,0,0,0,0,0,0,0,0,0,0,0,0,0,0,0,0,0,0,0,0,0,0,0,0,0,0,0,0,0,0,0,0,0,0,0,0,0,0,0,0,0,0,0,0,0,0,0,0,0,0,0,0,0,0,0,0,0,0,0,0,0,0,0,0,0,0,0,0,0,0,0,0,0,0,0,0,0,0,0,0,0,0,0,0,0,0,0,0,0,0,0,0,0,0,0,0,0,0,0,0,0,0,0,0,0,0,0,0,0,0,0,0,0,0,0,0,0,0,0,0,0,0,0,0,0,0,0,0,0,0,0,0,0,0,0,0,0,0,0,0,0,0,0,0,0,0,0,0,0,0,0,0,0,0,0,0,0,0,0,0,0,0,0,0,0,0,0,0,0,0,0,0,0,0,0,0,0,0,0,0,0,0,0,0,0,0,0,0,0,0,0,0,0,0,0,0,0,0,0,0,0,0,0,0,0]}]],[[{"header":{"parameterUnit":"kt","parameterCategory":2,"dx":1,"dy":1,"la1":29.764190673828125,"la2":30.86408042907715,"lo1":-88.46762084960938,"lo2":-86.9344482421875,"nx":47,"ny":34,"refTime":"2022-10-08T00:00:00:Z","depth":"6","parameterNumber":2,"parameterNumberName":"U-component_of_CURRENTS"},"data":[-0.1046,-0.0673,-0.0427,-0.0192,0.008,0.0187,-0.0123,-0.0961,-0.1612,-0.1714,-0.1842,-0.2141,-0.2419,-0.2595,-0.2536,-0.2216,-0.1922,-0.1821,-0.181,-0.1831,-0.1965,-0.2312,-0.2691,-0.2771,-0.2744,-0.2814,-0.2702,-0.2381,-0.1837,-0.1127,-0.1212,-0.1607,-0.1442,-0.1239,-0.094,-0.0507,-0.016,0.0166,0.0486,0.0753,0.0993,0.1223,0.1297,0.1062,0.0667,0.0331,0.0016,-0.1714,-0.1575,-0.1169,-0.0972,-0.0876,-0.1046,-0.1516,-0.1895,-0.1917,-0.1895,-0.2093,-0.2322,-0.2467,-0.2472,-0.2216,-0.1885,-0.1751,-0.1687,-0.1602,-0.1618,-0.1858,-0.2226,-0.2632,-0.2814,-0.2878,-0.3049,-0.3091,-0.3081,-0.283,-0.2173,-0.1426,-0.1388,-0.1655,-0.1463,-0.1265,-0.1062,-0.0785,-0.0411,0.0,0.032,0.0523,0.0587,0.0464,0.024,0.0053,-0.0107,-0.0331,-0.1692,-0.22,-0.2397,-0.2376,-0.2349,-0.2355,-0.2322,-0.2157,-0.1991,-0.205,-0.2237,-0.2365,-0.2355,-0.2184,-0.1911,-0.1735,-0.1709,-0.173,-0.1623,-0.1442,-0.1442,-0.1773,-0.2232,-0.2499,-0.2702,-0.2985,-0.315,-0.3155,-0.3139,-0.2963,-0.2429,-0.1559,-0.1308,-0.1484,-0.1345,-0.11,-0.0769,-0.0443,-0.0144,0.0069,0.0149,0.0096,-0.0032,-0.0096,-0.0096,-0.0091,-0.0166,-0.1426,-0.1837,-0.2189,-0.2355,-0.2387,-0.229,-0.2104,-0.1997,-0.2082,-0.2253,-0.2312,-0.2237,-0.205,-0.1831,-0.1719,-0.1725,-0.1767,-0.1805,-0.1698,-0.1463,-0.1324,-0.1388,-0.1655,-0.2007,-0.2258,-0.2461,-0.2734,-0.2979,-0.3161,-0.3278,-0.3118,-0.2573,-0.1644,-0.0908,-0.103,-0.1025,-0.0673,-0.0422,-0.0027,0.0235,0.0256,0.0166,0.0059,0.0016,0.0059,0.0112,0.0085,-0.1319,-0.1538,-0.1767,-0.2045,-0.2258,-0.2322,-0.236,-0.2408,-0.2413,-0.2312,-0.2114,-0.1874,-0.1698,-0.1692,-0.1789,-0.1847,-0.1885,-0.1885,-0.1746,-0.1468,-0.1281,-0.1335,-0.1511,-0.1671,-0.1767,-0.1773,-0.2034,-0.2573,-0.2995,-0.3139,-0.3043,-0.2888,-0.252,-0.1778,-0.0699,-0.032,-0.0619,-0.0454,-0.008,0.0214,0.0432,0.0459,0.0347,0.0256,0.0262,0.0299,0.0315,-0.1201,-0.1329,-0.1484,-0.1628,-0.1767,-0.1885,-0.197,-0.1981,-0.1906,-0.1794,-0.1698,-0.1671,-0.1757,-0.1906,-0.1991,-0.1997,-0.1991,-0.1943,-0.1805,-0.158,-0.1383,-0.1319,-0.1393,-0.1527,-0.1559,-0.142,-0.1308,-0.1559,-0.1975,-0.2088,-0.2007,-0.2125,-0.2344,-0.2221,-0.1698,-0.0865,-0.0021,0.0187,0.0011,0.0128,0.0358,0.047,0.0486,0.0459,0.047,0.0518,0.055,-0.1244,-0.1228,-0.1255,-0.1319,-0.1388,-0.1431,-0.1474,-0.1532,-0.1618,-0.1735,-0.1863,-0.1981,-0.2066,-0.2114,-0.2125,-0.2093,-0.204,-0.197,-0.1879,-0.1767,-0.1655,-0.157,-0.15,-0.1415,-0.1303,-0.1159,-0.0998,-0.0918,-0.0988,-0.1057,-0.1084,-0.1164,-0.1377,-0.1682,-0.1831,-0.1548,-0.102,-0.0219,0.0481,0.063,0.0539,0.0497,0.0566,0.0646,0.0737,0.0822,0.0902,-0.157,-0.1543,-0.1522,-0.1506,-0.1516,-0.1559,-0.1634,-0.1757,-0.1901,-0.204,-0.2141,-0.22,-0.2216,-0.2216,-0.2194,-0.2141,-0.2077,-0.2018,-0.1954,-0.1879,-0.1805,-0.1735,-0.166,-0.158,-0.1495,-0.1377,-0.118,-0.0961,-0.0865,-0.0886,-0.0924,-0.094,-0.1009,-0.1175,-0.1404,-0.1538,-0.1388,-0.1004,-0.0497,0.0208,0.0822,0.1057,0.1062,0.1095,0.1201,0.1297,0.1377,-0.1799,-0.1746,-0.1719,-0.1714,-0.173,-0.1762,-0.1847,-0.1965,-0.2082,-0.2184,-0.2242,-0.2269,-0.2264,-0.2253,-0.2232,-0.2184,-0.2125,-0.2061,-0.1986,-0.189,-0.1783,-0.1719,-0.1719,-0.1746,-0.1725,-0.1644,-0.149,-0.1303,-0.1159,-0.1084,-0.102,-0.0929,-0.0908,-0.1004,-0.1159,-0.1319,-0.1361,-0.1244,-0.0897,-0.0518,-0.0155,0.039,0.0908,0.1404,0.1575,0.1447,0.1484,-0.1831,-0.1767,-0.1719,-0.1698,-0.1703,-0.173,-0.1821,-0.1965,-0.2114,-0.2216,-0.228,-0.2312,-0.2306,-0.2285,-0.2248,-0.2189,-0.2125,-0.2045,-0.1949,-0.1842,-0.1767,-0.1762,-0.1805,-0.1853,-0.1842,-0.1746,-0.1586,-0.1399,-0.1233,-0.1148,-0.1116,-0.103,-0.0913,-0.087,-0.0961,-0.1148,-0.1367,-0.15,-0.1522,-0.1345,-0.0838,-0.0454,-0.0336,0.0278,0.1009,0.1303,0.1463,-0.1922,-0.1879,-0.1773,-0.165,-0.157,-0.1527,-0.157,-0.1735,-0.1938,-0.2109,-0.2258,-0.236,-0.2376,-0.2328,-0.2258,-0.2168,-0.2082,-0.1997,-0.1917,-0.1853,-0.1826,-0.1831,-0.1842,-0.1831,-0.1778,-0.1676,-0.1527,-0.1361,-0.1228,-0.1153,-0.1116,-0.1041,-0.0929,-0.0828,-0.0796,-0.0876,-0.1084,-0.1276,-0.1452,-0.1676,-0.1794,-0.1634,-0.1068,-0.0561,-0.0395,0.0064,0.0806,-0.2024,-0.204,-0.197,-0.1847,-0.1714,-0.1634,-0.1639,-0.1687,-0.1821,-0.2024,-0.2253,-0.2456,-0.2472,-0.2365,-0.2242,-0.2114,-0.2024,-0.1959,-0.1917,-0.1885,-0.1879,-0.1879,-0.1863,-0.181,-0.173,-0.1596,-0.1436,-0.1287,-0.1164,-0.1084,-0.1025,-0.0966,-0.0913,-0.0865,-0.0817,-0.078,-0.0796,-0.094,-0.1185,-0.1399,-0.1527,-0.1575,-0.1575,-0.1506,-0.0972,-0.0048,0.0454,-0.2034,-0.2088,-0.1986,-0.2077,-0.2515,-0.2904,-0.2696,-0.2253,-0.1975,-0.181,-0.197,-0.2429,-0.2493,-0.2189,-0.2088,-0.1975,-0.1933,-0.1922,-0.1901,-0.1879,-0.1869,-0.1863,-0.181,-0.173,-0.1676,-0.1602,-0.1495,-0.1372,-0.1244,-0.1137,-0.1036,-0.095,-0.0918,-0.0934,-0.0924,-0.0876,-0.0822,-0.0796,-0.0838,-0.0972,-0.1111,-0.1191,-0.126,-0.1313,-0.1265,-0.1249,-0.1345,0,0,-0.1025,-0.228,-0.2333,-0.2702,-0.2408,-0.1879,-0.1575,-0.1025,-0.039,-0.0032,0,-0.1143,-0.2141,-0.1933,-0.1853,-0.1863,-0.1837,-0.1799,-0.1773,-0.1794,-0.1612,-0.1431,-0.1474,-0.1511,-0.1511,-0.1495,-0.1436,-0.1383,-0.1372,-0.1329,-0.1292,-0.1255,-0.1201,-0.11,-0.0966,-0.0865,-0.0785,-0.0715,-0.0694,-0.0796,-0.0993,-0.1271,-0.1719,-0.2301,-0.2718,-0.1858,-0.2157,-0.2088,-0.0977,-0.0123,0,0,-0.0838,-0.1757,-0.118,0.016,0.1452,0.0876,-0.0331,0,0,0,0,0,0,0,0,-0.0352,-0.0897,-0.118,-0.1308,-0.1404,-0.1564,-0.15,-0.1447,-0.1655,-0.1954,-0.2141,-0.1938,-0.1596,-0.1367,-0.1191,-0.1057,-0.094,-0.0801,-0.071,-0.0737,-0.0854,-0.0993,-0.1169,-0.1458,-0.1917,-0.1922,-0.2141,-0.2381,-0.2488,-0.2024,-0.1484,-0.1607,-0.0886,0.0016,0,0,0,0.008,0.0603,0.0641,0.0117,0.0133,0.031,0.0278,0.0171,0.0144,0,0,0,0,0,0,0,-0.0384,-0.1025,-0.142,-0.1735,-0.2093,-0.1901,-0.1612,-0.1522,-0.1367,-0.1255,-0.1228,-0.1207,-0.1057,-0.0934,-0.0902,-0.0902,-0.0945,-0.1089,-0.1329,-0.1671,-0.1313,-0.0924,-0.0929,-0.1143,-0.1265,-0.1223,-0.0224,0.1431,0.2077,0.2018,0.103,0.0032,0.0379,0.0614,0.0363,0.0304,0.0315,0.0187,0.0182,0.0251,0,0,0,0,0,0,0,0,0,0,0,0,-0.0422,-0.1078,-0.1404,-0.1634,-0.1965,-0.2082,-0.1575,-0.126,-0.1159,-0.1078,-0.0982,-0.0908,-0.0918,-0.103,0,0.0043,0.0304,0.0502,0.0497,0.0518,0,0,0,0,0,0.0027,0.0176,0.0336,0.032,0.0075,0.0027,0.0267,0.0336,0.0288,0,0,0,0,0,0,0,0,0,0,0,0,0,0,0,0,0.0961,0.142,0,0,-0.095,-0.1111,-0.1068,-0.0982,-0.0865,-0.0753,-0.0641,0,0,0,0.024,0.0497,0.0518,0,0,0,0,0,0.0085,0.0262,0.0299,0.0091,0.0176,0.0491,0.0587,0.047,0,0,0,0,0,0,0,0,0,0,0,0,0,0,0,0,0,0,0.1623,0.2499,0,0,0,0,0,0,0,-0.0091,0,0,0,0,0,0,0,0,0,0,0,0.0112,0.0299,0.0304,0.0384,0.0806,0.1223,0.1393,0,0,0,0,0,0,0,0,0,0,0,0,0,0,0,0,0,0,0,0,0.0844,0.1612,0.1324,0.1105,0,0,0,0,0,0,0,0,0,0,0,0,0,0,0,0,0.0182,0.071,0.1041,0.1089,0.1223,0.1281,0,0,0,0,0,0,0,0,0,0,0,0,0,0,0,0,0,0,0,0,0,0,0.0021,0.0619,0.1639,0.157,0.0683,0.0262,0,0,0,0,0,0,0,0,0,0,0,0,0,0,0.2141,0.1778,0.1543,0.1329,0.1196,0,0,0,0,0,0,0,0,0,0,0,0,0,0,0,0,0,0,0,0,0,0,0,0,0,0,0.008,0.0155,0,0,0,0,0,0,0,0,0,0,0,0,0,0,0.0715,0.1532,0.157,0.1164,0.0897,0,0,0,0,0,0,0,0,0,0,0,0,0,0,0,0,0,0,0,0,0,0,0,0,0,0,0,0,0,0,0,0,0,0,0,0,0,0,0,0,0,0,0.0112,0.1095,0.1906,0.1447,0.102,0,0,0,0,0,0,0,0,0,0,0,0,0,0,0,0,0,0,0,0,0,0,0,0,0,0,0,0,0,0,0,0,0,0,0,0,0,0,0,0,0,0,0.0721,0.2424,0.2888,0.1687,0.095,0,0,0,0,0,0,0,0,0,0,0,0,0,0,0,0,0,0,0,0,0,0,0,0,0,0,0,0,0,0,0,0,0,0,0,0,0,0,0,0,0,0,0,0.1292,0.228,0.142,0.0876,0,0,0,0,0,0,0,0,0,0,0,0,0,0,0,0,0,0,0,0,0,0,0,0,0,0,0,0,0,0,0,0,0,0,0,0,0,0,0,0,0,0,0,0.0075,-0.0214,-0.0817,-0.1052,0,0,0,0,0,0,0,0,0,0,0,0,0,0,0,0,0,0,0,0,0,0,0,0,0,0,0,0,0,0,0,0,0,0,0,0,0,0,0,0,0,0,0,0,-0.0342,-0.0683,0,0,0,0,0,0,0,0,0,0,0,0,0,0,0,0,0,0,0,0,0,0,0,0,0,0,0,0,0,0,0,0,0,0,0,0,0,0,0,0,0,0,0,0,0,0,0,0,0,0,0,0,0,0,0,0,0,0,0,0,0,0,0,0,0,0,0,0,0,0,0,0,0,0,0,0,0,0,0,0,0,0,0,0,0,0,0,0,0,0,0,0,0,0,0,0,0,0,0,0,0,0,0,0,0,0,0,0,0,0,0,0,0,0,0,0,0,0,0,0,0,0,0,0,0,0,0,0,0,0,0,0,0,0,0,0,0,0,0,0,0,0,0,0,0,0,0,0,0,0,0,0,0,0,0,0,0,0,0,0,0,0,0,0,0,0,0,0,0,0,0,0,0,0,0,0,0,0,0,0,0,0,0,0,0,0,0,0,0,0,0,0,0,0,0,0,0,0,0,0,0,0,0,0,0,0,0,0,0,0,0,0,0,0,0,0,0,0,0,0,0,0,0,0,0,0,0,0,0,0,0,0,0,0,0,0,0,0,0,0,0,0,0,0,0,0,0,0,0,0,0,0,0,0,0,0,0,0,0,0,0,0,0,0,0,0,0,0,0,0,0,0,0,0,0,0,0,0,0,0,0,0,0,0,0,0,0,0,0,0,0,0,0,0,0,0,0,0,0,0,0,0,0,0,0,0,0,0,0,0,0,0,0]}],[{"header":{"parameterUnit":"kt","parameterCategory":2,"dx":1,"dy":1,"la1":29.764190673828125,"la2":30.86408042907715,"lo1":-88.46762084960938,"lo2":-86.9344482421875,"nx":47,"ny":34,"refTime":"2022-10-08T00:00:00:Z","depth":"6","parameterNumber":3,"parameterNumberName":"V-component_of_CURRENTS"},"data":[0.0171,0.0464,0.0758,0.1281,0.166,0.1757,0.1554,0.1628,0.1794,0.1714,0.1575,0.1559,0.165,0.1757,0.1607,0.1377,0.1324,0.1105,0.0742,0.0534,0.0737,0.079,0.04,-0.031,-0.078,-0.0593,0.063,0.1831,0.1997,0.1447,0.1233,0.1741,0.2392,0.3091,0.3609,0.3903,0.4143,0.4335,0.4506,0.4592,0.472,0.4762,0.4608,0.4335,0.4063,0.3871,0.3641,-0.0278,0.0491,0.0908,0.1281,0.1618,0.1885,0.2007,0.1927,0.1831,0.165,0.1671,0.1735,0.1847,0.1757,0.1297,0.1159,0.1292,0.1271,0.0892,0.0529,0.078,0.1143,0.0769,-0.0021,-0.0646,-0.1089,-0.0507,0.0614,0.1393,0.1858,0.1586,0.1495,0.197,0.2456,0.2979,0.3374,0.378,0.41,0.4314,0.4383,0.4415,0.4298,0.4004,0.355,0.3134,0.2787,0.2568,-0.0587,-0.0005,0.0593,0.1057,0.1474,0.1799,0.1965,0.1805,0.1655,0.1607,0.1746,0.1874,0.1879,0.1495,0.1041,0.1111,0.1308,0.1399,0.1137,0.0715,0.0758,0.142,0.1356,0.0673,-0.0155,-0.0982,-0.1025,-0.0443,0.0224,0.0945,0.1538,0.1628,0.1676,0.2007,0.2456,0.2707,0.3107,0.3374,0.3534,0.3599,0.3567,0.3444,0.3225,0.2824,0.2371,0.2024,0.1933,-0.0384,-0.0235,0.0091,0.0545,0.0982,0.1249,0.1436,0.15,0.157,0.1676,0.1805,0.1858,0.1682,0.1201,0.1009,0.1073,0.1228,0.1351,0.1228,0.0833,0.0694,0.126,0.1735,0.1522,0.0822,-0.0187,-0.0844,-0.0774,-0.0315,-0.0075,0.0342,0.1025,0.1495,0.1671,0.1794,0.2269,0.252,0.2702,0.2867,0.2883,0.283,0.2814,0.2782,0.2541,0.2162,0.1815,0.1714,-0.0048,0.0037,0.0144,0.0406,0.0699,0.0897,0.1089,0.1271,0.1431,0.1554,0.1602,0.1543,0.1335,0.1089,0.1052,0.1025,0.1084,0.1169,0.1116,0.0849,0.0598,0.0817,0.1404,0.173,0.1591,0.0897,0.0011,-0.0481,-0.0406,-0.0448,-0.0566,-0.0294,0.0513,0.1153,0.1586,0.1735,0.1757,0.2194,0.244,0.2477,0.2451,0.2472,0.2547,0.2477,0.2216,0.1885,0.1692,0.0294,0.0347,0.0416,0.0529,0.0673,0.0817,0.0945,0.1046,0.1121,0.1185,0.1196,0.1127,0.1036,0.1004,0.1014,0.095,0.0934,0.0961,0.0929,0.0769,0.0539,0.0513,0.0763,0.1121,0.1361,0.1292,0.0742,0.0155,-0.0214,-0.0379,-0.0513,-0.0667,-0.0555,0.0032,0.0993,0.1506,0.1671,0.165,0.1719,0.1991,0.2136,0.2178,0.2253,0.2306,0.2205,0.2002,0.1815,0.0561,0.0577,0.0641,0.071,0.0774,0.0833,0.0908,0.0966,0.0993,0.1009,0.0982,0.0918,0.087,0.0876,0.0908,0.0849,0.0817,0.0812,0.0774,0.0683,0.0555,0.0523,0.0598,0.0753,0.0961,0.1105,0.0972,0.063,0.0166,-0.0043,-0.0096,-0.0272,-0.0432,-0.0518,-0.0182,0.0806,0.1596,0.1746,0.1559,0.1602,0.1655,0.1746,0.1842,0.1943,0.1986,0.1949,0.1863,0.047,0.0497,0.0582,0.0699,0.079,0.0849,0.0918,0.0993,0.1025,0.1014,0.0961,0.0881,0.0812,0.079,0.0806,0.0763,0.0731,0.0705,0.0667,0.0614,0.0555,0.0577,0.0694,0.0844,0.1009,0.1111,0.1068,0.0817,0.0454,0.0235,0.0155,0.0053,-0.0091,-0.0246,-0.0358,-0.0117,0.0694,0.1479,0.166,0.1783,0.1607,0.1543,0.1527,0.1538,0.1725,0.181,0.1837,0.0192,0.0219,0.0304,0.0464,0.0625,0.0742,0.086,0.0988,0.1068,0.1073,0.0998,0.0886,0.0785,0.0731,0.0721,0.0683,0.0657,0.0625,0.0571,0.0507,0.0438,0.0438,0.0534,0.0689,0.0886,0.1025,0.1046,0.087,0.0598,0.04,0.0315,0.0208,0.0096,-0.0016,-0.0155,-0.0219,0.0107,0.0603,0.1084,0.1458,0.158,0.1719,0.165,0.1548,0.1527,0.1559,0.1639,0.0069,0.0069,0.0128,0.0278,0.0464,0.0657,0.0833,0.1014,0.1132,0.1148,0.1057,0.0902,0.0753,0.0667,0.0635,0.0598,0.0587,0.055,0.0475,0.0368,0.0278,0.0235,0.0262,0.0363,0.0529,0.0694,0.079,0.0747,0.0603,0.0454,0.04,0.0331,0.0224,0.0133,0.0032,-0.0085,-0.0032,0.0288,0.0571,0.0806,0.1084,0.1244,0.1484,0.1863,0.173,0.158,0.1612,0.0016,-0.0016,0.0,0.0149,0.0336,0.0571,0.0854,0.1095,0.1244,0.1281,0.1191,0.0966,0.0721,0.0587,0.0507,0.0454,0.0464,0.0448,0.0368,0.0251,0.016,0.0123,0.0128,0.0166,0.024,0.0336,0.0422,0.0448,0.0406,0.032,0.0304,0.0304,0.0272,0.0235,0.0198,0.0128,0.0032,0.0101,0.0368,0.0603,0.0635,0.0619,0.1009,0.1297,0.1607,0.1922,0.2178,-0.0005,-0.0059,-0.0144,0.0043,0.0208,0.0491,0.0908,0.1244,0.1447,0.1474,0.1431,0.1153,0.0641,0.0502,0.0326,0.0262,0.0304,0.032,0.0272,0.0171,0.0085,0.0037,0.0011,0.0043,0.0059,0.0059,0.0069,0.0085,0.0091,0.0075,0.0085,0.0112,0.0182,0.0246,0.0288,0.0288,0.0203,0.0133,0.0272,0.0368,0.0278,0.0336,0.0571,0.0513,0.0977,0.149,0.1639,-0.0011,-0.0048,-0.0406,0.024,0.0454,0.0539,0.0822,0.1303,0.1623,0.1666,0.1842,0.1757,0.0582,0.0438,0.0198,0.0096,0.0144,0.0187,0.0171,0.0101,0.0021,-0.0048,-0.0187,-0.0091,-0.0053,-0.008,-0.0128,-0.016,-0.0187,-0.0192,-0.0187,-0.0139,0.0005,0.0155,0.0278,0.0347,0.031,0.0251,0.0251,0.0256,0.0101,-0.0032,0.0075,0.0149,0.0299,0.0464,0.0464,0,0,0.0603,0.0876,0.103,0.0416,0.0635,0.1169,0.1612,0.1404,0.1623,0.1666,0,0.1725,0.0171,0.0021,0.0075,0.0117,0.0117,0.0064,-0.0011,-0.0091,-0.0657,-0.024,-0.0107,-0.0107,-0.0171,-0.023,-0.0374,-0.0368,-0.0384,-0.032,-0.0128,0.0011,0.0166,0.0288,0.031,0.0267,0.024,0.0203,0.0085,-0.0107,-0.0112,-0.0075,-0.0117,-0.0107,0.0,0.0069,0.0107,0.1356,0.0678,0.0982,0,0,0.2093,0.1709,0.1068,0.1185,0.1148,0.0619,0.2776,0,0,0,0,0,0,0,0,-0.0993,-0.0315,-0.0117,-0.0101,-0.0166,-0.0235,-0.0737,-0.04,-0.0342,-0.0283,-0.0203,-0.0246,-0.0069,0.0123,0.023,0.0219,0.0144,0.0075,0.0101,-0.0005,-0.0053,0.0027,0.0048,-0.0075,-0.0101,0.0166,0.0331,0.0886,0.0187,-0.0096,-0.055,-0.0128,0.212,0.1271,0,0,0,0.1361,0.229,0.0246,-0.0096,-0.023,-0.0235,-0.0085,-0.0048,-0.0064,0,0,0,0,0,0,0,-0.0529,-0.0214,-0.0256,-0.0214,-0.0224,-0.0747,-0.0368,-0.0037,0.0192,0.0224,0.0075,-0.0144,-0.0027,0.0011,0.0032,0.0107,0.0155,0.0101,0.0037,0.0192,0.0085,0.0625,0.0278,-0.0406,-0.1062,-0.0262,0.1052,0.0689,0.0,0.0,-0.0064,0.1468,0.181,0.0603,-0.0198,-0.0518,-0.0315,-0.0149,-0.0208,-0.0128,0,0,0,0,0,0,0,0,0,0,0,0,-0.1068,-0.0411,-0.0069,0.0448,0.0475,0.0075,-0.0582,-0.024,-0.0053,0.0032,0.0112,0.0171,0.016,0.0011,0,-0.0278,0.0379,0.0283,-0.0069,-0.0731,0,0,0,0,0,0.0219,0.1511,0.1586,0.0699,-0.0251,-0.0742,-0.0326,-0.0128,-0.0251,0,0,0,0,0,0,0,0,0,0,0,0,0,0,0,0,0.0133,0.0747,0,0,-0.0352,-0.0096,0.0,0.0085,0.0149,0.0155,-0.0091,0,0,0,0.0315,0.0016,-0.0432,0,0,0,0,0,0.0507,0.1559,0.1762,0.0609,-0.0667,-0.0934,-0.0774,-0.0128,0,0,0,0,0,0,0,0,0,0,0,0,0,0,0,0,0,0,0.0747,0.0294,0,0,0,0,0,0,0,-0.0171,0,0,0,0,0,0,0,0,0,0,0,0.0304,0.1522,0.1879,0.0032,-0.1757,-0.158,-0.1052,0,0,0,0,0,0,0,0,0,0,0,0,0,0,0,0,0,0,0,0,0.0593,-0.032,-0.0123,0.0043,0,0,0,0,0,0,0,0,0,0,0,0,0,0,0,0,0.0796,0.1249,0.1559,-0.0555,-0.2568,-0.1943,0,0,0,0,0,0,0,0,0,0,0,0,0,0,0,0,0,0,0,0,0,0,-0.0641,-0.024,0.0085,0.0,0.0005,-0.0027,0,0,0,0,0,0,0,0,0,0,0,0,0,0,0.0993,0.1426,-0.024,-0.2376,-0.1404,0,0,0,0,0,0,0,0,0,0,0,0,0,0,0,0,0,0,0,0,0,0,0,0,0,0,0.0011,-0.0053,0,0,0,0,0,0,0,0,0,0,0,0,0,0,0.0416,0.1746,0.0219,-0.1949,-0.1068,0,0,0,0,0,0,0,0,0,0,0,0,0,0,0,0,0,0,0,0,0,0,0,0,0,0,0,0,0,0,0,0,0,0,0,0,0,0,0,0,0,0,0.0459,0.1666,-0.0139,-0.1735,-0.0956,0,0,0,0,0,0,0,0,0,0,0,0,0,0,0,0,0,0,0,0,0,0,0,0,0,0,0,0,0,0,0,0,0,0,0,0,0,0,0,0,0,0,0.1078,0.1821,-0.0422,-0.142,-0.0886,0,0,0,0,0,0,0,0,0,0,0,0,0,0,0,0,0,0,0,0,0,0,0,0,0,0,0,0,0,0,0,0,0,0,0,0,0,0,0,0,0,0,0,0.0657,-0.0571,-0.0934,-0.0593,0,0,0,0,0,0,0,0,0,0,0,0,0,0,0,0,0,0,0,0,0,0,0,0,0,0,0,0,0,0,0,0,0,0,0,0,0,0,0,0,0,0,0,-0.0844,-0.0699,-0.0507,-0.0352,0,0,0,0,0,0,0,0,0,0,0,0,0,0,0,0,0,0,0,0,0,0,0,0,0,0,0,0,0,0,0,0,0,0,0,0,0,0,0,0,0,0,0,0,-0.0646,-0.0432,0,0,0,0,0,0,0,0,0,0,0,0,0,0,0,0,0,0,0,0,0,0,0,0,0,0,0,0,0,0,0,0,0,0,0,0,0,0,0,0,0,0,0,0,0,0,0,0,0,0,0,0,0,0,0,0,0,0,0,0,0,0,0,0,0,0,0,0,0,0,0,0,0,0,0,0,0,0,0,0,0,0,0,0,0,0,0,0,0,0,0,0,0,0,0,0,0,0,0,0,0,0,0,0,0,0,0,0,0,0,0,0,0,0,0,0,0,0,0,0,0,0,0,0,0,0,0,0,0,0,0,0,0,0,0,0,0,0,0,0,0,0,0,0,0,0,0,0,0,0,0,0,0,0,0,0,0,0,0,0,0,0,0,0,0,0,0,0,0,0,0,0,0,0,0,0,0,0,0,0,0,0,0,0,0,0,0,0,0,0,0,0,0,0,0,0,0,0,0,0,0,0,0,0,0,0,0,0,0,0,0,0,0,0,0,0,0,0,0,0,0,0,0,0,0,0,0,0,0,0,0,0,0,0,0,0,0,0,0,0,0,0,0,0,0,0,0,0,0,0,0,0,0,0,0,0,0,0,0,0,0,0,0,0,0,0,0,0,0,0,0,0,0,0,0,0,0,0,0,0,0,0,0,0,0,0,0,0,0,0,0,0,0,0,0,0,0,0,0,0,0,0,0,0,0,0,0,0,0,0,0,0,0]}]],[[{"header":{"parameterUnit":"kt","parameterCategory":2,"dx":1,"dy":1,"la1":29.764190673828125,"la2":30.86408042907715,"lo1":-88.46762084960938,"lo2":-86.9344482421875,"nx":47,"ny":34,"refTime":"2022-10-08T00:00:00:Z","depth":"8","parameterNumber":2,"parameterNumberName":"U-component_of_CURRENTS"},"data":[-0.0806,-0.0432,-0.0214,-0.0011,0.0251,0.0358,0.0048,-0.0769,-0.1393,-0.15,-0.1634,-0.1933,-0.2216,-0.2381,-0.2317,-0.2007,-0.1741,-0.166,-0.1676,-0.1719,-0.1853,-0.2184,-0.2557,-0.2659,-0.2643,-0.2691,-0.2525,-0.2162,-0.1596,-0.0876,-0.0956,-0.1356,-0.1191,-0.0993,-0.0715,-0.0299,0.0032,0.0347,0.0651,0.0908,0.1148,0.1361,0.141,0.1169,0.079,0.0475,0.0171,-0.15,-0.1345,-0.095,-0.0774,-0.0694,-0.086,-0.1308,-0.1671,-0.1698,-0.1682,-0.1874,-0.2104,-0.2248,-0.2253,-0.2002,-0.1692,-0.1564,-0.1516,-0.1463,-0.15,-0.1735,-0.2077,-0.2477,-0.268,-0.2766,-0.2953,-0.2974,-0.2915,-0.2627,-0.1954,-0.1196,-0.1153,-0.1431,-0.1249,-0.1062,-0.0876,-0.0609,-0.0246,0.0149,0.0454,0.0646,0.0705,0.0582,0.0374,0.0198,0.0043,-0.0171,-0.1532,-0.2007,-0.2194,-0.2173,-0.2152,-0.2141,-0.2093,-0.1922,-0.1762,-0.1826,-0.2013,-0.2141,-0.2136,-0.1959,-0.1703,-0.1543,-0.1522,-0.1543,-0.1468,-0.1329,-0.1329,-0.1618,-0.205,-0.2328,-0.2563,-0.2872,-0.3054,-0.3043,-0.2995,-0.2792,-0.2237,-0.1351,-0.11,-0.1292,-0.1164,-0.0924,-0.0609,-0.0294,-0.0011,0.0192,0.0267,0.0219,0.0107,0.0048,0.0053,0.0059,-0.0005,-0.1292,-0.1676,-0.2018,-0.2173,-0.2194,-0.2082,-0.1885,-0.1767,-0.1853,-0.2024,-0.2088,-0.2013,-0.1826,-0.1618,-0.1516,-0.1527,-0.157,-0.1607,-0.1527,-0.134,-0.1223,-0.1249,-0.1468,-0.1805,-0.2088,-0.2333,-0.2638,-0.2883,-0.3049,-0.315,-0.2974,-0.2408,-0.1468,-0.0726,-0.0854,-0.086,-0.0518,-0.0283,0.0096,0.0347,0.0368,0.0294,0.0203,0.0171,0.0208,0.0256,0.0235,-0.1175,-0.1377,-0.1602,-0.1869,-0.2072,-0.213,-0.2157,-0.22,-0.2194,-0.2093,-0.1895,-0.1666,-0.1484,-0.1479,-0.1575,-0.1644,-0.1687,-0.1687,-0.1575,-0.134,-0.1185,-0.1212,-0.1335,-0.1463,-0.157,-0.1623,-0.1933,-0.2472,-0.2883,-0.3006,-0.291,-0.2755,-0.2371,-0.1612,-0.0523,-0.0144,-0.0459,-0.031,0.0048,0.0331,0.0545,0.0582,0.0491,0.0411,0.0411,0.0443,0.0454,-0.103,-0.1164,-0.1313,-0.1452,-0.1586,-0.1703,-0.1783,-0.1783,-0.1714,-0.1602,-0.15,-0.1468,-0.1543,-0.1682,-0.1767,-0.1789,-0.1794,-0.1751,-0.1634,-0.1447,-0.1276,-0.1207,-0.1255,-0.1356,-0.1372,-0.126,-0.118,-0.1447,-0.1858,-0.1965,-0.1895,-0.2013,-0.2232,-0.2093,-0.1543,-0.0694,0.0149,0.0347,0.0149,0.0246,0.0464,0.0582,0.0609,0.0598,0.0614,0.0662,0.0689,-0.1036,-0.1041,-0.1078,-0.1143,-0.1207,-0.1249,-0.1287,-0.134,-0.1426,-0.1532,-0.1655,-0.1767,-0.1847,-0.1901,-0.1917,-0.1895,-0.1853,-0.1799,-0.1719,-0.1618,-0.1522,-0.1442,-0.1361,-0.126,-0.1137,-0.1004,-0.086,-0.0801,-0.0876,-0.0956,-0.0988,-0.1078,-0.1308,-0.1612,-0.1735,-0.141,-0.086,-0.0053,0.0635,0.0774,0.0667,0.0619,0.0689,0.0774,0.0865,0.0956,0.1036,-0.1345,-0.134,-0.1329,-0.1319,-0.1329,-0.1367,-0.1436,-0.1548,-0.1682,-0.1815,-0.1922,-0.1986,-0.2018,-0.2029,-0.2007,-0.1965,-0.1911,-0.1858,-0.1799,-0.173,-0.166,-0.1586,-0.1495,-0.1399,-0.1308,-0.1196,-0.102,-0.0833,-0.0753,-0.079,-0.0833,-0.087,-0.0956,-0.1121,-0.1345,-0.1458,-0.1276,-0.0865,-0.0347,0.0358,0.0966,0.1191,0.1191,0.1217,0.1324,0.1426,0.1516,-0.158,-0.1554,-0.1543,-0.1538,-0.1543,-0.157,-0.1639,-0.1741,-0.1853,-0.1949,-0.2029,-0.2072,-0.2088,-0.2088,-0.2061,-0.2024,-0.197,-0.1911,-0.1842,-0.1751,-0.1644,-0.157,-0.1538,-0.1538,-0.1506,-0.1431,-0.1303,-0.1143,-0.102,-0.0961,-0.0908,-0.0844,-0.0844,-0.095,-0.1105,-0.1249,-0.1281,-0.1143,-0.0774,-0.0384,-0.0021,0.0523,0.103,0.1522,0.1687,0.157,0.1612,-0.1655,-0.1623,-0.1586,-0.1554,-0.1543,-0.1559,-0.1628,-0.1746,-0.1879,-0.1991,-0.2077,-0.213,-0.2141,-0.2125,-0.2088,-0.204,-0.1981,-0.1911,-0.1821,-0.1719,-0.1644,-0.1618,-0.1634,-0.165,-0.1623,-0.1532,-0.1388,-0.1228,-0.1084,-0.1009,-0.0982,-0.0913,-0.0822,-0.0806,-0.0908,-0.1095,-0.1292,-0.1399,-0.1399,-0.1212,-0.071,-0.0331,-0.023,0.0374,0.11,0.141,0.158,-0.1757,-0.1741,-0.1666,-0.1548,-0.1447,-0.1388,-0.141,-0.1548,-0.173,-0.1906,-0.2072,-0.2184,-0.2216,-0.2173,-0.2104,-0.2024,-0.1943,-0.1869,-0.1794,-0.1735,-0.1698,-0.1698,-0.1698,-0.1671,-0.1602,-0.149,-0.1345,-0.1196,-0.1073,-0.1009,-0.0966,-0.0902,-0.0812,-0.0737,-0.0726,-0.0822,-0.1025,-0.1201,-0.1345,-0.1543,-0.1644,-0.1495,-0.0945,-0.0448,-0.0278,0.0187,0.0934,-0.1805,-0.1831,-0.1831,-0.1757,-0.1618,-0.1479,-0.1436,-0.1479,-0.1628,-0.1842,-0.2061,-0.2264,-0.2306,-0.2216,-0.2098,-0.197,-0.1885,-0.1831,-0.1789,-0.1757,-0.1746,-0.1746,-0.1725,-0.1671,-0.1586,-0.1452,-0.1292,-0.1137,-0.1025,-0.0945,-0.0892,-0.0838,-0.079,-0.0753,-0.0726,-0.0715,-0.0747,-0.0881,-0.11,-0.1281,-0.1399,-0.1436,-0.1426,-0.1351,-0.0817,0.0123,0.063,-0.1709,-0.1783,-0.1858,-0.1986,-0.1922,-0.1805,-0.1751,-0.1799,-0.1815,-0.1741,-0.1874,-0.2258,-0.2371,-0.2066,-0.1949,-0.1826,-0.1789,-0.1773,-0.1757,-0.1735,-0.1725,-0.1725,-0.1671,-0.1591,-0.1543,-0.1474,-0.1372,-0.1249,-0.1132,-0.102,-0.0918,-0.0844,-0.0817,-0.0828,-0.0822,-0.0796,-0.0763,-0.0747,-0.0774,-0.0881,-0.1009,-0.1089,-0.1143,-0.1169,-0.11,-0.1073,-0.1185,0,0,-0.0673,-0.15,-0.1596,-0.1623,-0.1516,-0.1068,-0.11,-0.0838,-0.0294,0.0037,0,-0.103,-0.1922,-0.173,-0.1682,-0.1709,-0.1671,-0.1639,-0.1612,-0.1623,-0.1452,-0.1287,-0.1329,-0.1372,-0.1372,-0.1361,-0.1308,-0.1255,-0.1239,-0.1223,-0.1212,-0.118,-0.1121,-0.1025,-0.0908,-0.0806,-0.0721,-0.0641,-0.0619,-0.0731,-0.0924,-0.118,-0.1602,-0.2136,-0.2536,-0.1602,-0.1826,-0.1356,-0.039,-0.0005,0,0,-0.0587,-0.134,-0.094,0.0251,0.1335,0.0726,-0.0342,0,0,0,0,0,0,0,0,-0.0315,-0.0801,-0.1052,-0.1169,-0.1255,-0.1383,-0.1329,-0.1297,-0.1458,-0.1596,-0.1714,-0.1692,-0.1532,-0.1319,-0.1132,-0.0988,-0.0854,-0.071,-0.0625,-0.0667,-0.0785,-0.0929,-0.1095,-0.1351,-0.1757,-0.1671,-0.1789,-0.1666,-0.1281,-0.0646,-0.0251,-0.0801,-0.0635,0.0053,0,0,0,-0.0021,0.0715,0.1335,0.1196,0.1153,0.0817,0.0395,0.0219,0.0171,0,0,0,0,0,0,0,-0.0331,-0.0881,-0.1212,-0.1303,-0.1436,-0.1479,-0.1377,-0.1393,-0.1351,-0.1228,-0.1159,-0.1084,-0.095,-0.0844,-0.0822,-0.0838,-0.0876,-0.0993,-0.1191,-0.1447,-0.1111,-0.0662,-0.0299,-0.0246,-0.0497,-0.047,0.0107,0.1025,0.1468,0.1249,0.0523,-0.0101,0.0561,0.1228,0.1255,0.1233,0.0726,0.0219,0.0208,0.0278,0,0,0,0,0,0,0,0,0,0,0,0,-0.0352,-0.0742,-0.0881,-0.102,-0.1196,-0.1767,-0.1474,-0.1207,-0.1089,-0.1009,-0.0913,-0.0828,-0.0806,-0.087,0,0.0069,0.0368,0.0603,0.0603,0.0598,0,0,0,0,0,-0.0384,-0.0144,0.0881,0.1228,0.1292,0.0993,0.0481,0.0342,0.0288,0,0,0,0,0,0,0,0,0,0,0,0,0,0,0,0,0.0347,-0.0224,0,0,-0.0892,-0.1046,-0.0988,-0.0886,-0.0747,-0.0598,-0.0454,0,0,0,0.0246,0.0518,0.0539,0,0,0,0,0,-0.0432,0.0091,0.1159,0.1137,0.094,0.024,0.0208,0.0587,0,0,0,0,0,0,0,0,0,0,0,0,0,0,0,0,0,0,0.1137,0.1564,0,0,0,0,0,0,0,-0.0032,0,0,0,0,0,0,0,0,0,0,0,-0.0304,0.031,0.1196,0.1084,0.079,0.024,-0.0096,0,0,0,0,0,0,0,0,0,0,0,0,0,0,0,0,0,0,0,0,0.1041,0.1682,0.1084,0.0876,0,0,0,0,0,0,0,0,0,0,0,0,0,0,0,0,0.0064,0.0646,0.1153,0.1143,0.0785,0.0432,0,0,0,0,0,0,0,0,0,0,0,0,0,0,0,0,0,0,0,0,0,0,0.0838,0.1356,0.1233,0.1175,0.0614,0.0315,0,0,0,0,0,0,0,0,0,0,0,0,0,0,0.0609,0.0972,0.1164,0.0683,0.0246,0,0,0,0,0,0,0,0,0,0,0,0,0,0,0,0,0,0,0,0,0,0,0,0,0,0,0.0091,0.0176,0,0,0,0,0,0,0,0,0,0,0,0,0,0,0.0128,0.0737,0.1137,0.0651,0.0251,0,0,0,0,0,0,0,0,0,0,0,0,0,0,0,0,0,0,0,0,0,0,0,0,0,0,0,0,0,0,0,0,0,0,0,0,0,0,0,0,0,0,0.0091,0.0876,0.1292,0.0582,0.0155,0,0,0,0,0,0,0,0,0,0,0,0,0,0,0,0,0,0,0,0,0,0,0,0,0,0,0,0,0,0,0,0,0,0,0,0,0,0,0,0,0,0,0.0203,0.0998,0.1212,0.0299,-0.0219,0,0,0,0,0,0,0,0,0,0,0,0,0,0,0,0,0,0,0,0,0,0,0,0,0,0,0,0,0,0,0,0,0,0,0,0,0,0,0,0,0,0,0,0.0352,0.0571,-0.0059,-0.0555,0,0,0,0,0,0,0,0,0,0,0,0,0,0,0,0,0,0,0,0,0,0,0,0,0,0,0,0,0,0,0,0,0,0,0,0,0,0,0,0,0,0,0,0.0112,-0.0342,-0.0796,-0.0673,0,0,0,0,0,0,0,0,0,0,0,0,0,0,0,0,0,0,0,0,0,0,0,0,0,0,0,0,0,0,0,0,0,0,0,0,0,0,0,0,0,0,0,0,-0.0336,-0.0667,0,0,0,0,0,0,0,0,0,0,0,0,0,0,0,0,0,0,0,0,0,0,0,0,0,0,0,0,0,0,0,0,0,0,0,0,0,0,0,0,0,0,0,0,0,0,0,0,0,0,0,0,0,0,0,0,0,0,0,0,0,0,0,0,0,0,0,0,0,0,0,0,0,0,0,0,0,0,0,0,0,0,0,0,0,0,0,0,0,0,0,0,0,0,0,0,0,0,0,0,0,0,0,0,0,0,0,0,0,0,0,0,0,0,0,0,0,0,0,0,0,0,0,0,0,0,0,0,0,0,0,0,0,0,0,0,0,0,0,0,0,0,0,0,0,0,0,0,0,0,0,0,0,0,0,0,0,0,0,0,0,0,0,0,0,0,0,0,0,0,0,0,0,0,0,0,0,0,0,0,0,0,0,0,0,0,0,0,0,0,0,0,0,0,0,0,0,0,0,0,0,0,0,0,0,0,0,0,0,0,0,0,0,0,0,0,0,0,0,0,0,0,0,0,0,0,0,0,0,0,0,0,0,0,0,0,0,0,0,0,0,0,0,0,0,0,0,0,0,0,0,0,0,0,0,0,0,0,0,0,0,0,0,0,0,0,0,0,0,0,0,0,0,0,0,0,0,0,0,0,0,0,0,0,0,0,0,0,0,0,0,0,0,0,0,0,0,0,0,0,0,0,0,0,0,0,0,0,0,0,0,0,0]}],[{"header":{"parameterUnit":"kt","parameterCategory":2,"dx":1,"dy":1,"la1":29.764190673828125,"la2":30.86408042907715,"lo1":-88.46762084960938,"lo2":-86.9344482421875,"nx":47,"ny":34,"refTime":"2022-10-08T00:00:00:Z","depth":"8","parameterNumber":3,"parameterNumberName":"V-component_of_CURRENTS"},"data":[-0.0085,0.0203,0.0577,0.1148,0.1532,0.1628,0.1436,0.1511,0.1676,0.1591,0.1452,0.1452,0.1554,0.166,0.15,0.1271,0.1217,0.102,0.0673,0.0475,0.0673,0.0737,0.0358,-0.0331,-0.079,-0.0657,0.0481,0.1623,0.1783,0.1244,0.1041,0.1532,0.2157,0.2851,0.3396,0.3716,0.3983,0.4191,0.4383,0.4485,0.4613,0.4656,0.4512,0.425,0.3988,0.3791,0.355,-0.0459,0.0246,0.0678,0.1105,0.1468,0.1741,0.1874,0.1805,0.1703,0.1516,0.1543,0.1623,0.1741,0.165,0.1175,0.1041,0.118,0.1164,0.0822,0.0481,0.0726,0.1073,0.0715,-0.0043,-0.0635,-0.1089,-0.0545,0.0502,0.1228,0.1676,0.141,0.1329,0.1789,0.228,0.2803,0.3209,0.3625,0.3967,0.4197,0.4277,0.4309,0.4186,0.3903,0.3465,0.3054,0.2696,0.2472,-0.0667,-0.0155,0.0422,0.0892,0.1329,0.166,0.1821,0.166,0.1511,0.1474,0.1612,0.1746,0.1757,0.1377,0.0918,0.0982,0.118,0.1276,0.1046,0.0667,0.0705,0.1335,0.1265,0.0619,-0.016,-0.0977,-0.1014,-0.047,0.0149,0.0822,0.1383,0.1474,0.1527,0.1863,0.2312,0.2563,0.2969,0.3251,0.3428,0.3508,0.3476,0.3353,0.3134,0.2739,0.229,0.1943,0.1842,-0.0422,-0.0299,0.0,0.0438,0.087,0.1132,0.1303,0.1356,0.1426,0.1538,0.1666,0.1719,0.1543,0.1068,0.0876,0.095,0.11,0.1223,0.1132,0.078,0.0646,0.118,0.1618,0.1415,0.0758,-0.0198,-0.0838,-0.0769,-0.0326,-0.0112,0.0262,0.0897,0.1361,0.1538,0.1666,0.2141,0.2397,0.2589,0.2776,0.2808,0.2766,0.2739,0.2702,0.2456,0.2077,0.1735,0.1628,-0.0107,-0.0021,0.0075,0.032,0.0598,0.079,0.0966,0.1137,0.1297,0.1415,0.1463,0.1404,0.1191,0.0956,0.0918,0.0908,0.0972,0.1057,0.102,0.079,0.0566,0.0763,0.1303,0.1602,0.1474,0.0844,0.0,-0.0475,-0.0395,-0.0443,-0.0561,-0.0331,0.0432,0.1036,0.1463,0.1607,0.1634,0.2082,0.2349,0.2403,0.2392,0.2403,0.2467,0.2387,0.2125,0.1805,0.1612,0.0198,0.0262,0.0331,0.0438,0.0571,0.071,0.0833,0.0929,0.0998,0.1062,0.1068,0.0998,0.0913,0.0886,0.0892,0.0844,0.0838,0.087,0.0844,0.071,0.0513,0.0491,0.0715,0.1036,0.1255,0.1212,0.071,0.0144,-0.0214,-0.0368,-0.0486,-0.063,-0.055,-0.0016,0.0892,0.1393,0.1548,0.1538,0.1623,0.1911,0.2072,0.2114,0.2184,0.2216,0.212,0.1922,0.1735,0.0422,0.0454,0.0529,0.0603,0.0662,0.0721,0.079,0.0844,0.087,0.0892,0.087,0.0817,0.0774,0.0785,0.0806,0.0763,0.0737,0.0731,0.0699,0.0619,0.0513,0.0481,0.0545,0.0689,0.0876,0.1025,0.0913,0.0593,0.0139,-0.0064,-0.0101,-0.0251,-0.0406,-0.0507,-0.0214,0.0726,0.1484,0.1639,0.1463,0.1511,0.1575,0.1671,0.1773,0.1863,0.1906,0.1863,0.1783,0.0342,0.0374,0.0464,0.0582,0.0673,0.0726,0.079,0.0865,0.0902,0.0908,0.086,0.0796,0.0737,0.0721,0.0726,0.0689,0.0662,0.0635,0.0598,0.0545,0.0481,0.0486,0.0577,0.071,0.0876,0.0988,0.0972,0.0742,0.0395,0.0187,0.0123,0.0037,-0.0091,-0.024,-0.0352,-0.0144,0.0625,0.1388,0.1564,0.1682,0.1516,0.1463,0.1458,0.1463,0.165,0.1725,0.1746,0.0128,0.0155,0.0235,0.0374,0.0518,0.0635,0.0742,0.086,0.095,0.0966,0.0908,0.0812,0.0721,0.0673,0.0657,0.0625,0.0603,0.0561,0.0507,0.0432,0.0352,0.0326,0.039,0.0529,0.0721,0.087,0.0913,0.0769,0.0513,0.0326,0.0251,0.0166,0.0075,-0.0027,-0.0155,-0.023,0.008,0.0545,0.0998,0.1367,0.149,0.1639,0.1575,0.1479,0.1458,0.1484,0.1554,0.0053,0.0053,0.0107,0.0235,0.0395,0.0577,0.0737,0.0902,0.102,0.1046,0.0972,0.0833,0.0694,0.0614,0.0571,0.0539,0.0529,0.0486,0.0411,0.0299,0.0203,0.0149,0.016,0.0246,0.039,0.0545,0.0646,0.0619,0.0491,0.0352,0.031,0.0251,0.0182,0.0112,0.0027,-0.0091,-0.0048,0.0251,0.0502,0.0721,0.0982,0.1148,0.1415,0.1799,0.1671,0.1516,0.1543,0.0016,-0.0011,0.0,0.0139,0.031,0.0518,0.0785,0.1009,0.1148,0.1191,0.1111,0.0902,0.0667,0.0539,0.0448,0.039,0.0406,0.0384,0.031,0.0192,0.0107,0.0069,0.0069,0.0101,0.0149,0.023,0.0299,0.0326,0.0294,0.0224,0.0208,0.0214,0.0203,0.0192,0.0182,0.0123,0.0027,0.008,0.0315,0.0523,0.0539,0.0518,0.0913,0.1212,0.1527,0.1837,0.2088,-0.0005,-0.0032,-0.0112,0.0043,0.0198,0.0448,0.0833,0.1143,0.1372,0.1415,0.1372,0.1105,0.0609,0.0464,0.0262,0.0198,0.0246,0.0267,0.0224,0.0128,0.0048,0.0,-0.0021,0.0005,0.0016,0.0011,0.0005,0.0016,0.0021,0.0005,0.0016,0.0043,0.0112,0.0187,0.0251,0.0272,0.0198,0.0123,0.024,0.0315,0.0203,0.0251,0.0459,0.039,0.0817,0.1292,0.1447,-0.0011,0.0,-0.0363,0.024,0.0347,0.0304,0.0694,0.1249,0.1559,0.1639,0.1778,0.165,0.0571,0.0406,0.0144,0.0043,0.0101,0.0149,0.0139,0.0075,-0.0005,-0.0069,-0.0203,-0.0112,-0.0075,-0.0096,-0.0144,-0.0176,-0.0208,-0.0219,-0.0214,-0.0166,-0.0027,0.0112,0.0235,0.0315,0.0294,0.024,0.023,0.0224,0.0064,-0.0085,-0.0005,0.0043,0.0123,0.0214,0.0214,0,0,0.0379,0.0721,0.0731,0.0101,0.0539,0.1041,0.141,0.1329,0.1484,0.1479,0,0.1607,0.0123,-0.0021,0.0048,0.0091,0.0091,0.0043,-0.0027,-0.0112,-0.0641,-0.0251,-0.0117,-0.0112,-0.0171,-0.023,-0.0363,-0.0358,-0.0368,-0.0299,-0.0123,0.0011,0.0149,0.0262,0.0283,0.0246,0.0214,0.0176,0.0059,-0.0128,-0.0149,-0.0117,-0.0192,-0.0235,-0.016,0.0064,0.0091,0.0972,0.0443,0.1399,0,0,0.1383,0.1404,0.0993,0.1062,0.0998,0.055,0.26,0,0,0,0,0,0,0,0,-0.0956,-0.032,-0.0123,-0.0107,-0.0171,-0.0235,-0.0715,-0.0384,-0.032,-0.0262,-0.0171,-0.0192,-0.0059,0.0117,0.0208,0.0192,0.0101,0.0037,0.0075,-0.0016,-0.0059,0.0016,0.0037,-0.0096,-0.0155,0.0144,0.0283,0.0635,-0.0096,0.0352,-0.0609,-0.0384,0.126,0.1009,0,0,0,0.1089,0.1692,-0.0091,-0.0246,-0.0368,-0.0278,-0.0096,-0.0069,-0.0075,0,0,0,0,0,0,0,-0.0529,-0.0235,-0.024,-0.0187,-0.0155,-0.0646,-0.0278,0.0011,0.0187,0.0208,0.0043,-0.016,-0.0043,0.0,0.0032,0.0107,0.0155,0.0096,0.0005,0.0166,0.0043,0.0481,-0.0027,-0.0892,-0.1185,-0.0774,0.0497,0.055,0.0,0.0,0.0219,0.0801,0.0817,-0.0112,-0.0448,-0.071,-0.071,-0.0171,-0.024,-0.0144,0,0,0,0,0,0,0,0,0,0,0,0,-0.0993,-0.0331,0.0032,0.0646,0.0609,0.0027,-0.0566,-0.0246,-0.0069,0.0016,0.0101,0.016,0.0155,0.0005,0,-0.0304,0.0304,0.016,-0.0358,-0.0796,0,0,0,0,0,0.0352,0.0379,0.0411,-0.0016,-0.0342,-0.0577,-0.0849,-0.0155,-0.0267,0,0,0,0,0,0,0,0,0,0,0,0,0,0,0,0,0.0619,0.0998,0,0,-0.0352,-0.0123,-0.0032,0.0059,0.0128,0.0144,-0.0112,0,0,0,0.0283,-0.0021,-0.0438,0,0,0,0,0,0.0304,0.0384,0.0144,-0.0117,-0.0267,-0.0085,-0.0256,-0.016,0,0,0,0,0,0,0,0,0,0,0,0,0,0,0,0,0,0,0.0993,0.0796,0,0,0,0,0,0,0,-0.023,0,0,0,0,0,0,0,0,0,0,0,0.0566,0.0619,-0.0128,-0.0368,-0.0363,0.0176,0.0326,0,0,0,0,0,0,0,0,0,0,0,0,0,0,0,0,0,0,0,0,0.1596,0.0037,0.0005,0.0091,0,0,0,0,0,0,0,0,0,0,0,0,0,0,0,0,0.0694,0.0769,-0.0278,-0.0545,-0.0646,-0.0048,0,0,0,0,0,0,0,0,0,0,0,0,0,0,0,0,0,0,0,0,0,0,0.0075,0.0011,0.0182,0.0,0.0,-0.0032,0,0,0,0,0,0,0,0,0,0,0,0,0,0,0.0972,0.0027,-0.0529,-0.0763,-0.0176,0,0,0,0,0,0,0,0,0,0,0,0,0,0,0,0,0,0,0,0,0,0,0,0,0,0,-0.0005,-0.0064,0,0,0,0,0,0,0,0,0,0,0,0,0,0,0.11,0.0529,-0.0352,-0.0561,-0.0069,0,0,0,0,0,0,0,0,0,0,0,0,0,0,0,0,0,0,0,0,0,0,0,0,0,0,0,0,0,0,0,0,0,0,0,0,0,0,0,0,0,0,0.0838,0.0945,-0.0203,-0.0368,0.0155,0,0,0,0,0,0,0,0,0,0,0,0,0,0,0,0,0,0,0,0,0,0,0,0,0,0,0,0,0,0,0,0,0,0,0,0,0,0,0,0,0,0,0.0625,0.1121,-0.0048,-0.0262,0.023,0,0,0,0,0,0,0,0,0,0,0,0,0,0,0,0,0,0,0,0,0,0,0,0,0,0,0,0,0,0,0,0,0,0,0,0,0,0,0,0,0,0,0,0.0651,0.0304,-0.0069,0.0149,0,0,0,0,0,0,0,0,0,0,0,0,0,0,0,0,0,0,0,0,0,0,0,0,0,0,0,0,0,0,0,0,0,0,0,0,0,0,0,0,0,0,0,0.016,-0.0048,-0.0005,0.0069,0,0,0,0,0,0,0,0,0,0,0,0,0,0,0,0,0,0,0,0,0,0,0,0,0,0,0,0,0,0,0,0,0,0,0,0,0,0,0,0,0,0,0,0,-0.063,-0.0064,0,0,0,0,0,0,0,0,0,0,0,0,0,0,0,0,0,0,0,0,0,0,0,0,0,0,0,0,0,0,0,0,0,0,0,0,0,0,0,0,0,0,0,0,0,0,0,0,0,0,0,0,0,0,0,0,0,0,0,0,0,0,0,0,0,0,0,0,0,0,0,0,0,0,0,0,0,0,0,0,0,0,0,0,0,0,0,0,0,0,0,0,0,0,0,0,0,0,0,0,0,0,0,0,0,0,0,0,0,0,0,0,0,0,0,0,0,0,0,0,0,0,0,0,0,0,0,0,0,0,0,0,0,0,0,0,0,0,0,0,0,0,0,0,0,0,0,0,0,0,0,0,0,0,0,0,0,0,0,0,0,0,0,0,0,0,0,0,0,0,0,0,0,0,0,0,0,0,0,0,0,0,0,0,0,0,0,0,0,0,0,0,0,0,0,0,0,0,0,0,0,0,0,0,0,0,0,0,0,0,0,0,0,0,0,0,0,0,0,0,0,0,0,0,0,0,0,0,0,0,0,0,0,0,0,0,0,0,0,0,0,0,0,0,0,0,0,0,0,0,0,0,0,0,0,0,0,0,0,0,0,0,0,0,0,0,0,0,0,0,0,0,0,0,0,0,0,0,0,0,0,0,0,0,0,0,0,0,0,0,0,0,0,0,0,0,0,0,0,0,0,0,0,0,0,0,0,0,0,0,0,0,0]}]],[[{"header":{"parameterUnit":"kt","parameterCategory":2,"dx":1,"dy":1,"la1":29.764190673828125,"la2":30.86408042907715,"lo1":-88.46762084960938,"lo2":-86.9344482421875,"nx":47,"ny":34,"refTime":"2022-10-08T00:00:00:Z","depth":"10","parameterNumber":2,"parameterNumberName":"U-component_of_CURRENTS"},"data":[-0.0614,-0.0246,-0.0037,0.0149,0.04,0.0507,0.0198,-0.0587,-0.118,-0.1303,-0.1442,-0.1735,-0.2013,-0.2168,-0.2093,-0.1799,-0.1559,-0.1506,-0.1554,-0.1623,-0.1757,-0.2077,-0.2445,-0.2568,-0.2568,-0.2589,-0.2365,-0.197,-0.1399,-0.0662,-0.0715,-0.1121,-0.0961,-0.078,-0.0513,-0.0101,0.0224,0.0529,0.0822,0.1068,0.1297,0.1495,0.1516,0.126,0.0897,0.0609,0.032,-0.1313,-0.1153,-0.0769,-0.0603,-0.0534,-0.0694,-0.1116,-0.1458,-0.1479,-0.1468,-0.1655,-0.1885,-0.2029,-0.2029,-0.1789,-0.15,-0.1388,-0.1356,-0.1329,-0.1404,-0.1634,-0.1943,-0.2333,-0.2557,-0.268,-0.2878,-0.2878,-0.2766,-0.2435,-0.1757,-0.0982,-0.0929,-0.1212,-0.1046,-0.0865,-0.0694,-0.0438,-0.0085,0.0294,0.0582,0.0758,0.0812,0.0694,0.0497,0.0331,0.0187,-0.0011,-0.1393,-0.1831,-0.2002,-0.1981,-0.1965,-0.1938,-0.1869,-0.1692,-0.1538,-0.1607,-0.1783,-0.1917,-0.1906,-0.1735,-0.1495,-0.1361,-0.1335,-0.1356,-0.1319,-0.1233,-0.1239,-0.1474,-0.1869,-0.2162,-0.2429,-0.2776,-0.2974,-0.2947,-0.2862,-0.2632,-0.205,-0.1148,-0.0892,-0.1105,-0.0993,-0.0758,-0.0448,-0.0144,0.0117,0.0304,0.0374,0.0331,0.0235,0.0192,0.0198,0.0208,0.0155,-0.118,-0.1538,-0.1858,-0.2007,-0.2013,-0.1885,-0.1671,-0.1548,-0.1628,-0.1794,-0.1863,-0.1789,-0.1607,-0.1404,-0.1319,-0.134,-0.1377,-0.141,-0.1356,-0.1228,-0.1137,-0.1121,-0.1276,-0.1591,-0.1906,-0.221,-0.2552,-0.2808,-0.2958,-0.3038,-0.2835,-0.2242,-0.1287,-0.0545,-0.0689,-0.0699,-0.0374,-0.016,0.0208,0.0448,0.0475,0.0416,0.0347,0.0326,0.0358,0.0395,0.0379,-0.1046,-0.1244,-0.1458,-0.1703,-0.189,-0.1943,-0.1959,-0.1991,-0.1975,-0.1874,-0.1682,-0.1458,-0.1281,-0.1265,-0.1361,-0.1442,-0.1484,-0.149,-0.1404,-0.1228,-0.11,-0.11,-0.1159,-0.1244,-0.1361,-0.1479,-0.1837,-0.2381,-0.2776,-0.2888,-0.2792,-0.2643,-0.2226,-0.1452,-0.0352,0.0027,-0.0304,-0.0171,0.0171,0.0432,0.0646,0.0699,0.063,0.0571,0.0566,0.0582,0.0593,-0.0865,-0.1004,-0.1153,-0.1292,-0.142,-0.1527,-0.1602,-0.1602,-0.1527,-0.141,-0.1303,-0.1265,-0.1329,-0.1452,-0.1543,-0.158,-0.1596,-0.157,-0.1474,-0.1319,-0.1185,-0.1111,-0.1121,-0.1175,-0.118,-0.11,-0.1062,-0.1345,-0.1746,-0.1853,-0.1789,-0.1922,-0.2136,-0.1975,-0.1393,-0.0523,0.0326,0.0502,0.0278,0.0358,0.0561,0.0683,0.0737,0.0742,0.0763,0.0801,0.0828,-0.0838,-0.087,-0.0908,-0.0972,-0.1036,-0.1078,-0.1116,-0.1164,-0.1239,-0.134,-0.1447,-0.1554,-0.1634,-0.1687,-0.1709,-0.1703,-0.1676,-0.1634,-0.157,-0.149,-0.141,-0.1329,-0.1233,-0.1116,-0.0977,-0.0849,-0.0726,-0.0689,-0.078,-0.0865,-0.0908,-0.1014,-0.1255,-0.1564,-0.1655,-0.1281,-0.0694,0.0112,0.0796,0.0918,0.079,0.0731,0.0806,0.0902,0.0998,0.1089,0.1169,-0.1121,-0.1148,-0.1148,-0.1143,-0.1153,-0.1185,-0.1249,-0.1345,-0.1468,-0.1596,-0.1703,-0.1783,-0.1831,-0.1847,-0.1831,-0.1799,-0.1757,-0.1714,-0.166,-0.1596,-0.1527,-0.1442,-0.1335,-0.1217,-0.1116,-0.1009,-0.0865,-0.0705,-0.0657,-0.071,-0.0769,-0.0822,-0.0918,-0.1095,-0.1308,-0.1393,-0.1169,-0.0731,-0.0198,0.0513,0.1111,0.1324,0.1308,0.1335,0.1447,0.1559,0.166,-0.1372,-0.1383,-0.1377,-0.1372,-0.1367,-0.1388,-0.1442,-0.1527,-0.1623,-0.173,-0.1821,-0.189,-0.1933,-0.1938,-0.1911,-0.1879,-0.1837,-0.1783,-0.1714,-0.1628,-0.1527,-0.1431,-0.1367,-0.1335,-0.1287,-0.1217,-0.1111,-0.0988,-0.0892,-0.0849,-0.0806,-0.0769,-0.0801,-0.0918,-0.1068,-0.1207,-0.1217,-0.1057,-0.0667,-0.0262,0.0107,0.0646,0.1143,0.1628,0.1799,0.1692,0.1746,-0.1506,-0.1506,-0.1479,-0.1442,-0.141,-0.1404,-0.1452,-0.1548,-0.1666,-0.1783,-0.189,-0.1965,-0.1997,-0.1986,-0.1949,-0.1906,-0.1858,-0.1794,-0.1714,-0.1623,-0.1543,-0.1495,-0.1474,-0.1452,-0.141,-0.1319,-0.1196,-0.1057,-0.094,-0.0876,-0.0854,-0.0806,-0.0747,-0.0763,-0.0876,-0.1062,-0.1239,-0.1319,-0.1292,-0.11,-0.0593,-0.0224,-0.0139,0.0448,0.118,0.1506,0.1698,-0.1623,-0.1634,-0.158,-0.1468,-0.1356,-0.1271,-0.1271,-0.1377,-0.1543,-0.1725,-0.1901,-0.2034,-0.2072,-0.204,-0.197,-0.1895,-0.1826,-0.1757,-0.1692,-0.1639,-0.1596,-0.1586,-0.157,-0.1527,-0.1436,-0.1313,-0.1175,-0.1036,-0.0924,-0.0865,-0.0833,-0.078,-0.0715,-0.0662,-0.0678,-0.079,-0.0982,-0.1143,-0.1249,-0.1415,-0.1511,-0.1367,-0.0833,-0.0347,-0.0171,0.0299,0.1062,-0.1628,-0.1671,-0.1719,-0.1682,-0.1548,-0.1383,-0.1297,-0.1345,-0.1506,-0.1703,-0.1895,-0.2088,-0.2152,-0.2077,-0.1965,-0.1842,-0.1762,-0.1709,-0.1671,-0.1644,-0.1634,-0.1628,-0.1602,-0.1554,-0.1468,-0.1329,-0.1164,-0.1009,-0.0897,-0.0822,-0.0769,-0.0726,-0.0683,-0.0657,-0.0651,-0.0667,-0.0715,-0.0844,-0.103,-0.1185,-0.1281,-0.1303,-0.1281,-0.1207,-0.0689,0.0251,0.0774,-0.1479,-0.1618,-0.1767,-0.1917,-0.1762,-0.1426,-0.1265,-0.1255,-0.1458,-0.1618,-0.1676,-0.1901,-0.2146,-0.1847,-0.1783,-0.1682,-0.165,-0.1623,-0.1591,-0.1575,-0.1575,-0.158,-0.1527,-0.1452,-0.1415,-0.1361,-0.1276,-0.1159,-0.1036,-0.0924,-0.0822,-0.0753,-0.0731,-0.0737,-0.0737,-0.0731,-0.0726,-0.0715,-0.0731,-0.0817,-0.0929,-0.1004,-0.1041,-0.1041,-0.0966,-0.0945,-0.1073,0,0,-0.0609,-0.1345,-0.1383,-0.1207,-0.0924,-0.0443,-0.0865,-0.0737,-0.0256,0.0048,0,-0.0929,-0.1709,-0.1506,-0.1495,-0.1506,-0.1468,-0.1452,-0.1415,-0.142,-0.1281,-0.1148,-0.118,-0.1217,-0.1255,-0.1255,-0.1212,-0.1153,-0.1148,-0.1159,-0.1169,-0.1143,-0.1068,-0.0972,-0.087,-0.0769,-0.0673,-0.0582,-0.0571,-0.0689,-0.087,-0.1111,-0.15,-0.1986,-0.2376,-0.1442,-0.1612,-0.1159,-0.0422,-0.024,0,0,-0.0416,-0.1068,-0.0822,0.0251,0.1255,0.0662,-0.0347,0,0,0,0,0,0,0,0,-0.0294,-0.0747,-0.0977,-0.1073,-0.1105,-0.1228,-0.1169,-0.1169,-0.1303,-0.1372,-0.1399,-0.1495,-0.1474,-0.1281,-0.1095,-0.094,-0.0796,-0.0641,-0.0561,-0.0614,-0.0742,-0.0886,-0.1041,-0.1265,-0.1618,-0.1506,-0.1586,-0.1393,-0.0747,0.0224,0.0571,-0.0336,-0.0513,0.0037,0,0,0,-0.0032,0.0667,0.126,0.103,0.0892,0.0694,0.0411,0.023,0.0176,0,0,0,0,0,0,0,-0.0304,-0.0806,-0.1068,-0.1116,-0.1249,-0.1313,-0.126,-0.1324,-0.1329,-0.1212,-0.1046,-0.0961,-0.0865,-0.078,-0.0769,-0.079,-0.0828,-0.0918,-0.1057,-0.1313,-0.102,-0.0598,0.0,0.0262,0.0,-0.0075,0.0224,0.0956,0.1372,0.118,0.0497,-0.0107,0.0529,0.1153,0.1014,0.0865,0.0561,0.023,0.0214,0.0283,0,0,0,0,0,0,0,0,0,0,0,0,-0.0326,-0.0683,-0.0817,-0.095,-0.0929,-0.1308,-0.1351,-0.1159,-0.1036,-0.0956,-0.087,-0.078,-0.0726,-0.0726,0,0.008,0.0379,0.0603,0.0587,0.0571,0,0,0,0,0,-0.0368,-0.0139,0.0849,0.1153,0.095,0.0566,0.0352,0.0336,0.0288,0,0,0,0,0,0,0,0,0,0,0,0,0,0,0,0,0.0331,-0.0224,0,0,-0.0828,-0.0993,-0.0934,-0.0828,-0.0673,-0.0486,-0.0315,0,0,0,0.0246,0.0518,0.0539,0,0,0,0,0,-0.0416,0.0085,0.1111,0.1078,0.0769,0.0096,0.0198,0.0577,0,0,0,0,0,0,0,0,0,0,0,0,0,0,0,0,0,0,0.1041,0.1415,0,0,0,0,0,0,0,-0.0005,0,0,0,0,0,0,0,0,0,0,0,-0.0262,0.0304,0.11,0.0961,0.0673,0.0198,-0.0112,0,0,0,0,0,0,0,0,0,0,0,0,0,0,0,0,0,0,0,0,0.0705,0.1287,0.1004,0.0849,0,0,0,0,0,0,0,0,0,0,0,0,0,0,0,0,-0.0112,0.039,0.1009,0.0934,0.0625,0.0411,0,0,0,0,0,0,0,0,0,0,0,0,0,0,0,0,0,0,0,0,0,0,0.0368,0.0849,0.1164,0.1127,0.0603,0.0326,0,0,0,0,0,0,0,0,0,0,0,0,0,0,0.0566,0.0913,0.1041,0.0587,0.0224,0,0,0,0,0,0,0,0,0,0,0,0,0,0,0,0,0,0,0,0,0,0,0,0,0,0,0.0091,0.0187,0,0,0,0,0,0,0,0,0,0,0,0,0,0,0.0032,0.0577,0.1041,0.0619,0.024,0,0,0,0,0,0,0,0,0,0,0,0,0,0,0,0,0,0,0,0,0,0,0,0,0,0,0,0,0,0,0,0,0,0,0,0,0,0,0,0,0,0,-0.0021,0.0497,0.0988,0.0539,0.0139,0,0,0,0,0,0,0,0,0,0,0,0,0,0,0,0,0,0,0,0,0,0,0,0,0,0,0,0,0,0,0,0,0,0,0,0,0,0,0,0,0,0,0.0176,0.0635,0.0844,0.0267,-0.023,0,0,0,0,0,0,0,0,0,0,0,0,0,0,0,0,0,0,0,0,0,0,0,0,0,0,0,0,0,0,0,0,0,0,0,0,0,0,0,0,0,0,0,0.0208,0.0422,-0.0064,-0.055,0,0,0,0,0,0,0,0,0,0,0,0,0,0,0,0,0,0,0,0,0,0,0,0,0,0,0,0,0,0,0,0,0,0,0,0,0,0,0,0,0,0,0,0.0112,-0.0267,-0.0699,-0.0641,0,0,0,0,0,0,0,0,0,0,0,0,0,0,0,0,0,0,0,0,0,0,0,0,0,0,0,0,0,0,0,0,0,0,0,0,0,0,0,0,0,0,0,0,-0.0326,-0.0651,0,0,0,0,0,0,0,0,0,0,0,0,0,0,0,0,0,0,0,0,0,0,0,0,0,0,0,0,0,0,0,0,0,0,0,0,0,0,0,0,0,0,0,0,0,0,0,0,0,0,0,0,0,0,0,0,0,0,0,0,0,0,0,0,0,0,0,0,0,0,0,0,0,0,0,0,0,0,0,0,0,0,0,0,0,0,0,0,0,0,0,0,0,0,0,0,0,0,0,0,0,0,0,0,0,0,0,0,0,0,0,0,0,0,0,0,0,0,0,0,0,0,0,0,0,0,0,0,0,0,0,0,0,0,0,0,0,0,0,0,0,0,0,0,0,0,0,0,0,0,0,0,0,0,0,0,0,0,0,0,0,0,0,0,0,0,0,0,0,0,0,0,0,0,0,0,0,0,0,0,0,0,0,0,0,0,0,0,0,0,0,0,0,0,0,0,0,0,0,0,0,0,0,0,0,0,0,0,0,0,0,0,0,0,0,0,0,0,0,0,0,0,0,0,0,0,0,0,0,0,0,0,0,0,0,0,0,0,0,0,0,0,0,0,0,0,0,0,0,0,0,0,0,0,0,0,0,0,0,0,0,0,0,0,0,0,0,0,0,0,0,0,0,0,0,0,0,0,0,0,0,0,0,0,0,0,0,0,0,0,0,0,0,0,0,0,0,0,0,0,0,0,0,0,0,0,0,0,0,0,0,0,0]}],[{"header":{"parameterUnit":"kt","parameterCategory":2,"dx":1,"dy":1,"la1":29.764190673828125,"la2":30.86408042907715,"lo1":-88.46762084960938,"lo2":-86.9344482421875,"nx":47,"ny":34,"refTime":"2022-10-08T00:00:00:Z","depth":"10","parameterNumber":3,"parameterNumberName":"V-component_of_CURRENTS"},"data":[-0.0384,-0.0101,0.0368,0.0998,0.1388,0.1479,0.1297,0.1372,0.1543,0.1442,0.1308,0.1324,0.1447,0.1548,0.1372,0.1143,0.1095,0.0924,0.0603,0.0411,0.0614,0.0678,0.0326,-0.0347,-0.0796,-0.0721,0.0304,0.1372,0.1527,0.1004,0.0801,0.1281,0.1863,0.2563,0.3134,0.3486,0.378,0.402,0.4229,0.4351,0.4485,0.4517,0.4389,0.4148,0.3908,0.3695,0.3444,-0.0657,-0.0043,0.0406,0.0886,0.1287,0.157,0.1719,0.166,0.1554,0.1361,0.1393,0.1479,0.1607,0.1516,0.1036,0.0902,0.1041,0.1041,0.0742,0.0438,0.0667,0.1004,0.0662,-0.0064,-0.0619,-0.1078,-0.0582,0.0374,0.1036,0.1458,0.1185,0.1116,0.157,0.2056,0.2579,0.3001,0.3438,0.3801,0.4052,0.4154,0.4175,0.4052,0.3785,0.3369,0.2969,0.2605,0.236,-0.0747,-0.0315,0.0219,0.0694,0.1153,0.1495,0.1655,0.1495,0.134,0.1308,0.1458,0.1591,0.1602,0.1228,0.0763,0.0838,0.1025,0.1127,0.0945,0.0619,0.0657,0.1239,0.1169,0.0555,-0.0166,-0.0961,-0.0998,-0.0491,0.0069,0.0678,0.1196,0.1276,0.1335,0.1682,0.213,0.2387,0.2792,0.3091,0.3305,0.3401,0.3374,0.3246,0.3033,0.2638,0.2194,0.1853,0.173,-0.0454,-0.0363,-0.0096,0.0326,0.0747,0.0998,0.1148,0.1185,0.1255,0.1367,0.1495,0.1548,0.1372,0.0908,0.071,0.0796,0.095,0.1073,0.1014,0.0721,0.0609,0.1089,0.1479,0.1281,0.0683,-0.0208,-0.0822,-0.0753,-0.032,-0.0149,0.0171,0.0747,0.118,0.1361,0.15,0.1975,0.2242,0.2456,0.267,0.2723,0.2686,0.2659,0.2605,0.2349,0.1981,0.1644,0.1527,-0.016,-0.008,0.0011,0.0235,0.0497,0.0673,0.0833,0.0988,0.1143,0.1249,0.1292,0.1228,0.102,0.079,0.0758,0.0769,0.0838,0.0924,0.0913,0.0726,0.0534,0.0705,0.118,0.1442,0.1335,0.078,-0.0005,-0.0464,-0.0379,-0.0427,-0.055,-0.0363,0.0331,0.0892,0.1297,0.1447,0.1484,0.1943,0.2237,0.2322,0.2322,0.2333,0.2376,0.228,0.2018,0.1709,0.1522,0.0091,0.0171,0.0246,0.0347,0.047,0.0598,0.071,0.0796,0.086,0.0913,0.0913,0.0849,0.0763,0.0742,0.0753,0.0726,0.0731,0.0763,0.0753,0.0646,0.0491,0.047,0.0662,0.0934,0.1121,0.1116,0.0678,0.0144,-0.0203,-0.0358,-0.0448,-0.0582,-0.0539,-0.0069,0.0774,0.1244,0.1393,0.1393,0.15,0.1821,0.1997,0.204,0.2093,0.2109,0.2013,0.1821,0.1644,0.0256,0.032,0.0406,0.0481,0.0539,0.0598,0.0662,0.071,0.0737,0.0758,0.0742,0.0699,0.0667,0.0678,0.0699,0.0667,0.0651,0.0646,0.0625,0.0561,0.047,0.0438,0.0491,0.0614,0.0774,0.0924,0.0844,0.0555,0.0117,-0.008,-0.0096,-0.0224,-0.0374,-0.0491,-0.0246,0.063,0.1345,0.1506,0.1345,0.1399,0.1484,0.1586,0.1687,0.1762,0.1805,0.1757,0.1682,0.0192,0.024,0.0336,0.0448,0.0534,0.0593,0.0651,0.0721,0.0769,0.0785,0.0753,0.0705,0.0657,0.0641,0.0641,0.0609,0.0593,0.0566,0.0529,0.0475,0.0411,0.0384,0.0438,0.0555,0.071,0.0838,0.086,0.0657,0.0336,0.0144,0.0091,0.0027,-0.0091,-0.0235,-0.0347,-0.016,0.055,0.1276,0.1442,0.1559,0.1404,0.1361,0.1367,0.1377,0.1554,0.1623,0.1639,0.0069,0.0091,0.016,0.0283,0.0411,0.0523,0.0619,0.0726,0.0817,0.0854,0.0812,0.0731,0.0657,0.0614,0.0593,0.0566,0.0545,0.0507,0.0448,0.0363,0.0272,0.0203,0.0219,0.0331,0.0513,0.0667,0.0747,0.0635,0.0416,0.0246,0.0187,0.0123,0.0059,-0.0032,-0.0155,-0.0235,0.0059,0.0486,0.0902,0.1255,0.1377,0.1538,0.1495,0.1404,0.1377,0.1388,0.1452,0.0043,0.0043,0.0091,0.0198,0.0336,0.0497,0.0641,0.0785,0.0902,0.0945,0.0892,0.0769,0.0641,0.0566,0.0518,0.0486,0.0481,0.0438,0.0352,0.024,0.0133,0.0069,0.0059,0.0112,0.023,0.0368,0.047,0.0464,0.0363,0.024,0.0203,0.0176,0.0139,0.0101,0.0027,-0.0091,-0.0059,0.0219,0.0432,0.0625,0.0865,0.1041,0.134,0.1735,0.1602,0.1447,0.1452,0.0021,0.0,0.0011,0.0128,0.0288,0.0475,0.0721,0.0924,0.1062,0.11,0.103,0.0838,0.0619,0.0491,0.0395,0.0342,0.0352,0.0331,0.0256,0.0144,0.0059,0.0021,0.0021,0.0037,0.0064,0.0112,0.0166,0.0192,0.0166,0.0112,0.0101,0.0117,0.0139,0.0155,0.0166,0.0123,0.0027,0.0064,0.0262,0.0438,0.0427,0.0395,0.0801,0.1121,0.1426,0.173,0.1965,0.0005,0.0,-0.0085,0.0048,0.0192,0.0427,0.0774,0.1078,0.1303,0.1356,0.1308,0.1057,0.0577,0.0427,0.0208,0.0149,0.0198,0.0219,0.0182,0.0096,0.0016,-0.0027,-0.0048,-0.0021,-0.0016,-0.0032,-0.0053,-0.0059,-0.0059,-0.0064,-0.0059,-0.0032,0.0048,0.0133,0.0219,0.0262,0.0198,0.0117,0.0214,0.0262,0.0128,0.0155,0.032,0.024,0.0609,0.1041,0.1196,0.0,0.0032,-0.032,0.0246,0.031,0.0235,0.0646,0.1196,0.1436,0.1591,0.1644,0.1447,0.0539,0.0358,0.0096,0.0005,0.0069,0.0112,0.0107,0.0048,-0.0021,-0.0085,-0.0208,-0.0123,-0.0085,-0.0101,-0.0149,-0.0182,-0.0219,-0.0235,-0.0235,-0.0187,-0.0059,0.008,0.0203,0.0294,0.0278,0.023,0.0219,0.0198,0.0032,-0.0139,-0.0091,-0.0085,-0.008,-0.0075,-0.008,0,0,0.0347,0.0662,0.0657,0.0048,0.0502,0.0806,0.1212,0.1233,0.1372,0.1356,0,0.1436,0.0096,-0.0048,0.0021,0.0064,0.0064,0.0027,-0.0037,-0.0112,-0.0603,-0.0246,-0.0112,-0.0112,-0.0166,-0.0219,-0.0342,-0.0342,-0.0352,-0.0283,-0.0112,0.0011,0.0139,0.024,0.0267,0.0224,0.0198,0.0155,0.0043,-0.0149,-0.0176,-0.0166,-0.0262,-0.0368,-0.032,0.0059,0.008,0.0876,0.0422,0.0913,0,0,0.0972,0.1201,0.0934,0.1009,0.094,0.0523,0.2328,0,0,0,0,0,0,0,0,-0.0902,-0.0315,-0.0123,-0.0101,-0.016,-0.0219,-0.0667,-0.0363,-0.0288,-0.023,-0.0133,-0.0139,-0.0043,0.0112,0.0198,0.0176,0.0075,0.0005,0.0059,-0.0021,-0.0053,0.0016,0.0037,-0.0107,-0.0198,0.0133,0.0256,0.0571,-0.0149,0.0256,-0.0352,-0.031,0.0886,0.0892,0,0,0,0.1036,0.1554,-0.0085,-0.0176,-0.0208,-0.0182,-0.0101,-0.0075,-0.008,0,0,0,0,0,0,0,-0.0507,-0.0235,-0.0219,-0.0155,-0.0117,-0.0577,-0.0224,0.0032,0.0187,0.0198,0.0,-0.0171,-0.0053,-0.0005,0.0037,0.0117,0.016,0.0101,-0.0011,0.0149,0.0027,0.0438,-0.0139,-0.0561,-0.0844,-0.0614,0.0406,0.0534,0.0,0.0,0.0219,0.0753,0.0769,-0.0107,-0.0262,-0.0395,-0.0438,-0.0176,-0.0251,-0.0155,0,0,0,0,0,0,0,0,0,0,0,0,-0.0929,-0.0294,0.0053,0.063,0.0603,0.0021,-0.0539,-0.0246,-0.008,0.0005,0.0096,0.0166,0.016,0.0016,0,-0.0304,0.0283,0.0128,-0.0358,-0.0699,0,0,0,0,0,0.0347,0.0363,0.039,-0.0011,-0.0155,-0.0294,-0.0651,-0.016,-0.0267,0,0,0,0,0,0,0,0,0,0,0,0,0,0,0,0,0.0609,0.0972,0,0,-0.0342,-0.0133,-0.0048,0.0043,0.0123,0.0155,-0.0112,0,0,0,0.0272,-0.0032,-0.0422,0,0,0,0,0,0.0299,0.0368,0.0139,-0.0107,-0.0155,0.0053,-0.024,-0.0171,0,0,0,0,0,0,0,0,0,0,0,0,0,0,0,0,0,0,0.0961,0.0721,0,0,0,0,0,0,0,-0.0251,0,0,0,0,0,0,0,0,0,0,0,0.0411,0.0486,-0.0117,-0.0294,-0.0214,0.0187,0.0326,0,0,0,0,0,0,0,0,0,0,0,0,0,0,0,0,0,0,0,0,0.1436,0.0256,0.0016,0.0091,0,0,0,0,0,0,0,0,0,0,0,0,0,0,0,0,0.0534,0.055,-0.0262,-0.0427,-0.0352,-0.0037,0,0,0,0,0,0,0,0,0,0,0,0,0,0,0,0,0,0,0,0,0,0,0.0518,0.0032,0.0182,0.0,0.0,-0.0037,0,0,0,0,0,0,0,0,0,0,0,0,0,0,0.0726,0.0027,-0.0459,-0.055,-0.0171,0,0,0,0,0,0,0,0,0,0,0,0,0,0,0,0,0,0,0,0,0,0,0,0,0,0,-0.0005,-0.0069,0,0,0,0,0,0,0,0,0,0,0,0,0,0,0.0699,0.0315,-0.0315,-0.0518,-0.0064,0,0,0,0,0,0,0,0,0,0,0,0,0,0,0,0,0,0,0,0,0,0,0,0,0,0,0,0,0,0,0,0,0,0,0,0,0,0,0,0,0,0,0.0582,0.0411,-0.0155,-0.0347,0.0155,0,0,0,0,0,0,0,0,0,0,0,0,0,0,0,0,0,0,0,0,0,0,0,0,0,0,0,0,0,0,0,0,0,0,0,0,0,0,0,0,0,0,0.0582,0.0523,-0.0011,-0.0251,0.023,0,0,0,0,0,0,0,0,0,0,0,0,0,0,0,0,0,0,0,0,0,0,0,0,0,0,0,0,0,0,0,0,0,0,0,0,0,0,0,0,0,0,0,0.0368,0.0235,-0.0069,0.0149,0,0,0,0,0,0,0,0,0,0,0,0,0,0,0,0,0,0,0,0,0,0,0,0,0,0,0,0,0,0,0,0,0,0,0,0,0,0,0,0,0,0,0,0.016,-0.0107,-0.0005,0.0075,0,0,0,0,0,0,0,0,0,0,0,0,0,0,0,0,0,0,0,0,0,0,0,0,0,0,0,0,0,0,0,0,0,0,0,0,0,0,0,0,0,0,0,0,-0.0603,-0.0059,0,0,0,0,0,0,0,0,0,0,0,0,0,0,0,0,0,0,0,0,0,0,0,0,0,0,0,0,0,0,0,0,0,0,0,0,0,0,0,0,0,0,0,0,0,0,0,0,0,0,0,0,0,0,0,0,0,0,0,0,0,0,0,0,0,0,0,0,0,0,0,0,0,0,0,0,0,0,0,0,0,0,0,0,0,0,0,0,0,0,0,0,0,0,0,0,0,0,0,0,0,0,0,0,0,0,0,0,0,0,0,0,0,0,0,0,0,0,0,0,0,0,0,0,0,0,0,0,0,0,0,0,0,0,0,0,0,0,0,0,0,0,0,0,0,0,0,0,0,0,0,0,0,0,0,0,0,0,0,0,0,0,0,0,0,0,0,0,0,0,0,0,0,0,0,0,0,0,0,0,0,0,0,0,0,0,0,0,0,0,0,0,0,0,0,0,0,0,0,0,0,0,0,0,0,0,0,0,0,0,0,0,0,0,0,0,0,0,0,0,0,0,0,0,0,0,0,0,0,0,0,0,0,0,0,0,0,0,0,0,0,0,0,0,0,0,0,0,0,0,0,0,0,0,0,0,0,0,0,0,0,0,0,0,0,0,0,0,0,0,0,0,0,0,0,0,0,0,0,0,0,0,0,0,0,0,0,0,0,0,0,0,0,0,0,0,0,0,0,0,0,0,0,0,0,0,0,0,0,0,0,0,0]}]],[[{"header":{"parameterUnit":"kt","parameterCategory":2,"dx":1,"dy":1,"la1":29.764190673828125,"la2":30.86408042907715,"lo1":-88.46762084960938,"lo2":-86.9344482421875,"nx":47,"ny":34,"refTime":"2022-10-08T00:00:00:Z","depth":"12","parameterNumber":2,"parameterNumberName":"U-component_of_CURRENTS"},"data":[-0.047,-0.0117,0.008,0.0272,0.0529,0.063,0.0331,-0.0416,-0.0977,-0.1111,-0.1255,-0.1532,-0.181,-0.1949,-0.1869,-0.1591,-0.1377,-0.1356,-0.1442,-0.1538,-0.1676,-0.1975,-0.2344,-0.2488,-0.2509,-0.2515,-0.2237,-0.1815,-0.1271,-0.0523,-0.0523,-0.0918,-0.0785,-0.0614,-0.0363,0.0059,0.0395,0.0694,0.0982,0.1217,0.1442,0.1618,0.1607,0.134,0.0998,0.0737,0.0464,-0.1153,-0.1009,-0.0641,-0.0486,-0.0416,-0.055,-0.094,-0.1249,-0.1276,-0.1271,-0.1447,-0.1671,-0.1805,-0.1799,-0.1575,-0.1313,-0.1217,-0.1196,-0.1212,-0.1319,-0.1538,-0.1815,-0.2189,-0.244,-0.26,-0.2808,-0.2792,-0.2627,-0.2264,-0.1607,-0.0822,-0.0721,-0.102,-0.0865,-0.0694,-0.0523,-0.0272,0.0075,0.0438,0.0705,0.0865,0.0908,0.079,0.0609,0.0464,0.0326,0.0149,-0.1271,-0.1676,-0.1842,-0.1815,-0.1789,-0.1746,-0.165,-0.1463,-0.1324,-0.1388,-0.1559,-0.1687,-0.1682,-0.1511,-0.1297,-0.1185,-0.1159,-0.1175,-0.1169,-0.1143,-0.1159,-0.1335,-0.1682,-0.1997,-0.2296,-0.2675,-0.2904,-0.2856,-0.2744,-0.2493,-0.1901,-0.0982,-0.0694,-0.0924,-0.0833,-0.0603,-0.0299,-0.0005,0.0251,0.0416,0.0481,0.0443,0.0363,0.0331,0.0347,0.0352,0.0315,-0.1089,-0.141,-0.1714,-0.1847,-0.1831,-0.1687,-0.1463,-0.1335,-0.141,-0.157,-0.1639,-0.157,-0.1393,-0.1196,-0.1121,-0.1153,-0.1185,-0.1212,-0.1191,-0.1127,-0.1057,-0.0998,-0.1084,-0.1372,-0.1719,-0.2088,-0.2472,-0.2734,-0.2878,-0.2936,-0.2712,-0.2098,-0.1132,-0.0374,-0.0523,-0.055,-0.0235,-0.0037,0.0315,0.055,0.0582,0.0545,0.0497,0.0481,0.0513,0.0539,0.0523,-0.0929,-0.1116,-0.1324,-0.1554,-0.1719,-0.1762,-0.1773,-0.1789,-0.1762,-0.1655,-0.1474,-0.1255,-0.1078,-0.1057,-0.1153,-0.1239,-0.1287,-0.1292,-0.1233,-0.1121,-0.1025,-0.0988,-0.0972,-0.1014,-0.1143,-0.1329,-0.1746,-0.229,-0.2675,-0.2771,-0.268,-0.2536,-0.2093,-0.1297,-0.0198,0.0198,-0.0149,-0.0032,0.0288,0.0529,0.0742,0.0822,0.0785,0.0737,0.0726,0.0726,0.0731,-0.0715,-0.086,-0.1004,-0.1137,-0.126,-0.1361,-0.1426,-0.142,-0.1345,-0.1228,-0.1116,-0.1068,-0.1116,-0.1228,-0.1319,-0.1377,-0.1404,-0.1383,-0.1313,-0.1207,-0.1105,-0.1025,-0.0988,-0.0988,-0.0972,-0.0929,-0.095,-0.1249,-0.1639,-0.1741,-0.1698,-0.1837,-0.205,-0.1874,-0.1249,-0.0363,0.0491,0.0657,0.0406,0.0459,0.0651,0.078,0.087,0.0897,0.0913,0.0945,0.0961,-0.0651,-0.0705,-0.0753,-0.0812,-0.0876,-0.0918,-0.095,-0.0993,-0.1057,-0.1148,-0.1244,-0.134,-0.1415,-0.1474,-0.15,-0.1511,-0.1506,-0.1479,-0.1426,-0.1361,-0.1303,-0.1228,-0.1116,-0.0966,-0.0812,-0.0689,-0.0593,-0.0582,-0.0689,-0.079,-0.0838,-0.0961,-0.1217,-0.1522,-0.1586,-0.1164,-0.0539,0.0278,0.0956,0.1068,0.0918,0.0844,0.0918,0.1036,0.1143,0.1228,0.1308,-0.0902,-0.0961,-0.0977,-0.0972,-0.0982,-0.1014,-0.1068,-0.1148,-0.126,-0.1383,-0.1495,-0.1586,-0.165,-0.1676,-0.1666,-0.1644,-0.1618,-0.158,-0.1532,-0.1479,-0.141,-0.1308,-0.118,-0.1041,-0.0929,-0.0828,-0.0705,-0.0587,-0.0566,-0.0641,-0.071,-0.0785,-0.0892,-0.1073,-0.1281,-0.1351,-0.1073,-0.0598,-0.0053,0.0667,0.126,0.1458,0.1431,0.1458,0.158,0.1698,0.1805,-0.1175,-0.1217,-0.1228,-0.1212,-0.1201,-0.1217,-0.126,-0.1324,-0.141,-0.1516,-0.1623,-0.1719,-0.1783,-0.1799,-0.1778,-0.1746,-0.1714,-0.1671,-0.1607,-0.1527,-0.1426,-0.1308,-0.1212,-0.1137,-0.1073,-0.1004,-0.0924,-0.0828,-0.0763,-0.0737,-0.0715,-0.071,-0.0769,-0.0897,-0.1046,-0.1175,-0.1169,-0.0988,-0.0571,-0.0144,0.023,0.0769,0.126,0.1735,0.1911,0.1821,0.1885,-0.1372,-0.141,-0.1393,-0.1345,-0.1292,-0.1271,-0.1297,-0.1367,-0.1463,-0.1591,-0.1719,-0.1821,-0.1863,-0.1858,-0.1826,-0.1789,-0.1746,-0.1692,-0.1618,-0.1538,-0.1458,-0.1388,-0.1329,-0.1271,-0.1196,-0.1111,-0.1004,-0.0892,-0.0801,-0.0753,-0.0731,-0.0705,-0.0689,-0.0726,-0.0854,-0.1036,-0.1196,-0.1244,-0.1191,-0.0993,-0.0491,-0.0123,-0.0059,0.0513,0.1244,0.1591,0.181,-0.1506,-0.1538,-0.1506,-0.1404,-0.1281,-0.118,-0.1153,-0.1228,-0.1372,-0.1564,-0.1751,-0.189,-0.1938,-0.1911,-0.1847,-0.1778,-0.1709,-0.165,-0.1596,-0.1548,-0.1506,-0.1484,-0.1458,-0.1404,-0.1292,-0.1148,-0.1004,-0.0881,-0.0785,-0.0731,-0.0699,-0.0662,-0.0619,-0.0603,-0.0641,-0.0763,-0.0956,-0.1095,-0.1169,-0.1292,-0.1377,-0.1255,-0.0742,-0.0272,-0.0085,0.0395,0.1175,-0.1468,-0.1527,-0.1607,-0.1596,-0.1474,-0.1297,-0.1207,-0.1271,-0.1426,-0.1575,-0.1725,-0.1885,-0.1954,-0.1911,-0.1815,-0.1703,-0.1618,-0.1554,-0.1522,-0.1506,-0.1506,-0.15,-0.1468,-0.1426,-0.1356,-0.1228,-0.1052,-0.0892,-0.0774,-0.0705,-0.0657,-0.0619,-0.0587,-0.0577,-0.0587,-0.063,-0.0699,-0.0817,-0.0972,-0.1095,-0.1175,-0.118,-0.1148,-0.1084,-0.0609,0.0315,0.0865,-0.1281,-0.1431,-0.165,-0.1767,-0.1548,-0.1233,-0.1052,-0.1014,-0.126,-0.1399,-0.1506,0,-0.1981,0,-0.166,-0.1522,-0.1495,-0.149,-0.1484,-0.1468,-0.1447,-0.1436,-0.1399,-0.1335,-0.1281,-0.1223,-0.1185,-0.1078,-0.0961,-0.0844,-0.0742,-0.0678,-0.0662,-0.0662,-0.0673,-0.0689,-0.0699,-0.0699,-0.0705,-0.0763,-0.0865,-0.0929,-0.0945,-0.0934,-0.0865,-0.0876,-0.1025,0,0,0,0,0,-0.0721,-0.0166,0,0,0,0,0,0,0,0,0,0,0,0,0,0,0,0,0,0,0,-0.1148,-0.1143,-0.1127,-0.1073,-0.1068,-0.1105,-0.1137,-0.1105,-0.103,-0.0934,-0.0838,-0.0747,-0.0641,-0.0545,-0.0539,-0.0662,-0.0828,-0.1052,-0.1415,-0.1853,-0.2242,0,0,0,0,0,0,0,0,0,0,0,0,0,0,0,0,0,0,0,0,0,0,0,0,0,0,0,0,0,-0.1078,-0.1153,-0.1217,-0.1255,-0.1377,-0.1388,-0.1233,-0.1057,-0.0902,-0.0747,-0.0587,-0.0513,-0.0577,-0.0715,-0.086,-0.1004,-0.1201,-0.1506,0,0,0,0,0,0,0,0,0,0,0,0,0,0,0,0,0,0,0,0,0,0,0,0,0,0,0,0,0,0,0,0,0,0,0,0,-0.1276,-0.1191,-0.1014,-0.087,-0.079,-0.0726,-0.0731,-0.0758,-0.079,-0.086,-0.0945,0,0,0,0,0,0,0,0,0,0,0,0,0,0,0,0,0,0,0,0,0,0,0,0,0,0,0,0,0,0,0,0,0,0,0,0,0,0,-0.1084,-0.1217,-0.11,-0.0993,-0.0918,-0.0844,-0.0747,-0.0673,-0.0625,0,0,0,0,0,0,0,0,0,0,0,0,0,0,0,0,0,0,0,0,0,0,0,0,0,0,0,0,0,0,0,0,0,0,0,0,0,0,0,0,0,-0.0929,-0.0886,-0.0785,-0.063,-0.0432,-0.0246,0,0,0,0,0,0,0,0,0,0,0,0,0,0,0,0,0,0,0,0,0,0,0,0,0,0,0,0,0,0,0,0,0,0,0,0,0,0,0,0,0,0,0,0,0,0,0.0011,0,0,0,0,0,0,0,0,0,0,0,0,0,0,0,0,0,0,0,0,0,0,0,0,0,0,0,0,0,0,0,0,0,0,0,0,0,0,0,0,0,0,0,0,0,0,0,0,0,0,0,0,0,0,0,0,0,0,0,0,0,0,0,0,0,0,0,0,0,0,0,0,0,0,0,0,0,0,0,0,0,0,0,0,0,0,0,0,0,0,0,0,0,0,0,0,0,0,0,0,0,0,0,0,0,0,0,0,0,0,0,0,0,0,0,0,0,0,0,0,0,0,0,0,0,0,0,0,0,0,0,0,0,0,0,0,0,0,0,0,0,0,0,0,0,0,0,0,0,0,0,0,0,0,0,0,0,0,0,0,0,0,0,0,0,0,0,0,0,0,0,0,0,0,0,0,0,0,0,0,0,0,0,0,0,0,0,0,0,0,0,0,0,0,0,0,0,0,0,0,0,0,0,0,0,0,0,0,0,0,0,0,0,0,0,0,0,0,0,0,0,0,0,0,0,0,0,0,0,0,0,0,0,0,0,0,0,0,0,0,0,0,0,0,0,0,0,0,0,0,0,0,0,0,0,0,0,0,0,0,0,0,0,0,0,0,0,0,0,0,0,0,0,0,0,0,0,0,0,0,0,0,0,0,0,0,0,0,0,0,0,0,0,0,0,0,0,0,0,0,0,0,0,0,0,0,0,0,0,0,0,0,0,0,0,0,0,0,0,0,0,0,0,0,0,0,0,0,0,0,0,0,0,0,0,0,0,0,0,0,0,0,0,0,0,0,0,0,0,0,0,0,0,0,0,0,0,0,0,0,0,0,0,0,0,0,0,0,0,0,0,0,0,0,0,0,0,0,0,0,0,0,0,0,0,0,0,0,0,0,0,0,0,0,0,0,0,0,0,0,0,0,0,0,0,0,0,0,0,0,0,0,0,0,0,0,0,0,0,0,0,0,0,0,0,0,0,0,0,0,0,0,0,0,0,0,0,0,0,0,0,0,0,0,0,0,0,0,0,0,0,0,0,0,0,0,0,0,0,0,0,0,0,0,0,0,0,0,0,0,0,0,0,0,0,0,0,0,0,0,0,0,0,0,0,0,0,0,0,0,0,0,0,0,0,0,0,0,0,0,0,0,0,0,0,0,0,0,0,0,0,0,0,0,0,0,0,0,0,0,0,0,0,0,0,0,0,0,0,0,0,0,0,0,0,0,0,0,0,0,0,0,0,0,0,0,0,0,0,0,0,0,0,0,0,0,0,0,0,0,0,0,0,0,0,0,0,0,0,0,0,0,0,0,0,0,0,0,0,0,0,0,0,0,0,0,0,0,0,0,0,0,0,0,0,0,0,0,0,0,0,0,0,0,0,0,0,0,0,0,0,0,0,0,0,0,0,0,0,0,0,0,0,0,0,0,0,0,0,0,0,0,0,0,0,0,0,0,0,0,0,0,0,0,0,0,0,0,0,0,0,0,0,0,0,0,0,0,0,0,0,0,0,0,0,0,0,0,0,0,0,0,0,0,0,0,0,0,0,0,0,0,0,0,0,0,0,0,0,0,0,0,0,0,0,0,0,0,0,0,0,0,0,0,0]}],[{"header":{"parameterUnit":"kt","parameterCategory":2,"dx":1,"dy":1,"la1":29.764190673828125,"la2":30.86408042907715,"lo1":-88.46762084960938,"lo2":-86.9344482421875,"nx":47,"ny":34,"refTime":"2022-10-08T00:00:00:Z","depth":"12","parameterNumber":3,"parameterNumberName":"V-component_of_CURRENTS"},"data":[-0.0699,-0.0422,0.0149,0.0833,0.1228,0.1313,0.1143,0.1212,0.1393,0.1276,0.1137,0.1169,0.1319,0.142,0.1228,0.0998,0.0956,0.0817,0.0523,0.0342,0.055,0.0625,0.0288,-0.0358,-0.0796,-0.0785,0.0117,0.1084,0.1233,0.0726,0.0529,0.0993,0.1543,0.2237,0.284,0.3225,0.355,0.3812,0.4042,0.4191,0.4319,0.4351,0.4239,0.4031,0.3817,0.3593,0.3326,-0.0865,-0.0347,0.0112,0.0641,0.1078,0.1377,0.1538,0.1495,0.1383,0.118,0.1212,0.1319,0.1452,0.1361,0.0876,0.0747,0.0881,0.0902,0.0657,0.0395,0.0609,0.0929,0.0603,-0.008,-0.0603,-0.1062,-0.0609,0.023,0.0817,0.1207,0.0929,0.0865,0.1319,0.1805,0.2322,0.276,0.3214,0.3599,0.3876,0.3994,0.401,0.3887,0.3647,0.3262,0.2872,0.2499,0.2226,-0.0822,-0.0481,0.0,0.0481,0.095,0.1303,0.1463,0.1297,0.1148,0.1121,0.1271,0.141,0.1426,0.1052,0.0587,0.0662,0.0844,0.095,0.0822,0.0571,0.0614,0.1132,0.1057,0.0486,-0.0171,-0.0934,-0.0972,-0.0507,-0.0011,0.0523,0.0982,0.1036,0.1095,0.1468,0.1917,0.2173,0.2584,0.2904,0.315,0.3273,0.3241,0.3123,0.2915,0.2525,0.2088,0.1746,0.1602,-0.0481,-0.0416,-0.0187,0.0208,0.0609,0.0849,0.0977,0.0988,0.1057,0.1169,0.1297,0.1351,0.1175,0.0715,0.0529,0.0625,0.0774,0.0897,0.0876,0.0657,0.0566,0.0972,0.1308,0.1121,0.0593,-0.0208,-0.0801,-0.0731,-0.0315,-0.0187,0.0075,0.0577,0.0956,0.1137,0.1303,0.1773,0.2061,0.229,0.2536,0.2621,0.2595,0.2557,0.2493,0.2226,0.1863,0.1532,0.141,-0.0214,-0.0133,-0.0053,0.0149,0.0384,0.0545,0.0689,0.0822,0.0961,0.1057,0.1089,0.103,0.0822,0.0603,0.0571,0.0609,0.0689,0.0774,0.0785,0.0662,0.0507,0.0641,0.1036,0.1249,0.1153,0.0699,-0.0005,-0.0443,-0.0352,-0.0406,-0.0534,-0.0395,0.0219,0.0721,0.1089,0.1244,0.1303,0.1773,0.2098,0.2226,0.2242,0.2242,0.2258,0.2141,0.189,0.1591,0.1415,-0.0027,0.0075,0.0155,0.0246,0.0358,0.0475,0.0577,0.0646,0.0705,0.0747,0.0742,0.0683,0.0603,0.0582,0.0598,0.0593,0.0614,0.0651,0.0651,0.0587,0.047,0.0454,0.0603,0.0822,0.0966,0.0998,0.0641,0.0139,-0.0192,-0.0336,-0.0411,-0.0534,-0.0523,-0.0128,0.0625,0.1057,0.1191,0.1212,0.1361,0.1709,0.1911,0.1954,0.1986,0.197,0.1879,0.1698,0.1532,0.0075,0.0171,0.0272,0.0352,0.0411,0.0464,0.0518,0.0561,0.0587,0.0614,0.0603,0.0577,0.0555,0.0566,0.0577,0.0566,0.0561,0.0561,0.0545,0.0497,0.0427,0.04,0.0438,0.0529,0.0657,0.0806,0.0769,0.0518,0.0091,-0.0091,-0.0096,-0.0192,-0.0336,-0.0475,-0.0283,0.0529,0.1175,0.1329,0.1196,0.1255,0.1367,0.1474,0.158,0.1639,0.1676,0.1628,0.1554,0.0032,0.0096,0.0198,0.0304,0.039,0.0448,0.0502,0.0561,0.0619,0.0651,0.0646,0.0614,0.0582,0.0566,0.055,0.0534,0.0523,0.0497,0.0464,0.0411,0.0336,0.0278,0.0278,0.0368,0.0518,0.0662,0.0721,0.0566,0.0272,0.0101,0.0064,0.0016,-0.0085,-0.0224,-0.0336,-0.0176,0.0464,0.1143,0.1287,0.1393,0.1255,0.1244,0.126,0.1265,0.1431,0.149,0.1495,0.0016,0.0037,0.0091,0.0187,0.0299,0.0406,0.0491,0.0587,0.0683,0.0737,0.0721,0.0662,0.0603,0.0561,0.0534,0.0513,0.0497,0.0454,0.039,0.0304,0.0192,0.008,0.0037,0.0107,0.0267,0.0432,0.0545,0.0486,0.0304,0.0155,0.0112,0.0085,0.0048,-0.0032,-0.0155,-0.0235,0.0037,0.0427,0.0796,0.1127,0.1244,0.141,0.1393,0.1308,0.1276,0.1271,0.1319,0.0043,0.0043,0.008,0.0166,0.0278,0.0422,0.0555,0.0673,0.079,0.0849,0.0812,0.0705,0.0593,0.0523,0.047,0.0443,0.0432,0.039,0.0299,0.0187,0.0075,-0.0005,-0.0037,-0.0021,0.0053,0.0166,0.0267,0.0283,0.0208,0.0107,0.0085,0.0085,0.0101,0.0091,0.0027,-0.0091,-0.0069,0.0192,0.0363,0.0513,0.0731,0.0908,0.1255,0.166,0.1527,0.1367,0.1351,0.0032,0.0011,0.0021,0.0128,0.0272,0.0438,0.0662,0.086,0.0988,0.102,0.0956,0.078,0.0577,0.0454,0.0347,0.0294,0.0304,0.0283,0.0208,0.0101,0.0021,-0.0011,-0.0021,-0.0016,-0.0016,-0.0005,0.0027,0.0037,0.0021,-0.0011,-0.0011,0.0016,0.0064,0.0123,0.0155,0.0123,0.0027,0.0048,0.0208,0.0342,0.0299,0.0262,0.0657,0.102,0.1303,0.1596,0.181,0.0021,0.0021,-0.0064,0.0059,0.0187,0.0406,0.0737,0.103,0.1244,0.1287,0.1217,0.0977,0.0534,0.0384,0.016,0.0107,0.0149,0.0171,0.0139,0.0064,-0.0005,-0.0043,-0.0069,-0.0043,-0.0043,-0.0069,-0.0101,-0.0123,-0.0133,-0.0133,-0.0128,-0.0101,-0.0021,0.008,0.0187,0.0251,0.0198,0.0112,0.0192,0.0203,0.0048,0.0048,0.016,0.008,0.0363,0.0731,0.0892,0.0016,0.0059,-0.0283,0.024,0.0288,0.0208,0.0619,0.1137,0.1324,0.1452,0.1516,0,0.0507,0,0.0075,-0.0021,0.0048,0.0096,0.0091,0.0037,-0.0027,-0.0091,-0.0203,-0.0123,-0.0085,-0.0107,-0.0149,-0.0187,-0.023,-0.0251,-0.0251,-0.0208,-0.008,0.0048,0.0171,0.0272,0.0267,0.0224,0.0208,0.0176,0.0,-0.0187,-0.0187,-0.0224,-0.0294,-0.039,-0.0395,0,0,0,0,0,-0.0021,0.0294,0,0,0,0,0,0,0,0,0,0,0,0,0,0,0,0,0,0,0,-0.0155,-0.0203,-0.032,-0.032,-0.0326,-0.0262,-0.0101,0.0016,0.0128,0.0224,0.0251,0.0214,0.0182,0.0139,0.0027,-0.016,-0.0203,-0.0203,-0.0331,-0.0502,-0.0475,0,0,0,0,0,0,0,0,0,0,0,0,0,0,0,0,0,0,0,0,0,0,0,0,0,0,0,0,0,-0.0342,-0.0256,-0.0192,-0.0107,-0.0101,-0.0027,0.0107,0.0187,0.016,0.0048,-0.0016,0.0043,-0.0021,-0.0053,0.0016,0.0037,-0.0112,-0.0224,0,0,0,0,0,0,0,0,0,0,0,0,0,0,0,0,0,0,0,0,0,0,0,0,0,0,0,0,0,0,0,0,0,0,0,0,0.0182,0.0187,-0.0011,-0.0171,-0.0059,-0.0005,0.0043,0.0128,0.0171,0.0107,-0.0011,0,0,0,0,0,0,0,0,0,0,0,0,0,0,0,0,0,0,0,0,0,0,0,0,0,0,0,0,0,0,0,0,0,0,0,0,0,0,0.0016,-0.0497,-0.024,-0.0085,0.0005,0.0091,0.0166,0.0176,0.0043,0,0,0,0,0,0,0,0,0,0,0,0,0,0,0,0,0,0,0,0,0,0,0,0,0,0,0,0,0,0,0,0,0,0,0,0,0,0,0,0,0,-0.0139,-0.0059,0.0032,0.0123,0.0166,-0.0101,0,0,0,0,0,0,0,0,0,0,0,0,0,0,0,0,0,0,0,0,0,0,0,0,0,0,0,0,0,0,0,0,0,0,0,0,0,0,0,0,0,0,0,0,0,0,-0.0262,0,0,0,0,0,0,0,0,0,0,0,0,0,0,0,0,0,0,0,0,0,0,0,0,0,0,0,0,0,0,0,0,0,0,0,0,0,0,0,0,0,0,0,0,0,0,0,0,0,0,0,0,0,0,0,0,0,0,0,0,0,0,0,0,0,0,0,0,0,0,0,0,0,0,0,0,0,0,0,0,0,0,0,0,0,0,0,0,0,0,0,0,0,0,0,0,0,0,0,0,0,0,0,0,0,0,0,0,0,0,0,0,0,0,0,0,0,0,0,0,0,0,0,0,0,0,0,0,0,0,0,0,0,0,0,0,0,0,0,0,0,0,0,0,0,0,0,0,0,0,0,0,0,0,0,0,0,0,0,0,0,0,0,0,0,0,0,0,0,0,0,0,0,0,0,0,0,0,0,0,0,0,0,0,0,0,0,0,0,0,0,0,0,0,0,0,0,0,0,0,0,0,0,0,0,0,0,0,0,0,0,0,0,0,0,0,0,0,0,0,0,0,0,0,0,0,0,0,0,0,0,0,0,0,0,0,0,0,0,0,0,0,0,0,0,0,0,0,0,0,0,0,0,0,0,0,0,0,0,0,0,0,0,0,0,0,0,0,0,0,0,0,0,0,0,0,0,0,0,0,0,0,0,0,0,0,0,0,0,0,0,0,0,0,0,0,0,0,0,0,0,0,0,0,0,0,0,0,0,0,0,0,0,0,0,0,0,0,0,0,0,0,0,0,0,0,0,0,0,0,0,0,0,0,0,0,0,0,0,0,0,0,0,0,0,0,0,0,0,0,0,0,0,0,0,0,0,0,0,0,0,0,0,0,0,0,0,0,0,0,0,0,0,0,0,0,0,0,0,0,0,0,0,0,0,0,0,0,0,0,0,0,0,0,0,0,0,0,0,0,0,0,0,0,0,0,0,0,0,0,0,0,0,0,0,0,0,0,0,0,0,0,0,0,0,0,0,0,0,0,0,0,0,0,0,0,0,0,0,0,0,0,0,0,0,0,0,0,0,0,0,0,0,0,0,0,0,0,0,0,0,0,0,0,0,0,0,0,0,0,0,0,0,0,0,0,0,0,0,0,0,0,0,0,0,0,0,0,0,0,0,0,0,0,0,0,0,0,0,0,0,0,0,0,0,0,0,0,0,0,0,0,0,0,0,0,0,0,0,0,0,0,0,0,0,0,0,0,0,0,0,0,0,0,0,0,0,0,0,0,0,0,0,0,0,0,0,0,0,0,0,0,0,0,0,0,0,0,0,0,0,0,0,0,0,0,0,0,0,0,0,0,0,0,0,0,0,0,0,0,0,0,0,0,0,0,0,0,0,0,0,0,0,0,0,0,0,0,0,0,0,0,0,0,0,0,0,0,0,0,0,0,0,0,0,0,0,0,0,0,0,0,0,0,0,0,0,0,0,0,0,0,0,0,0,0,0,0,0,0,0,0,0,0,0,0,0,0,0,0,0,0,0,0,0,0,0,0,0,0,0,0,0,0,0,0,0,0,0,0,0,0,0,0,0,0,0,0,0,0,0,0,0,0,0,0,0,0,0,0,0,0,0,0,0,0,0,0,0,0,0,0,0,0,0]}]],[[{"header":{"parameterUnit":"kt","parameterCategory":2,"dx":1,"dy":1,"la1":29.764190673828125,"la2":30.86408042907715,"lo1":-88.46762084960938,"lo2":-86.9344482421875,"nx":47,"ny":34,"refTime":"2022-10-08T00:00:00:Z","depth":"15","parameterNumber":2,"parameterNumberName":"U-component_of_CURRENTS"},"data":[-0.0352,-0.0043,0.0166,0.0379,0.0651,0.0763,0.0464,-0.0214,-0.0699,-0.0865,-0.1014,-0.1255,-0.1506,-0.1628,-0.1538,-0.1287,-0.1121,-0.1143,-0.1276,-0.142,-0.157,-0.1842,-0.2194,-0.2381,-0.2451,-0.2435,-0.2104,-0.1671,-0.1228,-0.055,-0.039,-0.071,-0.0641,-0.0481,-0.0246,0.0192,0.0566,0.0886,0.118,0.1404,0.1612,0.1751,0.1698,0.1436,0.1137,0.0913,0.0673,-0.0961,-0.0881,-0.0561,-0.04,-0.032,-0.0411,-0.0731,-0.0982,-0.1004,-0.1014,-0.1164,-0.1356,-0.1479,-0.1468,-0.126,-0.1052,-0.0982,-0.0966,-0.1041,-0.1207,-0.1404,-0.1634,-0.1981,-0.2269,-0.2483,-0.2712,-0.2691,-0.2456,-0.2066,-0.1495,-0.0753,-0.0513,-0.0796,-0.0689,-0.0507,-0.0326,-0.0069,0.0267,0.063,0.0865,0.0993,0.1014,0.0908,0.0763,0.0646,0.0529,0.0374,-0.1127,-0.1484,-0.165,-0.1634,-0.1586,-0.149,-0.1345,-0.1148,-0.103,-0.1095,-0.1239,-0.1356,-0.1356,-0.1191,-0.1009,-0.0945,-0.0913,-0.0913,-0.0961,-0.1025,-0.1057,-0.1127,-0.1393,-0.1741,-0.2082,-0.2499,-0.2771,-0.2728,-0.2595,-0.2317,-0.1746,-0.086,-0.047,-0.0699,-0.0641,-0.0411,-0.0112,0.0187,0.0432,0.0571,0.0625,0.0603,0.0545,0.0534,0.0561,0.0571,0.0545,-0.0977,-0.1249,-0.1516,-0.1634,-0.1586,-0.141,-0.1169,-0.1036,-0.1095,-0.1244,-0.1319,-0.1255,-0.1084,-0.0902,-0.086,-0.0902,-0.0918,-0.0929,-0.095,-0.0982,-0.0961,-0.0828,-0.0806,-0.1041,-0.142,-0.1874,-0.2312,-0.26,-0.276,-0.2803,-0.2547,-0.1933,-0.0998,-0.0198,-0.032,-0.0363,-0.0059,0.0123,0.0464,0.0683,0.0737,0.0731,0.0721,0.0721,0.0742,0.0747,0.0731,-0.0774,-0.0945,-0.1143,-0.1335,-0.1468,-0.1495,-0.1495,-0.1495,-0.1447,-0.1335,-0.1169,-0.0972,-0.0796,-0.0763,-0.0854,-0.0956,-0.0998,-0.1004,-0.0982,-0.0966,-0.0934,-0.0828,-0.0694,-0.0662,-0.0806,-0.1095,-0.1596,-0.2136,-0.2493,-0.2589,-0.2531,-0.2397,-0.1911,-0.1132,-0.0075,0.0406,0.0064,0.0149,0.0454,0.0673,0.0881,0.0998,0.102,0.0993,0.0972,0.0945,0.0934,-0.0507,-0.0651,-0.0796,-0.0924,-0.1036,-0.1132,-0.118,-0.1169,-0.1095,-0.0972,-0.0854,-0.0785,-0.0801,-0.0886,-0.0988,-0.1073,-0.1116,-0.1116,-0.1084,-0.1046,-0.0998,-0.0913,-0.0785,-0.0689,-0.0646,-0.0662,-0.0769,-0.1095,-0.1447,-0.1559,-0.1559,-0.1719,-0.1922,-0.173,-0.1046,-0.0208,0.0641,0.0854,0.0582,0.0609,0.0785,0.0918,0.1052,0.1127,0.1159,0.1169,0.1175,-0.04,-0.0486,-0.0534,-0.0593,-0.0651,-0.0694,-0.0721,-0.0753,-0.0806,-0.0876,-0.095,-0.103,-0.1105,-0.1159,-0.1201,-0.1239,-0.126,-0.1255,-0.1228,-0.1191,-0.1153,-0.1084,-0.094,-0.0742,-0.0566,-0.0448,-0.0395,-0.0427,-0.055,-0.0673,-0.0747,-0.0886,-0.1175,-0.1484,-0.1511,-0.1004,-0.0352,0.0443,0.1148,0.1281,0.1105,0.1004,0.1089,0.1223,0.1361,0.1442,0.1516,-0.0598,-0.0699,-0.0737,-0.0737,-0.0742,-0.0769,-0.0812,-0.0876,-0.0966,-0.1078,-0.1201,-0.1313,-0.141,-0.1447,-0.1442,-0.1436,-0.1426,-0.1399,-0.1361,-0.1319,-0.1249,-0.1127,-0.0966,-0.0806,-0.0662,-0.0561,-0.047,-0.0411,-0.0443,-0.055,-0.0646,-0.0742,-0.087,-0.1052,-0.1255,-0.1297,-0.0961,-0.0416,0.0144,0.086,0.1447,0.166,0.1623,0.1639,0.1767,0.1906,0.2029,-0.0918,-0.1014,-0.1036,-0.1009,-0.0982,-0.0988,-0.1014,-0.1052,-0.1121,-0.1233,-0.1367,-0.15,-0.1591,-0.1612,-0.1591,-0.157,-0.1554,-0.1511,-0.1458,-0.1388,-0.1292,-0.1159,-0.1004,-0.0881,-0.0796,-0.0721,-0.0657,-0.0609,-0.0582,-0.0582,-0.0587,-0.063,-0.0731,-0.0876,-0.102,-0.1137,-0.1116,-0.0902,-0.0454,0.0,0.039,0.094,0.1415,0.1901,0.2082,0.1997,0.2093,-0.1217,-0.1287,-0.1287,-0.1228,-0.1153,-0.1111,-0.1111,-0.1137,-0.1212,-0.134,-0.149,-0.1612,-0.1671,-0.1671,-0.1634,-0.1591,-0.1548,-0.1511,-0.1468,-0.1415,-0.134,-0.1255,-0.1159,-0.1041,-0.0918,-0.0822,-0.0742,-0.0667,-0.0614,-0.0582,-0.0561,-0.0571,-0.0614,-0.0694,-0.0828,-0.1014,-0.1148,-0.1148,-0.1068,-0.087,-0.0384,0.0,0.008,0.0619,0.134,0.1719,0.197,-0.1319,-0.1367,-0.1367,-0.1292,-0.118,-0.1062,-0.1009,-0.1046,-0.1164,-0.1329,-0.15,-0.1623,-0.1676,-0.166,-0.1607,-0.1554,-0.1516,-0.1479,-0.1431,-0.1377,-0.134,-0.1308,-0.1281,-0.1223,-0.1116,-0.0956,-0.079,-0.0673,-0.0598,-0.055,-0.0518,-0.0502,-0.0502,-0.0529,-0.0603,-0.0742,-0.0929,-0.1046,-0.1068,-0.1111,-0.1185,-0.1127,-0.0646,-0.0192,0.0005,0.0464,0.1239,0,0,-0.1479,-0.1458,-0.1329,-0.1169,-0.1078,-0.1132,-0.1239,-0.1356,-0.1527,0,0,0,0,0,0,0,0,0,0,0,0,0,-0.1239,-0.1084,-0.0924,-0.0758,-0.063,-0.0561,-0.0513,-0.0481,-0.0464,-0.0475,-0.0518,-0.0593,-0.0678,-0.079,-0.0902,-0.0977,-0.1025,-0.1009,-0.1004,-0.0993,-0.0593,0.0272,0.0876,0,0,0,0,0,0,-0.0577,-0.071,0,0,0,0,0,0,0,0,0,0,0,0,0,0,0,0,0,0,-0.1089,-0.0961,-0.087,-0.0753,-0.0651,-0.0598,-0.0582,-0.0582,-0.0593,-0.0635,-0.0673,-0.0678,-0.0673,-0.0705,-0.0785,-0.0838,-0.0828,-0.0806,-0.0812,-0.087,-0.1052,0,0,0,0,0,0,0,0,0,0,0,0,0,0,0,0,0,0,0,0,0,0,0,0,0,0,0,0,-0.103,-0.0945,-0.0945,-0.1009,-0.1062,-0.1036,-0.0956,-0.0876,-0.0801,-0.0715,-0.0609,-0.0502,-0.0502,-0.0635,-0.079,-0.0993,-0.134,-0.1757,-0.2173,0,0,0,0,0,0,0,0,0,0,0,0,0,0,0,0,0,0,0,0,0,0,0,0,0,0,0,0,0,0,0,0,0,0,0,-0.1159,-0.0982,-0.0849,-0.0699,-0.0534,-0.0459,-0.0539,-0.0678,-0.0822,-0.0966,-0.1137,-0.1377,0,0,0,0,0,0,0,0,0,0,0,0,0,0,0,0,0,0,0,0,0,0,0,0,0,0,0,0,0,0,0,0,0,0,0,0,0,0,-0.095,-0.0817,-0.0731,-0.0673,-0.0689,-0.0726,-0.0753,-0.0801,-0.0822,0,0,0,0,0,0,0,0,0,0,0,0,0,0,0,0,0,0,0,0,0,0,0,0,0,0,0,0,0,0,0,0,0,0,0,0,0,0,0,0,0,-0.0913,-0.086,-0.0806,-0.0721,-0.0635,-0.0534,0,0,0,0,0,0,0,0,0,0,0,0,0,0,0,0,0,0,0,0,0,0,0,0,0,0,0,0,0,0,0,0,0,0,0,0,0,0,0,0,0,0,-0.0838,-0.0731,-0.0593,-0.0395,-0.0214,0,0,0,0,0,0,0,0,0,0,0,0,0,0,0,0,0,0,0,0,0,0,0,0,0,0,0,0,0,0,0,0,0,0,0,0,0,0,0,0,0,0,0,0,0,0,0.0027,0,0,0,0,0,0,0,0,0,0,0,0,0,0,0,0,0,0,0,0,0,0,0,0,0,0,0,0,0,0,0,0,0,0,0,0,0,0,0,0,0,0,0,0,0,0,0,0,0,0,0,0,0,0,0,0,0,0,0,0,0,0,0,0,0,0,0,0,0,0,0,0,0,0,0,0,0,0,0,0,0,0,0,0,0,0,0,0,0,0,0,0,0,0,0,0,0,0,0,0,0,0,0,0,0,0,0,0,0,0,0,0,0,0,0,0,0,0,0,0,0,0,0,0,0,0,0,0,0,0,0,0,0,0,0,0,0,0,0,0,0,0,0,0,0,0,0,0,0,0,0,0,0,0,0,0,0,0,0,0,0,0,0,0,0,0,0,0,0,0,0,0,0,0,0,0,0,0,0,0,0,0,0,0,0,0,0,0,0,0,0,0,0,0,0,0,0,0,0,0,0,0,0,0,0,0,0,0,0,0,0,0,0,0,0,0,0,0,0,0,0,0,0,0,0,0,0,0,0,0,0,0,0,0,0,0,0,0,0,0,0,0,0,0,0,0,0,0,0,0,0,0,0,0,0,0,0,0,0,0,0,0,0,0,0,0,0,0,0,0,0,0,0,0,0,0,0,0,0,0,0,0,0,0,0,0,0,0,0,0,0,0,0,0,0,0,0,0,0,0,0,0,0,0,0,0,0,0,0,0,0,0,0,0,0,0,0,0,0,0,0,0,0,0,0,0,0,0,0,0,0,0,0,0,0,0,0,0,0,0,0,0,0,0,0,0,0,0,0,0,0,0,0,0,0,0,0,0,0,0,0,0,0,0,0,0,0,0,0,0,0,0,0,0,0,0,0,0,0,0,0,0,0,0,0,0,0,0,0,0,0,0,0,0,0,0,0,0,0,0,0,0,0,0,0,0,0,0,0,0,0,0,0,0,0,0,0,0,0,0,0,0,0,0,0,0,0,0,0,0,0,0,0,0,0,0,0,0,0,0,0,0,0,0,0,0,0,0,0,0,0,0,0,0,0,0,0,0,0,0,0,0,0,0,0,0,0,0,0,0,0,0,0,0,0,0,0,0,0,0,0,0,0,0,0,0,0,0,0,0,0,0,0,0,0,0,0,0,0,0,0,0,0,0,0,0,0,0,0,0,0,0,0,0,0,0,0,0,0,0,0,0,0,0,0,0,0,0,0,0,0,0,0,0,0,0,0,0,0,0,0,0,0,0,0,0,0,0,0,0,0,0,0,0,0,0,0,0,0,0,0,0,0,0,0,0,0,0,0,0,0,0,0,0,0,0,0,0,0,0,0,0,0,0,0,0,0,0,0,0,0,0,0,0,0,0,0,0,0,0,0,0,0,0,0,0,0,0,0,0,0,0,0,0,0,0,0,0,0,0,0,0,0,0,0,0,0,0,0,0,0,0,0,0,0,0,0,0,0,0,0,0,0,0,0,0,0,0,0,0,0,0,0,0,0,0,0,0,0,0,0,0,0,0,0,0,0,0,0,0,0,0,0,0,0,0,0,0,0,0,0,0,0,0,0,0,0,0,0,0,0,0,0,0,0,0,0,0,0,0,0,0,0,0,0]}],[{"header":{"parameterUnit":"kt","parameterCategory":2,"dx":1,"dy":1,"la1":29.764190673828125,"la2":30.86408042907715,"lo1":-88.46762084960938,"lo2":-86.9344482421875,"nx":47,"ny":34,"refTime":"2022-10-08T00:00:00:Z","depth":"15","parameterNumber":3,"parameterNumberName":"V-component_of_CURRENTS"},"data":[-0.1191,-0.094,-0.0166,0.0609,0.0993,0.1052,0.0902,0.095,0.1148,0.1009,0.0854,0.0908,0.1095,0.1191,0.0977,0.0753,0.0721,0.063,0.0395,0.0219,0.0448,0.0545,0.0235,-0.0374,-0.079,-0.087,-0.0187,0.063,0.0742,0.0198,0.008,0.0534,0.1036,0.1703,0.2344,0.2798,0.3177,0.3486,0.3732,0.3908,0.4026,0.4052,0.3967,0.3817,0.3663,0.3422,0.3113,-0.1153,-0.0806,-0.0326,0.0288,0.0763,0.1062,0.1244,0.1228,0.11,0.0886,0.0908,0.103,0.1185,0.1089,0.0593,0.0491,0.0619,0.0667,0.0513,0.0336,0.0518,0.0806,0.0507,-0.0107,-0.0571,-0.1014,-0.0641,0.0,0.0459,0.079,0.0464,0.0475,0.0886,0.1388,0.1885,0.2344,0.283,0.3241,0.3583,0.3727,0.3711,0.3604,0.3406,0.3075,0.2702,0.2317,0.1991,-0.0913,-0.0721,-0.0304,0.0166,0.0641,0.0993,0.1143,0.0972,0.0817,0.0796,0.0961,0.11,0.1116,0.0747,0.0299,0.0379,0.0534,0.0651,0.0614,0.0497,0.0539,0.0934,0.0854,0.0363,-0.0171,-0.086,-0.0902,-0.0513,-0.0128,0.0262,0.0614,0.0619,0.0678,0.1084,0.1543,0.1789,0.2216,0.2557,0.2867,0.3065,0.3017,0.2899,0.2702,0.2322,0.1895,0.1548,0.1361,-0.0502,-0.0491,-0.032,0.0032,0.039,0.0603,0.0683,0.0657,0.0721,0.0828,0.0961,0.1009,0.0833,0.0395,0.0219,0.0331,0.0475,0.0593,0.0635,0.0561,0.0507,0.0769,0.1009,0.0822,0.0432,-0.0203,-0.0737,-0.0673,-0.0299,-0.0235,-0.0085,0.0299,0.0598,0.0742,0.094,0.142,0.173,0.197,0.2253,0.2429,0.2429,0.2376,0.228,0.1991,0.1644,0.1329,0.1185,-0.0283,-0.0208,-0.0139,0.0021,0.0208,0.0342,0.0448,0.0539,0.0662,0.0731,0.0747,0.0689,0.0486,0.0283,0.0267,0.0347,0.0438,0.0523,0.0577,0.0555,0.047,0.0534,0.078,0.0897,0.0817,0.0555,0.0,-0.039,-0.0299,-0.0363,-0.0502,-0.0443,0.0027,0.0443,0.0726,0.087,0.0956,0.1442,0.1826,0.2029,0.2109,0.2088,0.204,0.1879,0.1644,0.1372,0.1207,-0.0198,-0.0075,0.0021,0.0096,0.0187,0.0283,0.0363,0.0411,0.0454,0.0475,0.0459,0.0406,0.0331,0.032,0.0347,0.0384,0.0427,0.0464,0.0497,0.0486,0.0438,0.0432,0.0513,0.0625,0.0683,0.0774,0.0582,0.0144,-0.016,-0.0299,-0.0352,-0.0443,-0.0486,-0.0214,0.0363,0.0753,0.0833,0.087,0.1089,0.1484,0.173,0.1783,0.1783,0.1709,0.1628,0.1458,0.1313,-0.0214,-0.0064,0.0059,0.0144,0.0208,0.0262,0.0294,0.032,0.0352,0.0379,0.039,0.0384,0.0384,0.0395,0.0395,0.0411,0.0422,0.0427,0.0422,0.0406,0.0368,0.0336,0.0347,0.039,0.0464,0.0593,0.0641,0.0454,0.0053,-0.0107,-0.0085,-0.0139,-0.0283,-0.0438,-0.0326,0.0342,0.0886,0.0998,0.0918,0.0966,0.1116,0.126,0.1367,0.141,0.1426,0.1377,0.1303,-0.0208,-0.0123,-0.0016,0.008,0.016,0.0224,0.0267,0.032,0.0395,0.0454,0.0481,0.0481,0.0475,0.0464,0.0432,0.0432,0.0427,0.04,0.0368,0.032,0.024,0.0112,0.0016,0.0048,0.0182,0.0347,0.0475,0.0395,0.016,0.0032,0.0021,0.0005,-0.0075,-0.0203,-0.032,-0.0192,0.0336,0.0886,0.103,0.1116,0.0966,0.0993,0.103,0.1036,0.1201,0.1239,0.1223,-0.0043,-0.0032,0.0,0.0064,0.0149,0.024,0.031,0.039,0.0497,0.0577,0.0593,0.0566,0.0523,0.0491,0.0454,0.0443,0.0427,0.0384,0.0315,0.0219,0.0091,-0.0085,-0.023,-0.024,-0.0133,0.0037,0.0192,0.0219,0.0112,0.0011,-0.0005,0.0021,0.0032,-0.0027,-0.0144,-0.023,0.0021,0.0326,0.0614,0.0908,0.1014,0.1153,0.1164,0.1078,0.1062,0.1068,0.1078,0.0053,0.0048,0.0075,0.0133,0.0219,0.0336,0.0443,0.0529,0.0641,0.0715,0.0705,0.0619,0.0518,0.0459,0.04,0.0374,0.0363,0.0315,0.023,0.0117,0.0005,-0.008,-0.0139,-0.0182,-0.0187,-0.0128,-0.0053,-0.0016,-0.0053,-0.0107,-0.0112,-0.0048,0.0048,0.0075,0.0027,-0.0085,-0.0075,0.0149,0.0246,0.0315,0.0491,0.0667,0.1078,0.1511,0.1372,0.1201,0.1169,0.0048,0.0032,0.0037,0.0128,0.0251,0.0395,0.0598,0.0769,0.087,0.0892,0.0828,0.0667,0.0491,0.0379,0.0272,0.0224,0.024,0.0224,0.0149,0.0048,-0.0021,-0.0053,-0.0064,-0.0069,-0.0096,-0.0139,-0.0171,-0.0187,-0.0203,-0.0203,-0.0192,-0.0144,-0.0037,0.0075,0.0144,0.0128,0.0032,0.0032,0.0133,0.0182,0.008,0.0043,0.0411,0.0833,0.1009,0.1287,0.149,0,0,-0.0032,0.0064,0.0182,0.0379,0.0689,0.0934,0.11,0.1137,0.11,0,0,0,0,0,0,0,0,0,0,0,0,0,-0.0059,-0.0096,-0.0155,-0.0208,-0.0235,-0.023,-0.0235,-0.0208,-0.0117,0.0016,0.0155,0.024,0.0203,0.0112,0.0166,0.0117,-0.008,-0.0123,-0.0128,-0.023,-0.0101,0.0144,0.0299,0,0,0,0,0,0,0.0475,0.0982,0,0,0,0,0,0,0,0,0,0,0,0,0,0,0,0,0,0,-0.0144,-0.0182,-0.023,-0.0262,-0.0267,-0.0224,-0.0112,0.0011,0.0139,0.0246,0.0256,0.0224,0.0198,0.0149,-0.0037,-0.0267,-0.0342,-0.0422,-0.0646,-0.0918,-0.0929,0,0,0,0,0,0,0,0,0,0,0,0,0,0,0,0,0,0,0,0,0,0,0,0,0,0,0,0,-0.0288,-0.0278,-0.0283,-0.0219,-0.0075,0.0027,0.0123,0.0203,0.023,0.0198,0.0166,0.0123,0.0016,-0.0176,-0.023,-0.0251,-0.04,-0.0609,-0.0587,0,0,0,0,0,0,0,0,0,0,0,0,0,0,0,0,0,0,0,0,0,0,0,0,0,0,0,0,0,0,0,0,0,0,0,0.0107,0.0166,0.0144,0.0027,-0.0043,0.0032,-0.0021,-0.0043,0.0027,0.0043,-0.0107,-0.024,0,0,0,0,0,0,0,0,0,0,0,0,0,0,0,0,0,0,0,0,0,0,0,0,0,0,0,0,0,0,0,0,0,0,0,0,0,0,-0.0027,-0.0166,-0.0059,0.0,0.0059,0.0144,0.0187,0.0123,-0.0005,0,0,0,0,0,0,0,0,0,0,0,0,0,0,0,0,0,0,0,0,0,0,0,0,0,0,0,0,0,0,0,0,0,0,0,0,0,0,0,0,0,-0.008,0.0,0.0096,0.0176,0.0192,0.0069,0,0,0,0,0,0,0,0,0,0,0,0,0,0,0,0,0,0,0,0,0,0,0,0,0,0,0,0,0,0,0,0,0,0,0,0,0,0,0,0,0,0,-0.0064,0.0021,0.0123,0.0182,-0.0085,0,0,0,0,0,0,0,0,0,0,0,0,0,0,0,0,0,0,0,0,0,0,0,0,0,0,0,0,0,0,0,0,0,0,0,0,0,0,0,0,0,0,0,0,0,0,-0.0267,0,0,0,0,0,0,0,0,0,0,0,0,0,0,0,0,0,0,0,0,0,0,0,0,0,0,0,0,0,0,0,0,0,0,0,0,0,0,0,0,0,0,0,0,0,0,0,0,0,0,0,0,0,0,0,0,0,0,0,0,0,0,0,0,0,0,0,0,0,0,0,0,0,0,0,0,0,0,0,0,0,0,0,0,0,0,0,0,0,0,0,0,0,0,0,0,0,0,0,0,0,0,0,0,0,0,0,0,0,0,0,0,0,0,0,0,0,0,0,0,0,0,0,0,0,0,0,0,0,0,0,0,0,0,0,0,0,0,0,0,0,0,0,0,0,0,0,0,0,0,0,0,0,0,0,0,0,0,0,0,0,0,0,0,0,0,0,0,0,0,0,0,0,0,0,0,0,0,0,0,0,0,0,0,0,0,0,0,0,0,0,0,0,0,0,0,0,0,0,0,0,0,0,0,0,0,0,0,0,0,0,0,0,0,0,0,0,0,0,0,0,0,0,0,0,0,0,0,0,0,0,0,0,0,0,0,0,0,0,0,0,0,0,0,0,0,0,0,0,0,0,0,0,0,0,0,0,0,0,0,0,0,0,0,0,0,0,0,0,0,0,0,0,0,0,0,0,0,0,0,0,0,0,0,0,0,0,0,0,0,0,0,0,0,0,0,0,0,0,0,0,0,0,0,0,0,0,0,0,0,0,0,0,0,0,0,0,0,0,0,0,0,0,0,0,0,0,0,0,0,0,0,0,0,0,0,0,0,0,0,0,0,0,0,0,0,0,0,0,0,0,0,0,0,0,0,0,0,0,0,0,0,0,0,0,0,0,0,0,0,0,0,0,0,0,0,0,0,0,0,0,0,0,0,0,0,0,0,0,0,0,0,0,0,0,0,0,0,0,0,0,0,0,0,0,0,0,0,0,0,0,0,0,0,0,0,0,0,0,0,0,0,0,0,0,0,0,0,0,0,0,0,0,0,0,0,0,0,0,0,0,0,0,0,0,0,0,0,0,0,0,0,0,0,0,0,0,0,0,0,0,0,0,0,0,0,0,0,0,0,0,0,0,0,0,0,0,0,0,0,0,0,0,0,0,0,0,0,0,0,0,0,0,0,0,0,0,0,0,0,0,0,0,0,0,0,0,0,0,0,0,0,0,0,0,0,0,0,0,0,0,0,0,0,0,0,0,0,0,0,0,0,0,0,0,0,0,0,0,0,0,0,0,0,0,0,0,0,0,0,0,0,0,0,0,0,0,0,0,0,0,0,0,0,0,0,0,0,0,0,0,0,0,0,0,0,0,0,0,0,0,0,0,0,0,0,0,0,0,0,0,0,0,0,0,0,0,0,0,0,0,0,0,0,0,0,0,0,0,0,0,0,0,0,0,0,0,0,0,0,0,0,0,0,0,0,0,0,0,0,0,0,0,0,0,0,0,0,0,0,0,0,0,0,0,0,0,0,0,0,0,0,0,0,0,0,0,0,0,0,0,0,0,0,0,0,0,0,0,0,0,0,0,0,0,0,0,0,0,0,0,0,0,0,0,0,0,0,0,0,0,0,0,0,0,0,0,0,0,0,0,0,0,0,0]}]],[[{"header":{"parameterUnit":"kt","parameterCategory":2,"dx":1,"dy":1,"la1":29.764190673828125,"la2":30.86408042907715,"lo1":-88.46762084960938,"lo2":-86.9344482421875,"nx":47,"ny":34,"refTime":"2022-10-08T00:00:00:Z","depth":"20","parameterNumber":2,"parameterNumberName":"U-component_of_CURRENTS"},"data":[-0.0486,-0.0577,-0.0272,0.0326,0.0705,0.0828,0.0518,-0.0032,-0.04,-0.0625,-0.078,-0.0924,-0.1078,-0.1153,-0.1041,-0.0838,-0.0763,-0.0838,-0.1046,-0.1265,-0.1442,-0.1655,-0.1949,-0.2205,-0.2365,-0.2381,-0.204,-0.1682,-0.1703,-0.1906,-0.134,-0.0769,-0.0849,-0.0753,-0.0454,0.0075,0.0561,0.0977,0.1297,0.1532,0.1692,0.1762,0.1682,0.149,0.1303,0.1148,0.095,-0.0742,-0.0886,-0.0774,-0.0593,-0.0374,-0.0358,-0.0545,-0.0694,-0.071,-0.0742,-0.0822,-0.0929,-0.102,-0.1009,-0.0822,-0.0694,-0.0662,-0.0651,-0.0806,-0.1057,-0.1212,-0.1335,-0.1618,-0.1959,-0.2274,-0.2541,-0.2568,-0.2285,-0.1901,-0.1719,-0.1607,-0.0924,-0.078,-0.0822,-0.0529,-0.0272,0.0011,0.0358,0.0715,0.0977,0.1068,0.1068,0.1009,0.095,0.0902,0.0817,0.0673,-0.0988,-0.1244,-0.1426,-0.1468,-0.1404,-0.1223,-0.0972,-0.0753,-0.0683,-0.0726,-0.0801,-0.0892,-0.0913,-0.0753,-0.0625,-0.0635,-0.0609,-0.0555,-0.0657,-0.087,-0.0929,-0.0817,-0.0929,-0.1319,-0.1709,-0.212,-0.2456,-0.2493,-0.2397,-0.2146,-0.181,-0.1415,-0.0673,-0.055,-0.0598,-0.0336,-0.0021,0.0272,0.0523,0.0699,0.079,0.0796,0.0796,0.0838,0.0892,0.0886,0.0828,-0.0881,-0.11,-0.1303,-0.1372,-0.1244,-0.0998,-0.0737,-0.0619,-0.0683,-0.0812,-0.0902,-0.087,-0.0705,-0.0518,-0.0518,-0.0587,-0.0571,-0.0534,-0.0609,-0.0785,-0.0844,-0.0614,-0.0411,-0.0523,-0.0902,-0.1415,-0.1911,-0.2285,-0.2536,-0.26,-0.2317,-0.1842,-0.1404,-0.0539,-0.0117,-0.0214,0.0053,0.0187,0.0502,0.0806,0.0934,0.0977,0.103,0.1073,0.1078,0.1046,0.1009,-0.0582,-0.071,-0.0881,-0.1004,-0.1041,-0.1073,-0.1105,-0.11,-0.1041,-0.0913,-0.0769,-0.0598,-0.0427,-0.0368,-0.0454,-0.0571,-0.0598,-0.0582,-0.0625,-0.0763,-0.0828,-0.0625,-0.031,-0.0171,-0.0299,-0.0678,-0.1239,-0.1735,-0.2066,-0.2221,-0.2322,-0.2269,-0.1767,-0.1308,-0.0683,0.0283,0.031,0.032,0.0577,0.079,0.1052,0.1233,0.1313,0.134,0.1313,0.1255,0.1217,-0.0267,-0.0379,-0.0491,-0.0609,-0.0715,-0.0806,-0.0844,-0.0828,-0.0753,-0.0625,-0.0497,-0.04,-0.0363,-0.0406,-0.0529,-0.0657,-0.071,-0.0726,-0.0758,-0.0828,-0.0865,-0.0774,-0.0502,-0.0219,-0.0101,-0.0198,-0.0443,-0.0737,-0.0982,-0.1137,-0.1308,-0.1607,-0.1858,-0.1639,-0.0966,-0.0635,-0.0075,0.0828,0.079,0.0806,0.0961,0.1095,0.1276,0.141,0.1474,0.1463,0.1447,-0.0149,-0.0235,-0.0272,-0.031,-0.0358,-0.04,-0.0427,-0.0454,-0.0486,-0.0523,-0.0566,-0.0625,-0.0715,-0.0785,-0.0838,-0.0897,-0.094,-0.0961,-0.0961,-0.0961,-0.0961,-0.0902,-0.0715,-0.0438,-0.0203,-0.008,-0.0085,-0.016,-0.0283,-0.0464,-0.0598,-0.0796,-0.1127,-0.1447,-0.1468,-0.0897,-0.0347,0.0,0.071,0.1265,0.1356,0.1255,0.1303,0.1468,0.1639,0.1725,0.1783,-0.0283,-0.0416,-0.0459,-0.0459,-0.0464,-0.0486,-0.0523,-0.0561,-0.063,-0.0737,-0.0865,-0.0998,-0.1121,-0.1169,-0.1159,-0.1159,-0.1159,-0.1143,-0.1116,-0.1089,-0.1041,-0.0924,-0.0742,-0.0539,-0.0358,-0.0219,-0.0155,-0.0176,-0.0294,-0.0438,-0.0566,-0.0689,-0.0844,-0.1036,-0.1228,-0.126,-0.0865,-0.0267,0.0133,0.0603,0.1217,0.1554,0.1698,0.1789,0.1981,0.2146,0.2274,-0.0715,-0.0833,-0.0865,-0.0822,-0.078,-0.0769,-0.0774,-0.079,-0.0838,-0.095,-0.1105,-0.126,0,0,0,0,0,-0.1319,-0.1271,-0.1217,-0.1143,-0.1009,-0.0828,-0.0641,-0.0497,-0.04,-0.0342,-0.0326,-0.0347,-0.0384,-0.0438,-0.0545,-0.0694,-0.0849,-0.0993,-0.11,-0.1062,-0.0812,-0.0331,0.0117,0.0481,0.0849,0.1121,0.1682,0.2162,0.2184,0.2339,0,0,0,0,-0.102,-0.0966,-0.0956,0,0,0,0,0,0,0,0,0,0,0,0,0,0,0,0,0,-0.0747,-0.0582,-0.0481,-0.0427,-0.0406,-0.0379,-0.0358,-0.0416,-0.0534,-0.0651,-0.0806,-0.0988,-0.1089,-0.0993,-0.087,-0.0753,-0.032,0.0117,0.0149,0.0432,0.1116,0.173,0.2146,0,0,0,0,0,0,0,0,0,0,0,0,0,0,0,0,0,0,0,0,0,0,0,0,0,0,-0.0651,-0.0491,-0.0411,-0.0352,-0.0315,-0.032,-0.0374,-0.0454,-0.0561,-0.0715,-0.0892,-0.0988,-0.094,-0.087,-0.095,-0.11,-0.0886,-0.0224,-0.0085,0.0198,0.0865,0,0,0,0,0,0,0,0,0,0,0,0,0,0,0,0,0,0,0,0,0,0,0,0,0,0,0,0,-0.0507,-0.0416,-0.0368,-0.0342,-0.0336,-0.0363,-0.0438,-0.0545,-0.0657,-0.0763,-0.0833,-0.0849,-0.086,-0.0849,-0.0908,-0.1057,-0.0993,-0.0486,0.0288,0,0,0,0,0,0,0,0,0,0,0,0,0,0,0,0,0,0,0,0,0,0,0,0,0,0,0,0,0,-0.0662,-0.0555,-0.0513,-0.0502,-0.0497,-0.0513,-0.0566,-0.063,-0.0657,-0.0641,-0.0641,-0.0689,-0.0742,-0.0731,-0.0785,-0.0998,-0.1201,-0.1479,0,0,0,0,0,0,0,0,0,0,0,0,0,0,0,0,0,0,0,0,0,0,0,0,0,0,0,0,0,0,0,0,0,0,0,0,0,-0.0673,-0.0566,-0.0454,-0.0464,-0.0609,-0.0753,-0.095,-0.1303,-0.1719,-0.213,0,0,0,0,0,0,0,0,0,0,0,0,0,0,0,0,0,0,0,0,0,0,0,0,0,0,0,0,0,0,0,0,0,0,0,0,0,0,-0.0635,-0.0464,-0.04,-0.0491,-0.0641,-0.0785,-0.0913,-0.1073,-0.1281,0,0,0,0,0,0,0,0,0,0,0,0,0,0,0,0,0,0,0,0,0,0,0,0,0,0,0,0,0,0,0,0,0,0,0,0,0,0,0,0,0,-0.0614,-0.0635,-0.0678,-0.0705,-0.0742,-0.0737,0,0,0,0,0,0,0,0,0,0,0,0,0,0,0,0,0,0,0,0,0,0,0,0,0,0,0,0,0,0,0,0,0,0,0,0,0,0,0,0,0,0,0,0,-0.0678,-0.0593,-0.0481,0,0,0,0,0,0,0,0,0,0,0,0,0,0,0,0,0,0,0,0,0,0,0,0,0,0,0,0,0,0,0,0,0,0,0,0,0,0,0,0,0,0,0,0,0,-0.0368,-0.0192,0,0,0,0,0,0,0,0,0,0,0,0,0,0,0,0,0,0,0,0,0,0,0,0,0,0,0,0,0,0,0,0,0,0,0,0,0,0,0,0,0,0,0,0,0,0,0,0,0,0,0,0,0,0,0,0,0,0,0,0,0,0,0,0,0,0,0,0,0,0,0,0,0,0,0,0,0,0,0,0,0,0,0,0,0,0,0,0,0,0,0,0,0,0,0,0,0,0,0,0,0,0,0,0,0,0,0,0,0,0,0,0,0,0,0,0,0,0,0,0,0,0,0,0,0,0,0,0,0,0,0,0,0,0,0,0,0,0,0,0,0,0,0,0,0,0,0,0,0,0,0,0,0,0,0,0,0,0,0,0,0,0,0,0,0,0,0,0,0,0,0,0,0,0,0,0,0,0,0,0,0,0,0,0,0,0,0,0,0,0,0,0,0,0,0,0,0,0,0,0,0,0,0,0,0,0,0,0,0,0,0,0,0,0,0,0,0,0,0,0,0,0,0,0,0,0,0,0,0,0,0,0,0,0,0,0,0,0,0,0,0,0,0,0,0,0,0,0,0,0,0,0,0,0,0,0,0,0,0,0,0,0,0,0,0,0,0,0,0,0,0,0,0,0,0,0,0,0,0,0,0,0,0,0,0,0,0,0,0,0,0,0,0,0,0,0,0,0,0,0,0,0,0,0,0,0,0,0,0,0,0,0,0,0,0,0,0,0,0,0,0,0,0,0,0,0,0,0,0,0,0,0,0,0,0,0,0,0,0,0,0,0,0,0,0,0,0,0,0,0,0,0,0,0,0,0,0,0,0,0,0,0,0,0,0,0,0,0,0,0,0,0,0,0,0,0,0,0,0,0,0,0,0,0,0,0,0,0,0,0,0,0,0,0,0,0,0,0,0,0,0,0,0,0,0,0,0,0,0,0,0,0,0,0,0,0,0,0,0,0,0,0,0,0,0,0,0,0,0,0,0,0,0,0,0,0,0,0,0,0,0,0,0,0,0,0,0,0,0,0,0,0,0,0,0,0,0,0,0,0,0,0,0,0,0,0,0,0,0,0,0,0,0,0,0,0,0,0,0,0,0,0,0,0,0,0,0,0,0,0,0,0,0,0,0,0,0,0,0,0,0,0,0,0,0,0,0,0,0,0,0,0,0,0,0,0,0,0,0,0,0,0,0,0,0,0,0,0,0,0,0,0,0,0,0,0,0,0,0,0,0,0,0,0,0,0,0,0,0,0,0,0,0,0,0,0,0,0,0,0,0,0,0,0,0,0,0,0,0,0,0,0,0,0,0,0,0,0,0,0,0,0,0,0,0,0,0,0,0,0,0,0,0,0,0,0,0,0,0,0,0,0,0,0,0,0,0,0,0,0,0,0,0,0,0,0,0,0,0,0,0,0,0,0,0,0,0,0,0,0,0,0,0,0,0,0,0,0,0,0,0,0,0,0,0,0,0,0,0,0,0,0,0,0,0,0,0,0,0,0,0,0,0,0,0,0,0,0,0,0,0,0,0,0,0,0,0,0,0,0,0,0,0,0,0,0,0,0,0,0,0,0,0,0,0,0,0,0,0,0,0,0,0,0,0,0,0,0,0,0,0,0,0,0,0,0,0,0,0,0,0,0,0,0,0,0,0,0,0,0,0,0,0,0,0,0,0,0,0,0,0,0,0,0,0,0,0,0,0,0,0,0]}],[{"header":{"parameterUnit":"kt","parameterCategory":2,"dx":1,"dy":1,"la1":29.764190673828125,"la2":30.86408042907715,"lo1":-88.46762084960938,"lo2":-86.9344482421875,"nx":47,"ny":34,"refTime":"2022-10-08T00:00:00:Z","depth":"20","parameterNumber":3,"parameterNumberName":"V-component_of_CURRENTS"},"data":[-0.2242,-0.2189,-0.1287,-0.0128,0.0534,0.0603,0.0561,0.0598,0.0796,0.0625,0.0406,0.0464,0.0689,0.0796,0.0518,0.0347,0.0315,0.0315,0.016,-0.0011,0.0256,0.0411,0.016,-0.0384,-0.0774,-0.094,-0.0603,-0.0182,-0.0219,-0.0582,-0.1041,-0.0432,0.0117,0.0662,0.1404,0.1938,0.2403,0.2856,0.3177,0.3486,0.3556,0.3556,0.3497,0.347,0.3406,0.3123,0.2707,-0.1719,-0.1725,-0.1255,-0.0518,0.024,0.0603,0.0817,0.0844,0.0673,0.0427,0.04,0.0529,0.071,0.0635,0.0101,0.0064,0.0171,0.0246,0.0262,0.0246,0.0358,0.0587,0.032,-0.0149,-0.0507,-0.0806,-0.0646,-0.0363,-0.0133,-0.0037,-0.0448,-0.0673,-0.0037,0.047,0.0982,0.1495,0.2024,0.2467,0.2942,0.3337,0.3225,0.3123,0.299,0.275,0.2403,0.1975,0.1511,-0.0982,-0.1121,-0.0865,-0.0422,0.0117,0.0539,0.0603,0.0416,0.0278,0.0267,0.0427,0.0555,0.0593,0.0246,-0.0187,-0.0085,0.0021,0.0123,0.0235,0.0384,0.0427,0.0561,0.0454,0.0123,-0.016,-0.0566,-0.0667,-0.0432,-0.0288,-0.0192,-0.0166,-0.0352,-0.0406,0.0198,0.071,0.0993,0.141,0.1778,0.2114,0.2536,0.2659,0.252,0.2317,0.1922,0.1506,0.1132,0.0876,-0.0513,-0.055,-0.047,-0.0214,0.0032,0.0192,0.0176,0.008,0.0176,0.0272,0.0384,0.0427,0.0262,-0.0149,-0.0272,-0.0123,-0.0011,0.0075,0.0214,0.0406,0.0422,0.04,0.0422,0.023,0.0112,-0.0117,-0.0459,-0.0379,-0.024,-0.0288,-0.0422,-0.0347,-0.0395,-0.0379,0.0128,0.0635,0.0988,0.1212,0.1495,0.1799,0.205,0.2018,0.1847,0.15,0.1169,0.087,0.0731,-0.0358,-0.0304,-0.0251,-0.016,-0.008,0.0005,0.0053,0.0091,0.0192,0.0203,0.0176,0.0112,-0.008,-0.024,-0.0203,-0.0053,0.0053,0.0117,0.0235,0.039,0.0427,0.0363,0.0331,0.023,0.016,0.0256,0.008,-0.0149,-0.0123,-0.0246,-0.0443,-0.0475,-0.0502,-0.047,-0.0294,-0.0117,0.0262,0.0721,0.1164,0.1415,0.1586,0.1703,0.1612,0.1351,0.1121,0.0881,0.0769,-0.0411,-0.0283,-0.0182,-0.0133,-0.0101,-0.0027,0.0032,0.0048,0.0075,0.0048,0.0016,-0.0027,-0.008,-0.0075,-0.0027,0.008,0.0155,0.0187,0.0251,0.0347,0.0406,0.0411,0.039,0.0299,0.0176,0.0326,0.0475,0.0198,-0.0032,-0.0187,-0.024,-0.0331,-0.0448,-0.0432,-0.0358,-0.032,-0.0176,0.0043,0.0497,0.0897,0.1159,0.1223,0.1255,0.1196,0.1105,0.095,0.0854,-0.0571,-0.039,-0.0262,-0.0171,-0.0101,-0.0048,-0.0032,-0.0021,0.0016,0.0048,0.0091,0.0139,0.0176,0.0192,0.0182,0.0219,0.0246,0.0246,0.0256,0.0278,0.0283,0.0262,0.0219,0.0182,0.0155,0.0208,0.04,0.0331,-0.0011,-0.0128,-0.0048,-0.0064,-0.023,-0.0384,-0.0342,-0.0053,0.0053,0.0011,-0.0027,0.0117,0.0395,0.0577,0.0747,0.0812,0.0892,0.087,0.0796,-0.0443,-0.0352,-0.0272,-0.0208,-0.0139,-0.0064,-0.0027,0.0032,0.0133,0.0235,0.0304,0.0342,0.0358,0.0347,0.0304,0.0304,0.0299,0.0272,0.024,0.0192,0.0112,-0.0064,-0.0288,-0.0384,-0.0342,-0.0182,0.0048,0.0101,-0.0032,-0.0075,-0.0032,0.0,-0.0053,-0.0171,-0.0294,-0.0198,0.0187,0.0246,0.0203,0.0272,0.0123,0.0085,0.0085,0.0192,0.0513,0.0699,0.0699,-0.0059,-0.0064,-0.0059,-0.0037,0.0016,0.0096,0.0149,0.0214,0.032,0.0422,0.047,0.0464,0,0,0,0,0,0.0304,0.0235,0.0133,-0.0005,-0.0203,-0.0406,-0.0518,-0.0539,-0.0475,-0.0336,-0.0208,-0.0187,-0.0203,-0.0176,-0.0059,0.0016,-0.0021,-0.0128,-0.0219,0.0,0.0192,0.0246,0.0384,0.0294,0.0358,0.031,0.0278,0.0342,0.0448,0.0603,0,0,0,0,0.0171,0.0272,0.0358,0,0,0,0,0,0,0,0,0,0,0,0,0,0,0,0,0,-0.0304,-0.0358,-0.0384,-0.0395,-0.0416,-0.0411,-0.039,-0.0224,-0.0021,0.0064,0.0032,-0.0069,-0.008,0.0091,-0.0037,-0.016,-0.0048,0.0123,0.0486,0.086,0.0646,0.0614,0.0646,0,0,0,0,0,0,0,0,0,0,0,0,0,0,0,0,0,0,0,0,0,0,0,0,0,0,-0.0272,-0.0374,-0.0438,-0.0422,-0.0422,-0.0347,-0.016,0.0021,0.0133,0.0139,0.0053,0.0016,0.0,-0.0187,-0.0566,-0.0758,-0.0662,-0.0368,0.0,0.0278,0.0502,0,0,0,0,0,0,0,0,0,0,0,0,0,0,0,0,0,0,0,0,0,0,0,0,0,0,0,0,-0.0304,-0.0326,-0.0336,-0.032,-0.0219,-0.0069,0.0107,0.023,0.0214,0.0117,0.0133,0.0,-0.0251,-0.0598,-0.1068,-0.1271,-0.1148,-0.1249,-0.1335,0,0,0,0,0,0,0,0,0,0,0,0,0,0,0,0,0,0,0,0,0,0,0,0,0,0,0,0,0,-0.0256,-0.0267,-0.023,-0.0133,-0.0027,0.0096,0.0214,0.024,0.0219,0.0187,0.0123,-0.0075,-0.0358,-0.0529,-0.0812,-0.1356,-0.1719,-0.1548,0,0,0,0,0,0,0,0,0,0,0,0,0,0,0,0,0,0,0,0,0,0,0,0,0,0,0,0,0,0,0,0,0,0,0,0,0,0.0171,0.0149,0.0107,0.0005,-0.0182,-0.0251,-0.0288,-0.0427,-0.0641,-0.0737,0,0,0,0,0,0,0,0,0,0,0,0,0,0,0,0,0,0,0,0,0,0,0,0,0,0,0,0,0,0,0,0,0,0,0,0,0,0,0.0005,-0.0064,0.0021,-0.0011,-0.0016,0.0043,0.0059,-0.0096,-0.0246,0,0,0,0,0,0,0,0,0,0,0,0,0,0,0,0,0,0,0,0,0,0,0,0,0,0,0,0,0,0,0,0,0,0,0,0,0,0,0,0,0,0.0011,0.008,0.0171,0.0214,0.0149,0.0016,0,0,0,0,0,0,0,0,0,0,0,0,0,0,0,0,0,0,0,0,0,0,0,0,0,0,0,0,0,0,0,0,0,0,0,0,0,0,0,0,0,0,0,0,0.0192,0.0219,0.0107,0,0,0,0,0,0,0,0,0,0,0,0,0,0,0,0,0,0,0,0,0,0,0,0,0,0,0,0,0,0,0,0,0,0,0,0,0,0,0,0,0,0,0,0,0,0.0198,-0.0075,0,0,0,0,0,0,0,0,0,0,0,0,0,0,0,0,0,0,0,0,0,0,0,0,0,0,0,0,0,0,0,0,0,0,0,0,0,0,0,0,0,0,0,0,0,0,0,0,0,0,0,0,0,0,0,0,0,0,0,0,0,0,0,0,0,0,0,0,0,0,0,0,0,0,0,0,0,0,0,0,0,0,0,0,0,0,0,0,0,0,0,0,0,0,0,0,0,0,0,0,0,0,0,0,0,0,0,0,0,0,0,0,0,0,0,0,0,0,0,0,0,0,0,0,0,0,0,0,0,0,0,0,0,0,0,0,0,0,0,0,0,0,0,0,0,0,0,0,0,0,0,0,0,0,0,0,0,0,0,0,0,0,0,0,0,0,0,0,0,0,0,0,0,0,0,0,0,0,0,0,0,0,0,0,0,0,0,0,0,0,0,0,0,0,0,0,0,0,0,0,0,0,0,0,0,0,0,0,0,0,0,0,0,0,0,0,0,0,0,0,0,0,0,0,0,0,0,0,0,0,0,0,0,0,0,0,0,0,0,0,0,0,0,0,0,0,0,0,0,0,0,0,0,0,0,0,0,0,0,0,0,0,0,0,0,0,0,0,0,0,0,0,0,0,0,0,0,0,0,0,0,0,0,0,0,0,0,0,0,0,0,0,0,0,0,0,0,0,0,0,0,0,0,0,0,0,0,0,0,0,0,0,0,0,0,0,0,0,0,0,0,0,0,0,0,0,0,0,0,0,0,0,0,0,0,0,0,0,0,0,0,0,0,0,0,0,0,0,0,0,0,0,0,0,0,0,0,0,0,0,0,0,0,0,0,0,0,0,0,0,0,0,0,0,0,0,0,0,0,0,0,0,0,0,0,0,0,0,0,0,0,0,0,0,0,0,0,0,0,0,0,0,0,0,0,0,0,0,0,0,0,0,0,0,0,0,0,0,0,0,0,0,0,0,0,0,0,0,0,0,0,0,0,0,0,0,0,0,0,0,0,0,0,0,0,0,0,0,0,0,0,0,0,0,0,0,0,0,0,0,0,0,0,0,0,0,0,0,0,0,0,0,0,0,0,0,0,0,0,0,0,0,0,0,0,0,0,0,0,0,0,0,0,0,0,0,0,0,0,0,0,0,0,0,0,0,0,0,0,0,0,0,0,0,0,0,0,0,0,0,0,0,0,0,0,0,0,0,0,0,0,0,0,0,0,0,0,0,0,0,0,0,0,0,0,0,0,0,0,0,0,0,0,0,0,0,0,0,0,0,0,0,0,0,0,0,0,0,0,0,0,0,0,0,0,0,0,0,0,0,0,0,0,0,0,0,0,0,0,0,0,0,0,0,0,0,0,0,0,0,0,0,0,0,0,0,0,0,0,0,0,0,0,0,0,0,0,0,0,0,0,0,0,0,0,0,0,0,0,0,0,0,0,0,0,0,0,0,0,0,0,0,0,0,0,0,0,0,0,0,0,0,0,0,0,0,0,0,0,0,0,0,0,0,0,0,0,0,0,0,0,0,0,0,0,0,0,0,0,0,0,0,0,0,0,0,0,0,0,0,0,0,0,0,0,0,0,0,0,0,0,0,0,0,0,0,0,0,0,0,0,0,0,0,0,0,0,0,0,0,0,0,0,0,0,0,0,0,0,0,0,0,0,0,0,0,0,0,0,0,0,0,0,0,0,0,0,0,0,0,0,0]}]],[[{"header":{"parameterUnit":"kt","parameterCategory":2,"dx":1,"dy":1,"la1":29.764190673828125,"la2":30.86408042907715,"lo1":-88.46762084960938,"lo2":-86.9344482421875,"nx":47,"ny":34,"refTime":"2022-10-08T00:00:00:Z","depth":"25","parameterNumber":2,"parameterNumberName":"U-component_of_CURRENTS"},"data":[-0.0694,-0.1682,-0.2093,-0.1703,-0.1062,-0.0561,-0.0352,-0.016,-0.0214,-0.0555,-0.0705,-0.0673,-0.0715,-0.0812,-0.0673,-0.0486,-0.0497,-0.063,-0.0929,-0.1233,-0.1404,-0.1527,-0.1687,-0.1933,-0.2216,-0.2365,-0.2077,-0.1895,-0.2488,-0.3326,-0.3251,-0.2301,-0.2061,-0.1874,-0.1543,-0.0977,-0.0294,0.0288,0.0817,0.1351,0.1564,0.158,0.1511,0.1447,0.1377,0.1292,0.1116,-0.0513,-0.1217,-0.1986,-0.2072,-0.1821,-0.1377,-0.0844,-0.0481,-0.0534,-0.0603,-0.0571,-0.0561,-0.0635,-0.0598,-0.0475,-0.0486,-0.0502,-0.0502,-0.0683,-0.0966,-0.1073,-0.1089,-0.1228,-0.1527,-0.1869,-0.2184,-0.2381,-0.2146,-0.189,-0.2349,-0.3134,-0.2814,-0.181,-0.1757,-0.1479,-0.0886,-0.0507,-0.0219,0.0192,0.0651,0.0993,0.1052,0.1036,0.1057,0.1084,0.102,0.0838,-0.0886,-0.1041,-0.1249,-0.1361,-0.1196,-0.0961,-0.0699,-0.0497,-0.0475,-0.0459,-0.0443,-0.0539,-0.0635,-0.0464,-0.0374,-0.0491,-0.0464,-0.0374,-0.0475,-0.0753,-0.0838,-0.0593,-0.0529,-0.0886,-0.1276,-0.1618,-0.1981,-0.2173,-0.2189,-0.2072,-0.2248,-0.2771,-0.2397,-0.1351,-0.1207,-0.0918,-0.0518,-0.0256,-0.0101,0.0171,0.0614,0.0828,0.0966,0.1052,0.1089,0.1036,0.0918,-0.0822,-0.1046,-0.1244,-0.1271,-0.1052,-0.071,-0.0422,-0.0331,-0.0427,-0.055,-0.0651,-0.0625,-0.0454,-0.0278,-0.0363,-0.047,-0.0427,-0.0336,-0.0422,-0.0689,-0.079,-0.0518,-0.0176,-0.0166,-0.0438,-0.0945,-0.1575,-0.1975,-0.2242,-0.2365,-0.2173,-0.2082,-0.228,-0.2221,-0.1239,-0.0481,-0.0262,-0.0283,-0.0128,0.0192,0.0609,0.0977,0.1196,0.1228,0.1239,0.1159,0.1084,-0.0497,-0.0582,-0.0715,-0.0763,-0.0721,-0.0737,-0.078,-0.0785,-0.0726,-0.0646,-0.0571,-0.0422,-0.0235,-0.0198,-0.0315,-0.0438,-0.0438,-0.0384,-0.0438,-0.0646,-0.0758,-0.0545,-0.0123,0.0123,0.0075,-0.0288,-0.0881,-0.1324,-0.1511,-0.1735,-0.2072,-0.2093,-0.1831,-0.1794,-0.2018,-0.1463,-0.0662,0.024,0.0315,0.0411,0.0683,0.1046,0.1377,0.1468,0.1452,0.1361,0.1308,-0.0214,-0.0283,-0.0363,-0.0454,-0.0523,-0.0577,-0.0593,-0.0577,-0.0534,-0.0459,-0.0358,-0.0256,-0.0214,-0.0262,-0.04,-0.0529,-0.0566,-0.0566,-0.0603,-0.0694,-0.0753,-0.0678,-0.0358,0.0096,0.031,0.0214,-0.0027,-0.024,-0.0283,-0.0272,-0.0801,-0.1511,-0.1757,-0.1709,-0.1431,-0.1388,-0.1607,-0.0961,0.0101,0.0593,0.0812,0.0897,0.1137,0.1377,0.1527,0.1548,0.1527,-0.0107,-0.0182,-0.0198,-0.0214,-0.0251,-0.0299,-0.0336,-0.0363,-0.0395,-0.0427,-0.047,-0.0539,0,0,0,0,0,-0.0849,-0.0844,-0.0849,-0.0849,-0.0801,-0.0614,-0.031,-0.0048,0.0112,0.0155,0.0155,0.0171,0.0011,-0.0331,-0.0705,-0.1068,-0.1239,-0.1175,-0.1212,-0.1062,-0.1201,-0.1143,-0.055,0.0507,0.0956,0.1127,0.1255,0.1527,0.1783,0.1842,-0.0256,-0.0384,-0.0416,-0.0411,-0.0411,-0.0438,-0.047,0,0,0,0,0,0,0,0,0,0,0,0,0,0,0,0,-0.0507,-0.0315,-0.0139,-0.0053,-0.0091,-0.023,-0.0379,-0.0513,-0.0646,-0.0817,-0.1004,-0.1057,-0.0934,-0.1057,-0.0796,-0.0545,-0.0758,-0.0673,-0.0406,0.0272,0.1014,0.149,0.1927,0.221,0,0,0,0,0,0,0,0,0,0,0,0,0,0,0,0,0,0,0,0,0,0,0,0,0,0,-0.0283,-0.0262,-0.0283,-0.032,-0.0374,-0.0497,-0.0662,-0.0822,-0.0945,-0.0865,-0.078,-0.0833,-0.0956,-0.0187,-0.0123,-0.0208,-0.0358,-0.0091,0.0972,0.1655,0.2141,0,0,0,0,0,0,0,0,0,0,0,0,0,0,0,0,0,0,0,0,0,0,0,0,0,0,0,0,0,-0.0347,-0.031,-0.0368,-0.0491,-0.0625,-0.0774,-0.087,-0.0715,-0.0619,-0.0635,-0.1111,-0.1692,-0.1164,-0.047,-0.0529,-0.0411,0.0331,0.1287,0,0,0,0,0,0,0,0,0,0,0,0,0,0,0,0,0,0,0,0,0,0,0,0,0,0,0,0,0,0,0,0,0,-0.0416,-0.0534,-0.0689,-0.0715,-0.0587,-0.0646,-0.0673,-0.0796,-0.126,-0.2152,-0.1831,-0.0726,-0.0705,-0.039,0,0,0,0,0,0,0,0,0,0,0,0,0,0,0,0,0,0,0,0,0,0,0,0,0,0,0,0,0,0,0,0,0,0,0,0,0,-0.0651,-0.0486,-0.0363,-0.039,-0.055,-0.0609,-0.094,-0.1831,-0.2152,-0.158,0,0,0,0,0,0,0,0,0,0,0,0,0,0,0,0,0,0,0,0,0,0,0,0,0,0,0,0,0,0,0,0,0,0,0,0,0,0,-0.0571,-0.0448,-0.0384,-0.0368,-0.0384,-0.0534,-0.0796,-0.1372,-0.189,0,0,0,0,0,0,0,0,0,0,0,0,0,0,0,0,0,0,0,0,0,0,0,0,0,0,0,0,0,0,0,0,0,0,0,0,0,0,0,-0.0427,-0.0443,-0.0587,-0.0689,-0.0758,-0.0892,-0.0934,-0.1025,0,0,0,0,0,0,0,0,0,0,0,0,0,0,0,0,0,0,0,0,0,0,0,0,0,0,0,0,0,0,0,0,0,0,0,0,0,0,0,0,0,0,0,0,-0.0886,-0.1014,-0.102,0,0,0,0,0,0,0,0,0,0,0,0,0,0,0,0,0,0,0,0,0,0,0,0,0,0,0,0,0,0,0,0,0,0,0,0,0,0,0,0,0,0,0,0,0,0,0,0,0,0,0,0,0,0,0,0,0,0,0,0,0,0,0,0,0,0,0,0,0,0,0,0,0,0,0,0,0,0,0,0,0,0,0,0,0,0,0,0,0,0,0,0,0,0,0,0,0,0,0,0,0,0,0,0,0,0,0,0,0,0,0,0,0,0,0,0,0,0,0,0,0,0,0,0,0,0,0,0,0,0,0,0,0,0,0,0,0,0,0,0,0,0,0,0,0,0,0,0,0,0,0,0,0,0,0,0,0,0,0,0,0,0,0,0,0,0,0,0,0,0,0,0,0,0,0,0,0,0,0,0,0,0,0,0,0,0,0,0,0,0,0,0,0,0,0,0,0,0,0,0,0,0,0,0,0,0,0,0,0,0,0,0,0,0,0,0,0,0,0,0,0,0,0,0,0,0,0,0,0,0,0,0,0,0,0,0,0,0,0,0,0,0,0,0,0,0,0,0,0,0,0,0,0,0,0,0,0,0,0,0,0,0,0,0,0,0,0,0,0,0,0,0,0,0,0,0,0,0,0,0,0,0,0,0,0,0,0,0,0,0,0,0,0,0,0,0,0,0,0,0,0,0,0,0,0,0,0,0,0,0,0,0,0,0,0,0,0,0,0,0,0,0,0,0,0,0,0,0,0,0,0,0,0,0,0,0,0,0,0,0,0,0,0,0,0,0,0,0,0,0,0,0,0,0,0,0,0,0,0,0,0,0,0,0,0,0,0,0,0,0,0,0,0,0,0,0,0,0,0,0,0,0,0,0,0,0,0,0,0,0,0,0,0,0,0,0,0,0,0,0,0,0,0,0,0,0,0,0,0,0,0,0,0,0,0,0,0,0,0,0,0,0,0,0,0,0,0,0,0,0,0,0,0,0,0,0,0,0,0,0,0,0,0,0,0,0,0,0,0,0,0,0,0,0,0,0,0,0,0,0,0,0,0,0,0,0,0,0,0,0,0,0,0,0,0,0,0,0,0,0,0,0,0,0,0,0,0,0,0,0,0,0,0,0,0,0,0,0,0,0,0,0,0,0,0,0,0,0,0,0,0,0,0,0,0,0,0,0,0,0,0,0,0,0,0,0,0,0,0,0,0,0,0,0,0,0,0,0,0,0,0,0,0,0,0,0,0,0,0,0,0,0,0,0,0,0,0,0,0,0,0,0,0,0,0,0,0,0,0,0,0,0,0,0,0,0,0,0,0,0,0,0,0,0,0,0,0,0,0,0,0,0,0,0,0,0,0,0,0,0,0,0,0,0,0,0,0,0,0,0,0,0,0,0,0,0,0,0,0,0,0,0,0,0,0,0,0,0,0,0,0,0,0,0,0,0,0,0,0,0,0,0,0,0,0,0,0,0,0,0,0,0,0,0,0,0,0,0,0,0,0,0,0,0,0,0,0,0,0,0,0,0,0,0,0,0,0,0,0,0,0,0,0,0,0,0,0,0,0,0,0,0,0,0,0,0,0,0,0,0,0,0,0,0,0,0,0,0,0,0,0,0,0,0,0,0,0,0,0,0,0,0,0,0,0,0,0,0,0,0,0,0,0,0,0,0,0,0,0,0,0,0,0,0,0,0,0,0,0,0,0,0,0,0,0,0,0,0,0,0,0,0,0,0,0,0,0,0,0,0,0,0,0,0,0,0,0,0,0,0,0,0,0,0,0,0,0,0,0,0,0,0,0,0,0,0,0,0,0,0,0,0,0,0,0,0,0,0,0,0,0,0,0,0,0,0,0,0,0,0,0,0,0,0,0,0,0,0,0,0,0,0,0,0,0,0,0,0,0,0,0,0,0,0,0,0,0,0,0,0,0,0,0,0,0,0,0,0,0,0,0,0,0,0,0,0,0,0,0,0,0,0,0,0,0,0,0,0,0,0,0,0,0,0,0,0,0,0,0,0,0,0,0]}],[{"header":{"parameterUnit":"kt","parameterCategory":2,"dx":1,"dy":1,"la1":29.764190673828125,"la2":30.86408042907715,"lo1":-88.46762084960938,"lo2":-86.9344482421875,"nx":47,"ny":34,"refTime":"2022-10-08T00:00:00:Z","depth":"25","parameterNumber":3,"parameterNumberName":"V-component_of_CURRENTS"},"data":[-0.2515,-0.2419,-0.1223,-0.0459,-0.0187,-0.0267,-0.0326,0.0037,-0.0155,-0.0838,-0.0913,-0.0347,0.0272,0.047,0.0123,-0.0016,-0.0005,0.0091,-0.0064,-0.0203,0.0043,0.0294,0.0096,-0.0347,-0.0721,-0.0902,-0.0908,-0.0918,-0.1111,-0.0972,-0.1447,-0.1703,-0.1239,-0.0763,0.0144,0.0961,0.1516,0.1922,0.2413,0.3022,0.3107,0.3059,0.3097,0.3209,0.3203,0.2872,0.2371,-0.1874,-0.2317,-0.1815,-0.1095,-0.0481,-0.0219,0.0,0.0133,-0.0641,-0.0812,-0.0529,-0.0043,0.032,0.0182,-0.0304,-0.0182,-0.0091,-0.0043,0.0133,0.0166,0.0214,0.0384,0.0128,-0.016,-0.039,-0.0374,-0.0502,-0.0646,-0.0806,-0.1004,-0.095,-0.1431,-0.1415,-0.0705,-0.0427,0.0192,0.0796,0.1388,0.1927,0.2456,0.2835,0.2846,0.2696,0.2504,0.2162,0.1655,0.1127,-0.0988,-0.1447,-0.1447,-0.0918,-0.0443,-0.0166,-0.0214,-0.0582,-0.071,-0.0464,-0.0096,0.0112,0.0176,-0.0224,-0.0491,-0.0278,-0.023,-0.0208,0.0037,0.0288,0.032,0.0224,0.0021,-0.0096,-0.0123,0.0043,0.0,-0.0133,-0.0486,-0.0678,-0.0924,-0.0908,-0.1196,-0.1319,-0.0502,-0.0166,0.024,0.0448,0.0763,0.1361,0.1933,0.212,0.1938,0.1564,0.1132,0.0683,0.039,-0.0502,-0.0555,-0.0507,-0.032,-0.0272,-0.0246,-0.0368,-0.0459,-0.0304,-0.0149,-0.0005,0.0005,-0.0198,-0.0518,-0.0491,-0.0283,-0.0219,-0.0203,-0.0016,0.0315,0.0363,0.0155,-0.0101,-0.0288,-0.0198,0.0112,0.031,0.0283,-0.0085,-0.0342,-0.0796,-0.0924,-0.0753,-0.0934,-0.1468,-0.0902,-0.0278,-0.0016,0.0251,0.0598,0.1046,0.1367,0.1249,0.0918,0.0593,0.032,0.0187,-0.0374,-0.0336,-0.0299,-0.0283,-0.0299,-0.0246,-0.0294,-0.0246,-0.0198,-0.0166,-0.0166,-0.0267,-0.0448,-0.0491,-0.0363,-0.0176,-0.0096,-0.0064,0.0059,0.0299,0.039,0.0294,0.0037,-0.0294,-0.0416,-0.0053,0.0443,0.0523,0.0315,0.0011,-0.0358,-0.0555,-0.0806,-0.0614,-0.0555,-0.1143,-0.1484,-0.0497,-0.0053,0.0304,0.047,0.0662,0.0753,0.0662,0.0459,0.0262,0.0278,-0.0459,-0.0347,-0.0262,-0.0246,-0.0262,-0.0246,-0.0246,-0.0224,-0.0192,-0.0155,-0.016,-0.0192,-0.0224,-0.0187,-0.0107,0.0005,0.0064,0.0085,0.0144,0.0267,0.0368,0.04,0.0358,0.0107,-0.0155,-0.0096,0.0363,0.0497,0.0315,0.0085,-0.0021,-0.024,-0.039,-0.0539,-0.0742,-0.0454,-0.0534,-0.1159,-0.1036,-0.0635,0.0,0.0107,0.0198,0.0272,0.0336,0.0304,0.0288,-0.0619,-0.0459,-0.0358,-0.0283,-0.0219,-0.0171,-0.0149,-0.0139,-0.0091,-0.0027,0.0037,0.0096,0,0,0,0,0,0.0187,0.0198,0.0219,0.024,0.0219,0.0176,0.0112,0.0027,0.0016,0.0192,0.0208,-0.0021,-0.0059,0.0053,0.0011,-0.0133,-0.0251,-0.0416,-0.0609,-0.0657,-0.0529,-0.0796,-0.1073,-0.1244,-0.1212,-0.0982,-0.0587,-0.024,-0.0011,0.0096,-0.0448,-0.0374,-0.031,-0.0256,-0.0192,-0.0117,-0.0069,0,0,0,0,0,0,0,0,0,0,0,0,0,0,0,0,-0.0432,-0.0422,-0.0326,-0.0139,-0.0069,-0.0144,-0.0149,-0.0069,0.0,-0.0021,-0.0123,-0.0203,-0.0278,-0.0384,-0.0828,-0.0683,-0.0422,-0.0715,-0.086,-0.1132,-0.1196,-0.0822,-0.0571,-0.0299,0,0,0,0,0,0,0,0,0,0,0,0,0,0,0,0,0,0,0,0,0,0,0,0,0,0,-0.0411,-0.031,-0.0278,-0.0283,-0.0246,-0.0101,0.0,-0.0011,-0.0101,-0.016,-0.0246,-0.0486,-0.1089,-0.0998,-0.0982,-0.0571,-0.0422,-0.0507,-0.0657,-0.0577,-0.0432,0,0,0,0,0,0,0,0,0,0,0,0,0,0,0,0,0,0,0,0,0,0,0,0,0,0,0,0,0,-0.0464,-0.0443,-0.0283,-0.0059,0.0053,0.0043,-0.0032,-0.023,-0.0432,-0.0774,-0.126,-0.1623,-0.1682,-0.1185,-0.0464,-0.0491,-0.0566,-0.0539,0,0,0,0,0,0,0,0,0,0,0,0,0,0,0,0,0,0,0,0,0,0,0,0,0,0,0,0,0,0,0,0,0,-0.0005,0.0123,0.0155,0.0064,-0.0256,-0.0464,-0.0838,-0.118,-0.1474,-0.2002,-0.22,-0.1666,-0.1111,-0.0881,0,0,0,0,0,0,0,0,0,0,0,0,0,0,0,0,0,0,0,0,0,0,0,0,0,0,0,0,0,0,0,0,0,0,0,0,0,0.0117,-0.0246,-0.0411,-0.0678,-0.1073,-0.1233,-0.1575,-0.2403,-0.2648,-0.2632,0,0,0,0,0,0,0,0,0,0,0,0,0,0,0,0,0,0,0,0,0,0,0,0,0,0,0,0,0,0,0,0,0,0,0,0,0,0,0.016,-0.0027,-0.0278,-0.0539,-0.0715,-0.1025,-0.1356,-0.1847,-0.1901,0,0,0,0,0,0,0,0,0,0,0,0,0,0,0,0,0,0,0,0,0,0,0,0,0,0,0,0,0,0,0,0,0,0,0,0,0,0,0,0.0101,0.0,-0.0187,-0.0278,-0.0347,-0.0454,-0.0785,-0.1127,0,0,0,0,0,0,0,0,0,0,0,0,0,0,0,0,0,0,0,0,0,0,0,0,0,0,0,0,0,0,0,0,0,0,0,0,0,0,0,0,0,0,0,0,0.0064,-0.0085,-0.0283,0,0,0,0,0,0,0,0,0,0,0,0,0,0,0,0,0,0,0,0,0,0,0,0,0,0,0,0,0,0,0,0,0,0,0,0,0,0,0,0,0,0,0,0,0,0,0,0,0,0,0,0,0,0,0,0,0,0,0,0,0,0,0,0,0,0,0,0,0,0,0,0,0,0,0,0,0,0,0,0,0,0,0,0,0,0,0,0,0,0,0,0,0,0,0,0,0,0,0,0,0,0,0,0,0,0,0,0,0,0,0,0,0,0,0,0,0,0,0,0,0,0,0,0,0,0,0,0,0,0,0,0,0,0,0,0,0,0,0,0,0,0,0,0,0,0,0,0,0,0,0,0,0,0,0,0,0,0,0,0,0,0,0,0,0,0,0,0,0,0,0,0,0,0,0,0,0,0,0,0,0,0,0,0,0,0,0,0,0,0,0,0,0,0,0,0,0,0,0,0,0,0,0,0,0,0,0,0,0,0,0,0,0,0,0,0,0,0,0,0,0,0,0,0,0,0,0,0,0,0,0,0,0,0,0,0,0,0,0,0,0,0,0,0,0,0,0,0,0,0,0,0,0,0,0,0,0,0,0,0,0,0,0,0,0,0,0,0,0,0,0,0,0,0,0,0,0,0,0,0,0,0,0,0,0,0,0,0,0,0,0,0,0,0,0,0,0,0,0,0,0,0,0,0,0,0,0,0,0,0,0,0,0,0,0,0,0,0,0,0,0,0,0,0,0,0,0,0,0,0,0,0,0,0,0,0,0,0,0,0,0,0,0,0,0,0,0,0,0,0,0,0,0,0,0,0,0,0,0,0,0,0,0,0,0,0,0,0,0,0,0,0,0,0,0,0,0,0,0,0,0,0,0,0,0,0,0,0,0,0,0,0,0,0,0,0,0,0,0,0,0,0,0,0,0,0,0,0,0,0,0,0,0,0,0,0,0,0,0,0,0,0,0,0,0,0,0,0,0,0,0,0,0,0,0,0,0,0,0,0,0,0,0,0,0,0,0,0,0,0,0,0,0,0,0,0,0,0,0,0,0,0,0,0,0,0,0,0,0,0,0,0,0,0,0,0,0,0,0,0,0,0,0,0,0,0,0,0,0,0,0,0,0,0,0,0,0,0,0,0,0,0,0,0,0,0,0,0,0,0,0,0,0,0,0,0,0,0,0,0,0,0,0,0,0,0,0,0,0,0,0,0,0,0,0,0,0,0,0,0,0,0,0,0,0,0,0,0,0,0,0,0,0,0,0,0,0,0,0,0,0,0,0,0,0,0,0,0,0,0,0,0,0,0,0,0,0,0,0,0,0,0,0,0,0,0,0,0,0,0,0,0,0,0,0,0,0,0,0,0,0,0,0,0,0,0,0,0,0,0,0,0,0,0,0,0,0,0,0,0,0,0,0,0,0,0,0,0,0,0,0,0,0,0,0,0,0,0,0,0,0,0,0,0,0,0,0,0,0,0,0,0,0,0,0,0,0,0,0,0,0,0,0,0,0,0,0,0,0,0,0,0,0,0,0,0,0,0,0,0,0,0,0,0,0,0,0,0,0,0,0,0,0,0,0,0,0,0,0,0,0,0,0,0,0,0,0,0,0,0,0,0,0,0,0,0,0,0,0,0,0,0,0,0,0,0,0,0,0,0,0,0,0,0,0,0,0,0,0,0,0,0,0,0,0,0,0,0,0,0,0,0,0,0,0,0,0,0,0,0,0,0,0,0,0,0,0,0,0,0,0,0,0,0,0,0,0,0,0,0,0,0,0,0,0,0,0,0,0,0,0,0,0,0,0,0,0,0,0,0,0,0,0,0,0,0,0,0,0,0,0,0,0,0,0,0,0,0,0,0,0,0,0,0,0,0,0,0,0,0,0,0,0,0,0,0,0,0,0,0,0,0,0,0,0,0,0,0,0,0,0,0,0,0,0,0,0,0,0,0,0,0,0,0,0,0,0,0,0,0,0,0,0,0,0,0,0,0,0,0,0,0,0,0,0,0,0,0,0,0,0,0,0]}]]]